MB601 / TC-MNV 7700 Squawk Report (28th of November, 2021)

Aircraft A306 Reg No. TC-MNV Age 22 years old
Model A300 Jet engines 2 First flight 26-03-99
Registered 04-07-08 Rollout 03-99 Delivered 19-08-99
Construction No. 758 Line No. N/A Series C4-605R
ADSHEX 4BB5D6 Airline name MNG Airlines Owner Debis Aircraft Leasing XXI B.V.
Airfield based Istanbul-Ataturk (Yesilkoy)~Istanbul~TC First tracked N/A

Flight history for TC-MNV

Route Flight No Date Playback
Ataturk (ISL) - Zagreb (ZAG) - Charles De Gaulle (CDG) MB551 2022-01-20 23:20:00
Charles De Gaulle (CDG) - Istanbul Airport (IST) MB352 2022-01-20 04:12:00
East Midlands Airport (EMA) - Koln Bonn (CGN) MB351 2022-01-19 23:30:00
Luton (LTN) - Ataturk (ISL) MB252 2022-01-19 10:00:00
East Midlands Airport (EMA) - Luton (LTN) MB251 2022-01-19 07:22:00
???? N/A 2022-01-18 16:20:00
???? N/A 2022-01-18 15:25:00
Koln Bonn (CGN) - Ataturk (ISL) MB152 2022-01-18 06:46:00
Ataturk (ISL) - East Midlands Airport (EMA) MB151 2022-01-18 04:13:00
???? N/A 2022-01-17 13:03:00
???? N/A 2022-01-17 10:02:00
Koln Bonn (CGN) - Ataturk (ISL) MB752 2022-01-17 06:06:00
Ataturk (ISL) - Koln Bonn (CGN) MB751 2022-01-17 00:27:00
???? N/A 2022-01-16 11:13:00
???? MB547 2022-01-16 09:19:00
???? MB546 2022-01-16 01:25:00
???? N/A 2022-01-15 15:41:00
???? N/A 2022-01-15 12:34:00
???? N/A 2022-01-15 06:05:00
East Midlands Airport (EMA) - Koln Bonn (CGN) N/A 2022-01-15 03:41:00
Time Lat Lon Altitude Heading Speed Vertical Rate
2021-11-28 14:05:19 GMT 41.335266 28.705902 1,125 179 123 -640
2021-11-28 14:05:15 GMT 41.337021 28.705872 1,150 179 122 -576
2021-11-28 14:04:45 GMT 41.353867 28.705688 1,475 179 119 -512
2021-11-28 14:04:43 GMT 41.354828 28.705627 1,475 179 121 -576
2021-11-28 14:04:32 GMT 41.360687 28.705444 1,575 178 127 -640
2021-11-28 14:04:23 GMT 41.366730 28.705322 1,700 179 137 -768
2021-11-28 14:04:13 GMT 41.372929 28.705153 1,825 178 139 -768
2021-11-28 14:04:02 GMT 41.379639 28.705017 1,950 178 139 -640
2021-11-28 14:03:53 GMT 41.386288 28.704779 2,050 178 138 -768
2021-11-28 14:03:42 GMT 41.392639 28.704655 2,200 179 137 -768
2021-11-28 14:03:31 GMT 41.399277 28.704529 2,300 179 135 -640
2021-11-28 14:03:22 GMT 41.405746 28.704466 2,425 179 134 -576
2021-11-28 14:03:11 GMT 41.411892 28.704401 2,525 179 135 -640
2021-11-28 14:03:00 GMT 41.418781 28.704401 2,650 179 137 -704
2021-11-28 14:02:51 GMT 41.425232 28.704279 2,750 179 140 -768
2021-11-28 14:02:40 GMT 41.432098 28.704145 2,900 178 144 -896
2021-11-28 14:02:30 GMT 41.438938 28.703890 3,050 178 148 -832
2021-11-28 14:02:19 GMT 41.446201 28.703571 3,150 177 153 -384
2021-11-28 14:02:10 GMT 41.453510 28.703251 3,175 178 162 64
2021-11-28 14:01:58 GMT 41.461613 28.703060 3,150 179 168 0
2021-11-28 14:01:48 GMT 41.469570 28.702995 3,175 181 171 0
2021-11-28 14:01:39 GMT 41.477829 28.703093 3,175 181 171 0
2021-11-28 14:01:28 GMT 41.485931 28.703218 3,175 181 169 0
2021-11-28 14:01:16 GMT 41.494942 28.703251 3,175 180 170 -64
2021-11-28 14:01:08 GMT 41.501972 28.703188 3,175 179 174 -64
2021-11-28 14:00:57 GMT 41.510513 28.702843 3,175 177 179 64
2021-11-28 14:00:46 GMT 41.519440 28.702345 3,150 177 188 0
2021-11-28 14:00:36 GMT 41.528927 28.701527 3,175 175 191 64
2021-11-28 14:00:25 GMT 41.537750 28.700222 3,150 167 194 128
2021-11-28 14:00:15 GMT 41.546677 28.696415 3,175 157 198 -64
2021-11-28 14:00:05 GMT 41.557571 28.690172 3,175 155 195 -128
2021-11-28 13:59:52 GMT 41.565468 28.684856 3,200 148 200 -128
2021-11-28 13:59:43 GMT 41.572685 28.676424 3,175 128 221 64
2021-11-28 13:59:31 GMT 41.578629 28.663017 3,175 111 242 64
2021-11-28 13:59:21 GMT 41.581284 28.647787 3,175 96 256 0
2021-11-28 13:59:11 GMT 41.582474 28.632305 3,175 95 260 0
2021-11-28 13:59:01 GMT 41.583572 28.615391 3,175 94 262 0
2021-11-28 13:58:50 GMT 41.584557 28.598242 3,175 94 262 -128
2021-11-28 13:58:40 GMT 41.585403 28.582182 3,175 92 263 128
2021-11-28 13:58:30 GMT 41.584076 28.563517 3,150 74 271 -128
2021-11-28 13:58:19 GMT 41.580551 28.547783 3,200 73 271 -320
2021-11-28 13:58:07 GMT 41.576111 28.527685 3,275 73 273 -448
2021-11-28 13:57:59 GMT 41.573151 28.514185 3,375 73 275 -832
2021-11-28 13:57:48 GMT 41.569427 28.496599 3,550 75 275 -896
2021-11-28 13:57:35 GMT 41.567799 28.476500 3,750 91 270 -1024
2021-11-28 13:57:32 GMT 41.568027 28.470686 3,800 94 268 -1024
2021-11-28 13:57:29 GMT 41.568329 28.464266 3,875 93 270 -960
2021-11-28 13:57:23 GMT 41.568741 28.455776 3,950 93 272 -1088
2021-11-28 13:57:16 GMT 41.569290 28.444601 4,075 93 274 -1088
2021-11-28 13:57:12 GMT 41.569611 28.437792 4,125 93 276 -1088
2021-11-28 13:57:07 GMT 41.570030 28.428976 4,250 93 278 -1088
2021-11-28 13:57:02 GMT 41.570496 28.419907 4,325 93 279 -1152
2021-11-28 13:56:57 GMT 41.570892 28.411894 4,475 93 279 -2048
2021-11-28 13:56:53 GMT 41.571213 28.404778 4,625 93 281 -1984
2021-11-28 13:56:47 GMT 41.571659 28.393972 4,825 92 283 -2304
2021-11-28 13:56:43 GMT 41.571945 28.386299 5,000 93 285 -1920
2021-11-28 13:56:37 GMT 41.572407 28.375706 5,175 93 288 -1728
2021-11-28 13:56:31 GMT 41.572769 28.365763 5,325 92 291 -1472
2021-11-28 13:56:26 GMT 41.573090 28.357649 5,425 92 297 -1216
2021-11-28 13:56:18 GMT 41.573616 28.343193 5,500 93 304 -1088
2021-11-28 13:56:16 GMT 41.573803 28.338339 5,625 93 305 -1088
2021-11-28 13:56:12 GMT 41.574142 28.330494 5,700 93 309 -1152
2021-11-28 13:56:06 GMT 41.574638 28.319113 5,800 93 315 -1088
2021-11-28 13:56:02 GMT 41.575012 28.311144 5,875 93 320 -1408
2021-11-28 13:55:55 GMT 41.575653 28.298098 6,100 93 322 -2560
2021-11-28 13:55:51 GMT 41.576065 28.289671 6,275 93 323 -2560
2021-11-28 13:55:46 GMT 41.576614 28.278248 6,500 93 326 -2368
2021-11-28 13:55:41 GMT 41.577106 28.267885 6,725 93 327 -2752
2021-11-28 13:55:35 GMT 41.577667 28.256649 6,975 93 329 -2688
2021-11-28 13:55:32 GMT 41.577991 28.249746 7,150 93 330 -2688
2021-11-28 13:55:25 GMT 41.578644 28.236204 7,425 93 334 -2432
2021-11-28 13:55:21 GMT 41.579018 28.228413 7,550 93 335 -2560
2021-11-28 13:55:15 GMT 41.579620 28.214680 7,850 93 337 -2624
2021-11-28 13:55:12 GMT 41.579899 28.208483 8,000 93 338 -2560
2021-11-28 13:55:04 GMT 41.580505 28.193344 8,275 93 342 -2048
2021-11-28 13:55:00 GMT 41.580784 28.187021 8,375 93 342 -1984
2021-11-28 13:54:53 GMT 41.581345 28.171246 8,625 92 347 -1984
2021-11-28 13:54:50 GMT 41.581604 28.164513 8,725 92 348 -2048
2021-11-28 13:54:43 GMT 41.582321 28.147421 9,050 93 351 -2560
2021-11-28 13:54:40 GMT 41.582691 28.138926 9,200 93 353 -2432
2021-11-28 13:54:31 GMT 41.583435 28.121693 9,525 93 356 -2304
2021-11-28 13:54:21 GMT 41.584415 28.099386 9,875 93 363 -1984
2021-11-28 13:54:18 GMT 41.584648 28.093828 9,975 93 366 -1856
2021-11-28 13:54:11 GMT 41.585312 28.077185 10,200 93 370 -2048
2021-11-28 13:54:08 GMT 41.585541 28.071379 10,300 93 373 -1856
2021-11-28 13:54:01 GMT 41.586319 28.053963 10,550 93 378 -2560
2021-11-28 13:53:51 GMT 41.587372 28.029930 11,025 93 382 -2752
2021-11-28 13:53:41 GMT 41.588562 28.006460 11,475 93 386 -2432
2021-11-28 13:53:33 GMT 41.589443 27.988438 11,775 93 390 -2688
2021-11-28 13:53:28 GMT 41.590096 27.974512 12,025 93 393 -2624
2021-11-28 13:53:19 GMT 41.590935 27.955416 12,375 93 396 -2688
2021-11-28 13:53:17 GMT 41.591217 27.948845 12,500 93 398 -2624
2021-11-28 13:53:10 GMT 41.591957 27.932356 12,775 93 400 -2816
2021-11-28 13:53:00 GMT 41.593048 27.906710 13,225 93 406 -1344
2021-11-28 13:52:57 GMT 41.593353 27.899269 13,275 93 407 -1344
2021-11-28 13:52:47 GMT 41.594749 27.873209 13,525 93 412 -1536
2021-11-28 13:52:39 GMT 41.595680 27.854750 13,725 93 414 -1728
2021-11-28 13:52:35 GMT 41.596146 27.845104 13,825 93 416 -1856
2021-11-28 13:52:28 GMT 41.597031 27.825686 14,075 93 418 -1920
2021-11-28 13:52:26 GMT 41.597260 27.820690 14,150 93 419 -1856
2021-11-28 13:52:19 GMT 41.598103 27.801224 14,350 93 421 -2048
2021-11-28 13:52:15 GMT 41.598476 27.793365 14,475 93 421 -2304
2021-11-28 13:52:08 GMT 41.599411 27.773874 14,775 93 421 -2624
2021-11-28 13:52:06 GMT 41.599777 27.766197 14,925 93 421 -2688
2021-11-28 13:51:55 GMT 41.600895 27.739777 15,400 93 419 -2944
2021-11-28 13:51:47 GMT 41.601746 27.719379 15,850 93 415 -3328
2021-11-28 13:51:44 GMT 41.601967 27.714100 15,975 93 415 -2816
2021-11-28 13:51:37 GMT 41.602798 27.693537 16,225 93 416 -1984
2021-11-28 13:51:35 GMT 41.603039 27.687782 16,300 93 417 -2048
2021-11-28 13:51:27 GMT 41.603851 27.667568 16,550 93 417 -1984
2021-11-28 13:51:24 GMT 41.604080 27.661388 16,650 93 417 -1984
2021-11-28 13:51:16 GMT 41.605179 27.634361 16,925 93 418 -1728
2021-11-28 13:51:13 GMT 41.605179 27.634361 16,975 93 419 -1600
2021-11-28 13:51:06 GMT 41.606003 27.614635 17,175 93 419 -1536
2021-11-28 13:51:03 GMT 41.606232 27.608519 17,225 93 419 -1536
2021-11-28 13:50:56 GMT 41.607056 27.588917 17,425 93 419 -1472
2021-11-28 13:50:54 GMT 41.607319 27.581560 17,500 92 419 -1408
2021-11-28 13:50:46 GMT 41.608017 27.562263 17,675 92 420 -1408
2021-11-28 13:50:43 GMT 41.608246 27.555834 17,725 93 420 -1408
2021-11-28 13:50:35 GMT 41.609276 27.533781 17,925 95 422 -1472
2021-11-28 13:50:32 GMT 41.609695 27.527140 18,000 94 422 -1472
2021-11-28 13:50:26 GMT 41.611092 27.508297 18,175 96 422 -1408
2021-11-28 13:50:22 GMT 41.611771 27.500402 18,250 96 423 -1472
2021-11-28 13:50:15 GMT 41.613190 27.482237 18,425 93 425 -1536
2021-11-28 13:50:13 GMT 41.613556 27.475721 18,500 93 426 -1536
2021-11-28 13:50:05 GMT 41.614441 27.455984 18,675 93 426 -1536
2021-11-28 13:50:02 GMT 41.614838 27.448280 18,750 94 427 -1536
2021-11-28 13:49:54 GMT 41.616352 27.426218 18,950 94 429 -1472
2021-11-28 13:49:51 GMT 41.616722 27.420790 19,000 93 429 -1536
2021-11-28 13:49:45 GMT 41.617374 27.404245 19,175 92 431 -1408
2021-11-28 13:49:42 GMT 41.617653 27.397284 19,225 92 431 -1408
2021-11-28 13:49:38 GMT 41.618305 27.383039 19,350 93 431 -1344
2021-11-28 13:49:34 GMT 41.618771 27.373587 19,450 94 432 -1344
2021-11-28 13:49:30 GMT 41.619469 27.362984 19,525 94 432 -1280
2021-11-28 13:49:24 GMT 41.620697 27.348591 19,650 99 431 -1472
2021-11-28 13:49:21 GMT 41.621983 27.339222 19,725 104 430 -1472
2021-11-28 13:49:13 GMT 41.626373 27.319752 19,925 112 426 -1472
2021-11-28 13:49:09 GMT 41.633717 27.299046 20,375 130 413 -1408
2021-11-28 13:49:04 GMT 41.633717 27.299046 20,150 120 420 -1472
2021-11-28 13:49:02 GMT 41.635902 27.294191 20,200 123 418 -1472
2021-11-28 13:48:54 GMT 41.645462 27.277119 20,400 130 413 -1408
2021-11-28 13:48:52 GMT 41.647263 27.274389 20,425 133 411 -1472
2021-11-28 13:48:47 GMT 41.654243 27.265127 20,550 138 407 -1472
2021-11-28 13:48:44 GMT 41.658966 27.259640 20,625 140 405 -1472
2021-11-28 13:48:42 GMT 41.662392 27.256058 20,675 142 404 -1472
2021-11-28 13:48:35 GMT 41.672447 27.246412 20,875 144 404 -1408
2021-11-28 13:48:32 GMT 41.676495 27.242580 20,900 144 404 -1472
2021-11-28 13:48:28 GMT 41.682919 27.236641 21,000 144 405 -1472
2021-11-28 13:48:24 GMT 41.689453 27.230551 21,100 145 406 -1408
2021-11-28 13:48:22 GMT 41.692474 27.227741 21,150 145 406 -1408
2021-11-28 13:48:18 GMT 41.699306 27.221437 21,250 145 405 -1216
2021-11-28 13:48:12 GMT 41.708431 27.213200 21,375 145 405 -896
2021-11-28 13:48:03 GMT 41.721558 27.201191 21,500 144 407 -960
2021-11-28 13:48:01 GMT 41.724586 27.198317 21,525 144 408 -960
2021-11-28 13:47:57 GMT 41.737713 27.185223 21,675 143 410 -960
2021-11-28 13:47:52 GMT 41.737713 27.185223 21,700 142 410 -896
2021-11-28 13:47:49 GMT 41.742088 27.180687 21,700 141 411 -896
2021-11-28 13:47:43 GMT 41.752441 27.169563 21,800 140 414 -768
2021-11-28 13:47:41 GMT 41.756287 27.165293 21,825 139 415 -832
2021-11-28 13:47:38 GMT 41.766495 27.153521 21,950 139 416 -832
2021-11-28 13:47:33 GMT 41.766495 27.153521 21,925 138 418 -832
2021-11-28 13:47:29 GMT 41.771648 27.147408 21,975 137 419 -832
2021-11-28 13:47:22 GMT 41.781876 27.134794 22,075 136 421 -832
2021-11-28 13:47:20 GMT 41.785309 27.130363 22,100 136 422 -768
2021-11-28 13:47:15 GMT 41.792130 27.121435 22,175 134 423 -768
2021-11-28 13:47:12 GMT 41.796341 27.115694 22,225 134 424 -768
2021-11-28 13:47:06 GMT 41.804077 27.104958 22,275 133 425 -704
2021-11-28 13:47:01 GMT 41.810242 27.096054 22,350 131 427 -704
2021-11-28 13:46:59 GMT 41.814011 27.090412 22,375 131 427 -704
2021-11-28 13:46:55 GMT 41.819180 27.082577 22,425 130 429 -704
2021-11-28 13:46:49 GMT 41.826965 27.070312 22,500 129 432 -704
2021-11-28 13:46:46 GMT 41.835842 27.055494 22,575 128 434 -768
2021-11-28 13:46:42 GMT 41.835842 27.055494 22,575 127 435 -768
2021-11-28 13:46:39 GMT 41.840687 27.047190 22,625 127 436 -768
2021-11-28 13:46:35 GMT 41.843536 27.042034 22,675 126 438 -768
2021-11-28 13:46:32 GMT 41.848183 27.033649 22,725 125 440 -832
2021-11-28 13:46:28 GMT 41.852280 27.025867 22,750 124 441 -768
2021-11-28 13:46:25 GMT 41.855942 27.018751 22,850 123 443 -768
2021-11-28 13:46:22 GMT 41.859512 27.011698 22,850 123 444 -832
2021-11-28 13:46:18 GMT 41.863171 27.004139 22,900 122 447 -832
2021-11-28 13:46:15 GMT 41.866608 26.996841 23,225 120 448 -896
2021-11-28 13:46:11 GMT 41.871048 26.987041 23,000 120 449 -960
2021-11-28 13:46:09 GMT 41.874390 26.979488 23,050 120 449 -896
2021-11-28 13:46:04 GMT 41.878067 26.971115 23,100 120 451 -896
2021-11-28 13:46:01 GMT 41.882263 26.961636 23,225 120 453 -960
2021-11-28 13:45:57 GMT 41.885971 26.953146 23,200 120 452 -960
2021-11-28 13:45:54 GMT 41.889610 26.944672 23,275 120 453 -960
2021-11-28 13:45:51 GMT 41.893383 26.936049 23,325 120 453 -960
2021-11-28 13:45:47 GMT 41.896595 26.928640 23,375 120 455 -960
2021-11-28 13:45:44 GMT 41.900345 26.920000 23,425 119 456 -960
2021-11-28 13:45:41 GMT 41.902882 26.914141 23,475 120 456 -896
2021-11-28 13:45:37 GMT 41.907486 26.903458 23,525 120 457 -896
2021-11-28 13:45:31 GMT 41.914051 26.888399 23,625 120 457 -960
2021-11-28 13:45:27 GMT 41.918701 26.877678 23,700 120 458 -960
2021-11-28 13:45:23 GMT 41.921539 26.871248 23,750 120 458 -960
2021-11-28 13:45:20 GMT 41.926064 26.861061 23,825 120 458 -960
2021-11-28 13:45:15 GMT 41.930511 26.851149 23,875 121 459 -960
2021-11-28 13:45:12 GMT 41.934860 26.841597 23,925 121 459 -960
2021-11-28 13:45:09 GMT 41.937374 26.836149 23,950 121 459 -960
2021-11-28 13:45:04 GMT 41.943798 26.822353 24,050 123 459 -1024
2021-11-28 13:44:59 GMT 41.949097 26.811510 24,125 124 459 -1024
2021-11-28 13:44:53 GMT 41.956509 26.797060 24,225 125 459 -960
2021-11-28 13:44:49 GMT 41.963150 26.784731 24,325 126 458 -960
2021-11-28 13:44:43 GMT 41.969147 26.774181 24,400 128 457 -960
2021-11-28 13:44:38 GMT 41.976059 26.762383 24,475 128 456 -960
2021-11-28 13:44:35 GMT 41.980156 26.755669 24,525 129 456 -960
2021-11-28 13:44:31 GMT 41.986313 26.745716 24,600 130 456 -896
2021-11-28 13:44:27 GMT 41.990211 26.739573 24,650 130 456 -960
2021-11-28 13:44:23 GMT 41.996979 26.729113 24,725 131 456 -960
2021-11-28 13:44:17 GMT 42.004177 26.718176 24,800 131 456 -960
2021-11-28 13:44:13 GMT 42.009201 26.710697 24,875 131 457 -1024
2021-11-28 13:44:10 GMT 42.013859 26.703802 24,950 131 458 -960
2021-11-28 13:44:07 GMT 42.017536 26.698246 24,950 131 458 -960
2021-11-28 13:44:04 GMT 42.024078 26.688414 25,025 131 458 -1024
2021-11-28 13:43:59 GMT 42.036949 26.669312 25,150 132 458 -960
2021-11-28 13:43:54 GMT 42.036949 26.669312 25,200 132 460 -1024
2021-11-28 13:43:51 GMT 42.041428 26.662695 25,225 132 460 -1024
2021-11-28 13:43:47 GMT 42.046967 26.654516 25,300 132 459 -1024
2021-11-28 13:43:41 GMT 42.055023 26.642656 25,450 132 460 -1024
2021-11-28 13:43:37 GMT 42.061344 26.633287 25,475 132 460 -1024
2021-11-28 13:43:33 GMT 42.068390 26.622807 25,550 132 460 -1024
2021-11-28 13:43:29 GMT 42.073380 26.615503 25,650 132 460 -960
2021-11-28 13:43:26 GMT 42.078552 26.607826 25,650 132 460 -1024
2021-11-28 13:43:22 GMT 42.082989 26.601221 25,725 132 460 -1024
2021-11-28 13:43:19 GMT 42.086433 26.596048 25,775 132 460 -960
2021-11-28 13:43:16 GMT 42.091461 26.588598 25,825 132 461 -960
2021-11-28 13:43:13 GMT 42.096634 26.580858 25,875 132 461 -960
2021-11-28 13:43:09 GMT 42.100914 26.574524 25,975 132 461 -960
2021-11-28 13:43:05 GMT 42.106777 26.565836 25,975 132 462 -960
2021-11-28 13:43:01 GMT 42.112133 26.557852 26,050 131 462 -896
2021-11-28 13:42:58 GMT 42.117298 26.550058 26,100 132 463 -960
2021-11-28 13:42:55 GMT 42.120346 26.545528 26,175 132 463 -960
2021-11-28 13:42:50 GMT 42.128357 26.533606 26,225 132 463 -960
2021-11-28 13:42:46 GMT 42.135040 26.523619 26,325 131 465 -1216
2021-11-28 13:42:41 GMT 42.141220 26.514380 26,475 131 466 -1472
2021-11-28 13:42:37 GMT 42.147171 26.505453 26,500 132 465 -1472
2021-11-28 13:42:34 GMT 42.156235 26.491907 26,550 131 466 -1536
2021-11-28 13:42:30 GMT 42.156235 26.491907 26,725 131 468 -1472
2021-11-28 13:42:27 GMT 42.161270 26.484417 26,750 131 468 -1472
2021-11-28 13:42:24 GMT 42.165199 26.478456 26,825 131 470 -1472
2021-11-28 13:42:19 GMT 42.172760 26.467064 26,950 131 470 -1472
2021-11-28 13:42:15 GMT 42.191830 26.438343 27,075 131 470 -1408
2021-11-28 13:42:06 GMT 42.191830 26.438343 27,250 131 472 -1472
2021-11-28 13:42:04 GMT 42.194996 26.433617 27,325 131 473 -1472
2021-11-28 13:41:58 GMT 42.202629 26.422119 27,450 132 473 -1408
2021-11-28 13:41:54 GMT 42.209518 26.411819 27,575 132 474 -1472
2021-11-28 13:41:49 GMT 42.217804 26.399523 27,675 132 476 -1408
2021-11-28 13:41:46 GMT 42.222015 26.393217 27,750 131 478 -1408
2021-11-28 13:41:43 GMT 42.225113 26.388521 27,800 131 478 -1408
2021-11-28 13:41:37 GMT 42.233734 26.375614 27,925 131 480 -1408
2021-11-28 13:41:34 GMT 42.239868 26.366377 28,050 131 482 -1472
2021-11-28 13:41:26 GMT 42.250439 26.350515 28,325 131 483 -1536
2021-11-28 13:41:23 GMT 42.255512 26.342915 28,300 131 484 -1472
2021-11-28 13:41:15 GMT 42.267609 26.324739 28,575 132 487 -1536
2021-11-28 13:41:12 GMT 42.270813 26.319935 28,575 132 487 -1472
2021-11-28 13:41:08 GMT 42.279579 26.306828 28,700 131 487 -1472
2021-11-28 13:41:02 GMT 42.285873 26.297337 29,000 131 490 -1536
2021-11-28 13:40:57 GMT 42.294292 26.284725 29,050 131 490 -1536
2021-11-28 13:40:52 GMT 42.301392 26.274054 29,075 131 490 -1472
2021-11-28 13:40:46 GMT 42.310043 26.261070 29,250 131 493 -1536
2021-11-28 13:40:43 GMT 42.315308 26.253080 29,325 131 493 -1472
2021-11-28 13:40:39 GMT 42.321075 26.244404 29,375 131 493 -1472
2021-11-28 13:40:34 GMT 42.328445 26.233292 29,475 131 494 -1472
2021-11-28 13:40:31 GMT 42.342407 26.212318 29,575 131 494 -1472
2021-11-28 13:40:25 GMT 42.342407 26.212318 29,725 131 494 -1472
2021-11-28 13:40:21 GMT 42.349689 26.201433 29,825 131 495 -1472
2021-11-28 13:40:16 GMT 42.356873 26.190533 29,925 131 496 -1472
2021-11-28 13:40:10 GMT 42.366440 26.176174 30,050 131 496 -1408
2021-11-28 13:40:04 GMT 42.375572 26.162407 30,350 131 496 -1472
2021-11-28 13:40:01 GMT 42.380226 26.155380 30,325 131 496 -1472
2021-11-28 13:39:56 GMT 42.389210 26.141840 30,450 131 496 -1472
2021-11-28 13:39:50 GMT 42.396332 26.131105 30,625 131 496 -1408
2021-11-28 13:39:45 GMT 42.404293 26.119038 30,675 131 495 -1408
2021-11-28 13:39:41 GMT 42.411346 26.108385 30,775 131 495 -1344
2021-11-28 13:39:37 GMT 42.417934 26.098471 30,875 131 495 -1344
2021-11-28 13:39:32 GMT 42.425846 26.086460 30,975 131 495 -832
2021-11-28 13:39:28 GMT 42.430271 26.079754 31,000 131 495 0
2021-11-28 13:39:24 GMT 42.437252 26.069151 30,975 131 495 64
2021-11-28 13:39:21 GMT 42.440975 26.063467 31,000 141 281 0
2021-11-28 13:39:16 GMT 42.448380 26.052288 31,000 141 282 0
2021-11-28 13:39:13 GMT 42.452801 26.045519 31,000 131 495 0
2021-11-28 13:39:10 GMT 42.458725 26.036598 30,975 131 495 64
2021-11-28 13:39:07 GMT 42.461700 26.032104 30,975 131 495 64
2021-11-28 13:39:02 GMT 42.471497 26.017248 30,975 131 495 0
2021-11-28 13:38:58 GMT 42.476730 26.009300 30,975 131 495 64
2021-11-28 13:38:54 GMT 42.483433 25.999146 30,975 131 494 64
2021-11-28 13:38:49 GMT 42.489670 25.989719 31,000 131 494 0
2021-11-28 13:38:46 GMT 42.493629 25.983751 31,000 131 492 0
2021-11-28 13:38:41 GMT 42.500702 25.973085 31,000 131 492 -64
2021-11-28 13:38:37 GMT 42.507843 25.962191 31,000 131 491 0
2021-11-28 13:38:34 GMT 42.517776 25.947084 31,000 131 490 0
2021-11-28 13:38:31 GMT 42.517776 25.947084 31,000 131 490 -64
2021-11-28 13:38:27 GMT 42.523235 25.938786 31,000 131 490 0
2021-11-28 13:38:23 GMT 42.529892 25.928692 31,000 131 490 0
2021-11-28 13:38:17 GMT 42.539017 25.914703 31,000 131 490 0
2021-11-28 13:38:12 GMT 42.545563 25.904701 31,000 131 490 0
2021-11-28 13:38:07 GMT 42.552200 25.894588 31,000 131 490 -64
2021-11-28 13:38:01 GMT 42.561447 25.880482 31,000 131 491 -64
2021-11-28 13:37:58 GMT 42.566940 25.872116 31,000 131 491 0
2021-11-28 13:37:55 GMT 42.570053 25.867373 31,000 131 490 0
2021-11-28 13:37:51 GMT 42.576920 25.856886 31,000 131 491 0
2021-11-28 13:37:47 GMT 42.582458 25.848396 31,000 131 491 0
2021-11-28 13:37:43 GMT 42.588135 25.839781 31,000 131 491 0
2021-11-28 13:37:40 GMT 42.593491 25.831541 31,000 131 491 0
2021-11-28 13:37:36 GMT 42.600605 25.820683 31,000 131 491 0
2021-11-28 13:37:31 GMT 42.607773 25.809759 31,000 131 491 0
2021-11-28 13:37:28 GMT 42.612259 25.802952 31,000 131 491 0
2021-11-28 13:37:25 GMT 42.615784 25.797585 30,975 131 491 0
2021-11-28 13:37:21 GMT 42.621231 25.789219 30,975 131 491 0
2021-11-28 13:37:18 GMT 42.626358 25.781355 31,000 131 491 0
2021-11-28 13:37:15 GMT 42.631702 25.773159 30,975 131 491 64
2021-11-28 13:37:12 GMT 42.637024 25.764999 31,000 131 491 64
2021-11-28 13:37:06 GMT 42.645218 25.752516 30,975 131 490 0
2021-11-28 13:37:03 GMT 42.648972 25.746716 30,975 131 490 0
2021-11-28 13:37:00 GMT 42.655537 25.736687 31,000 131 490 0
2021-11-28 13:36:55 GMT 42.662567 25.725924 31,000 131 490 0
2021-11-28 13:36:49 GMT 42.677788 25.702642 31,000 131 489 0
2021-11-28 13:36:44 GMT 42.677788 25.702642 31,000 131 490 0
2021-11-28 13:36:41 GMT 42.683144 25.694468 31,000 131 489 0
2021-11-28 13:36:37 GMT 42.689751 25.684311 31,000 131 489 0
2021-11-28 13:36:34 GMT 42.693329 25.678858 31,000 131 489 0
2021-11-28 13:36:29 GMT 42.699417 25.669432 31,000 131 490 64
2021-11-28 13:36:26 GMT 42.704773 25.661192 31,000 131 490 0
2021-11-28 13:36:23 GMT 42.710094 25.653011 31,000 131 490 0
2021-11-28 13:36:20 GMT 42.714157 25.646772 31,000 131 490 0
2021-11-28 13:36:15 GMT 42.720570 25.636852 31,000 131 491 0
2021-11-28 13:36:12 GMT 42.725830 25.628740 31,000 131 491 0
2021-11-28 13:36:06 GMT 42.735886 25.613218 31,000 131 491 -64
2021-11-28 13:36:00 GMT 42.744499 25.599997 31,000 131 492 0
2021-11-28 13:35:55 GMT 42.751480 25.589203 31,000 131 492 0
2021-11-28 13:35:51 GMT 42.756546 25.581415 31,000 131 493 64
2021-11-28 13:35:47 GMT 42.763119 25.571318 31,000 131 493 0
2021-11-28 13:35:44 GMT 42.766937 25.565435 31,000 131 493 0
2021-11-28 13:35:39 GMT 42.775501 25.552092 31,000 131 493 0
2021-11-28 13:35:35 GMT 42.781181 25.543406 31,000 131 493 64
2021-11-28 13:35:32 GMT 42.787418 25.533695 31,000 131 493 0
2021-11-28 13:35:28 GMT 42.791153 25.527983 30,975 131 493 0
2021-11-28 13:35:24 GMT 42.799164 25.515621 30,975 131 493 0
2021-11-28 13:35:19 GMT 42.806644 25.504059 31,000 131 491 64
2021-11-28 13:35:14 GMT 42.813580 25.493382 30,975 131 491 0
2021-11-28 13:35:11 GMT 42.817337 25.487642 30,975 131 491 0
2021-11-28 13:35:07 GMT 42.823105 25.478701 31,000 131 490 64
2021-11-28 13:35:04 GMT 42.828598 25.470268 30,975 131 490 64
2021-11-28 13:35:01 GMT 42.832947 25.463497 30,975 131 490 0
2021-11-28 13:34:57 GMT 42.838806 25.454428 31,000 131 489 0
2021-11-28 13:34:54 GMT 42.843979 25.446444 31,000 131 489 0
2021-11-28 13:34:51 GMT 42.847706 25.440674 31,000 131 488 0
2021-11-28 13:34:46 GMT 42.859222 25.422874 31,000 131 488 -64
2021-11-28 13:34:43 GMT 42.859222 25.422874 31,000 131 488 0
2021-11-28 13:34:38 GMT 42.868240 25.408886 31,000 131 488 0
2021-11-28 13:34:34 GMT 42.878056 25.393591 31,000 131 488 -64
2021-11-28 13:34:31 GMT 42.878056 25.393591 31,000 131 489 -64
2021-11-28 13:34:24 GMT 42.888062 25.377972 31,000 131 489 0
2021-11-28 13:34:21 GMT 42.892765 25.370636 31,000 131 489 0
2021-11-28 13:34:17 GMT 42.898087 25.362322 31,000 131 490 0
2021-11-28 13:34:14 GMT 42.903381 25.354092 31,000 131 490 0
2021-11-28 13:34:09 GMT 42.910316 25.343237 31,000 131 490 -64
2021-11-28 13:34:06 GMT 42.913788 25.337793 31,000 131 490 -64
2021-11-28 13:34:01 GMT 42.921162 25.326233 31,000 131 490 0
2021-11-28 13:33:57 GMT 42.928848 25.314224 31,000 131 490 0
2021-11-28 13:33:52 GMT 42.936012 25.303019 31,000 131 490 64
2021-11-28 13:33:49 GMT 42.939880 25.296980 31,000 131 490 0
2021-11-28 13:33:46 GMT 42.944393 25.289940 30,975 131 490 0
2021-11-28 13:33:43 GMT 42.948624 25.283373 31,000 131 489 -64
2021-11-28 13:33:39 GMT 42.954300 25.274494 31,000 131 489 0
2021-11-28 13:33:36 GMT 42.959709 25.266069 30,975 131 489 0
2021-11-28 13:33:30 GMT 42.968811 25.251884 31,000 131 488 0
2021-11-28 13:33:24 GMT 42.976089 25.240578 30,975 131 486 64
2021-11-28 13:33:19 GMT 42.985977 25.225248 30,975 131 485 64
2021-11-28 13:33:16 GMT 42.990005 25.219051 30,975 131 484 64
2021-11-28 13:33:12 GMT 42.994446 25.212217 30,975 131 482 0
2021-11-28 13:33:09 GMT 42.999416 25.204533 30,975 131 482 -64
2021-11-28 13:33:05 GMT 43.005470 25.195183 30,975 131 481 0
2021-11-28 13:33:02 GMT 43.009735 25.188583 31,000 131 478 0
2021-11-28 13:32:59 GMT 43.014130 25.181776 31,000 131 477 0
2021-11-28 13:32:55 GMT 43.020081 25.172552 31,000 131 475 0
2021-11-28 13:32:51 GMT 43.025951 25.163465 31,000 131 473 0
2021-11-28 13:32:48 GMT 43.031433 25.154922 31,000 131 470 -64
2021-11-28 13:32:42 GMT 43.040085 25.141445 31,000 131 467 -64
2021-11-28 13:32:38 GMT 43.049973 25.125988 31,000 131 466 0
2021-11-28 13:32:35 GMT 43.049973 25.125988 31,000 131 463 64
2021-11-28 13:32:31 GMT 43.054321 25.119217 31,000 131 462 -64
2021-11-28 13:32:28 GMT 43.058678 25.112392 31,000 131 462 0
2021-11-28 13:32:24 GMT 43.063614 25.104675 31,000 131 462 0
2021-11-28 13:32:21 GMT 43.068695 25.096670 31,000 130 462 64
2021-11-28 13:32:17 GMT 43.073341 25.089373 31,000 130 462 64
2021-11-28 13:32:14 GMT 43.078354 25.081469 31,000 130 462 0
2021-11-28 13:32:11 GMT 43.083912 25.072697 31,000 130 462 -128
2021-11-28 13:32:08 GMT 43.092613 25.058899 31,000 130 462 -64
2021-11-28 13:32:03 GMT 43.092613 25.058899 31,000 130 462 0
2021-11-28 13:32:00 GMT 43.096947 25.052032 31,000 130 463 0
2021-11-28 13:31:57 GMT 43.108723 25.033396 31,000 130 463 0
2021-11-28 13:31:53 GMT 43.108723 25.033396 31,000 130 463 0
2021-11-28 13:31:50 GMT 43.112957 25.026659 31,000 130 463 -64
2021-11-28 13:31:46 GMT 43.116211 25.021490 31,000 130 463 -64
2021-11-28 13:31:43 GMT 43.121017 25.013824 31,000 130 463 0
2021-11-28 13:31:40 GMT 43.126785 25.004690 31,000 130 463 0
2021-11-28 13:31:36 GMT 43.130951 24.998112 30,975 130 463 0
2021-11-28 13:31:32 GMT 43.136078 24.990000 31,000 130 464 0
2021-11-28 13:31:29 GMT 43.140427 24.983103 30,975 130 463 64
2021-11-28 13:31:26 GMT 43.149719 24.968410 31,000 130 463 128
2021-11-28 13:31:22 GMT 43.149719 24.968410 30,975 130 463 128
2021-11-28 13:31:18 GMT 43.155762 24.958895 30,975 130 462 0
2021-11-28 13:31:15 GMT 43.160164 24.951979 30,975 130 463 -64
2021-11-28 13:31:12 GMT 43.164322 24.945415 31,000 131 463 -64
2021-11-28 13:31:09 GMT 43.168945 24.938198 31,000 131 462 -64
2021-11-28 13:31:06 GMT 43.173294 24.931364 31,000 131 461 0
2021-11-28 13:31:02 GMT 43.178829 24.922747 31,000 131 461 64
2021-11-28 13:30:58 GMT 43.184509 24.913984 31,000 131 459 64
2021-11-28 13:30:55 GMT 43.187954 24.908623 31,000 133 455 0
2021-11-28 13:30:49 GMT 43.197968 24.893423 31,000 132 458 -64
2021-11-28 13:30:46 GMT 43.208672 24.877298 31,000 132 458 0
2021-11-28 13:30:41 GMT 43.208672 24.877298 31,000 132 458 0
2021-11-28 13:30:35 GMT 43.217049 24.864939 31,000 133 455 0
2021-11-28 13:30:31 GMT 43.223099 24.856312 31,000 134 453 -64
2021-11-28 13:30:28 GMT 43.231842 24.844240 31,000 134 453 -64
2021-11-28 13:30:25 GMT 43.231842 24.844240 31,000 136 451 -64
2021-11-28 13:30:20 GMT 43.238892 24.834785 31,000 135 451 0
2021-11-28 13:30:17 GMT 43.245621 24.825909 31,000 136 451 -64
2021-11-28 13:30:14 GMT 43.248798 24.821712 31,000 136 451 -64
2021-11-28 13:30:08 GMT 43.257431 24.810450 31,000 136 451 -64
2021-11-28 13:30:05 GMT 43.262878 24.803295 31,000 136 452 0
2021-11-28 13:30:01 GMT 43.269150 24.795120 31,000 136 452 0
2021-11-28 13:29:57 GMT 43.274494 24.788099 31,000 136 452 0
2021-11-28 13:29:54 GMT 43.278454 24.782932 31,000 136 452 64
2021-11-28 13:29:50 GMT 43.284225 24.775347 31,000 136 453 128
2021-11-28 13:29:46 GMT 43.291019 24.766453 30,975 136 453 0
2021-11-28 13:29:43 GMT 43.294327 24.762072 31,000 136 454 0
2021-11-28 13:29:40 GMT 43.299679 24.755075 30,975 136 453 0
2021-11-28 13:29:37 GMT 43.303867 24.749647 31,000 136 453 -64
2021-11-28 13:29:34 GMT 43.310760 24.740572 31,000 136 453 -64
2021-11-28 13:29:27 GMT 43.319881 24.728722 31,000 136 453 0
2021-11-28 13:29:23 GMT 43.325516 24.721331 31,000 136 453 0
2021-11-28 13:29:20 GMT 43.330902 24.714256 31,000 136 452 64
2021-11-28 13:29:16 GMT 43.336365 24.707075 31,000 136 453 0
2021-11-28 13:29:13 GMT 43.341064 24.700907 31,000 136 452 0
2021-11-28 13:29:07 GMT 43.349957 24.689222 31,000 136 452 0
2021-11-28 13:29:03 GMT 43.356125 24.681107 30,975 136 452 64
2021-11-28 13:28:59 GMT 43.361965 24.673462 30,975 136 452 64
2021-11-28 13:28:55 GMT 43.367878 24.665680 31,000 136 453 -192
2021-11-28 13:28:52 GMT 43.372208 24.659990 31,000 136 453 -128
2021-11-28 13:28:48 GMT 43.377747 24.652666 31,000 136 453 0
2021-11-28 13:28:45 GMT 43.382812 24.646038 31,000 136 453 64
2021-11-28 13:28:42 GMT 43.387337 24.640045 31,000 136 453 64
2021-11-28 13:28:39 GMT 43.392830 24.632786 31,000 136 453 0
2021-11-28 13:28:34 GMT 43.399628 24.623827 31,000 136 453 0
2021-11-28 13:28:31 GMT 43.404049 24.618008 31,000 136 453 0
2021-11-28 13:28:28 GMT 43.408424 24.612251 31,000 136 454 0
2021-11-28 13:28:24 GMT 43.413757 24.605223 30,975 136 453 0
2021-11-28 13:28:20 GMT 43.421692 24.594791 30,975 136 454 -64
2021-11-28 13:28:17 GMT 43.424484 24.591064 31,000 136 454 -64
2021-11-28 13:28:14 GMT 43.429779 24.584082 31,000 136 454 -64
2021-11-28 13:28:11 GMT 43.434494 24.577921 31,000 136 454 -64
2021-11-28 13:28:07 GMT 43.440674 24.569710 31,000 135 453 0
2021-11-28 13:28:04 GMT 43.444595 24.564514 31,000 135 453 64
2021-11-28 13:28:01 GMT 43.455643 24.549845 31,000 135 453 0
2021-11-28 13:27:58 GMT 43.455643 24.549845 31,000 136 452 0
2021-11-28 13:27:54 GMT 43.460266 24.543713 30,975 135 453 128
2021-11-28 13:27:51 GMT 43.465546 24.536720 30,975 136 454 64
2021-11-28 13:27:46 GMT 43.473366 24.526388 31,000 136 454 -128
2021-11-28 13:27:43 GMT 43.475693 24.523336 31,000 136 454 0
2021-11-28 13:27:40 GMT 43.480766 24.516645 31,000 135 453 64
2021-11-28 13:27:36 GMT 43.487549 24.507624 31,000 136 452 64
2021-11-28 13:27:32 GMT 43.494453 24.498531 30,975 136 452 0
2021-11-28 13:27:28 GMT 43.498718 24.492868 30,975 135 451 -64
2021-11-28 13:27:24 GMT 43.505627 24.483751 31,000 135 451 0
2021-11-28 13:27:20 GMT 43.511581 24.475752 31,000 135 451 0
2021-11-28 13:27:17 GMT 43.516567 24.469170 31,000 135 450 -64
2021-11-28 13:27:11 GMT 43.525497 24.457228 31,000 135 450 0
2021-11-28 13:27:06 GMT 43.532318 24.448093 31,000 135 451 -64
2021-11-28 13:27:03 GMT 43.536163 24.442945 31,000 135 451 0
2021-11-28 13:26:58 GMT 43.544083 24.432316 31,000 135 451 128
2021-11-28 13:26:55 GMT 43.547882 24.427271 31,000 135 451 64
2021-11-28 13:26:52 GMT 43.553513 24.419668 30,975 135 451 0
2021-11-28 13:26:49 GMT 43.556557 24.415545 30,975 135 451 0
2021-11-28 13:26:46 GMT 43.566147 24.402615 31,000 135 452 0
2021-11-28 13:26:43 GMT 43.566147 24.402615 31,000 135 452 0
2021-11-28 13:26:38 GMT 43.574615 24.391182 31,000 135 453 0
2021-11-28 13:26:34 GMT 43.580383 24.383389 31,000 135 453 64
2021-11-28 13:26:30 GMT 43.589447 24.371061 31,000 135 453 0
2021-11-28 13:26:23 GMT 43.596863 24.360970 31,000 135 453 0
2021-11-28 13:26:17 GMT 43.605576 24.349104 31,000 135 453 0
2021-11-28 13:26:11 GMT 43.613388 24.338421 31,000 135 453 64
2021-11-28 13:26:08 GMT 43.619633 24.329878 31,000 135 453 -64
2021-11-28 13:26:05 GMT 43.624649 24.322964 31,000 135 452 -256
2021-11-28 13:26:02 GMT 43.627594 24.319021 31,000 135 452 -128
2021-11-28 13:25:58 GMT 43.639465 24.302870 31,000 135 452 128
2021-11-28 13:25:54 GMT 43.649139 24.289877 31,000 135 452 128
2021-11-28 13:25:47 GMT 43.649139 24.289877 31,000 135 451 -64
2021-11-28 13:25:44 GMT 43.654495 24.282722 31,000 136 451 64
2021-11-28 13:25:39 GMT 43.662323 24.272505 30,975 136 449 64
2021-11-28 13:25:36 GMT 43.668560 24.264482 31,000 137 448 -64
2021-11-28 13:25:33 GMT 43.671387 24.260942 31,000 137 447 -64
2021-11-28 13:25:27 GMT 43.680801 24.249311 30,975 138 446 64
2021-11-28 13:25:24 GMT 43.686951 24.241844 30,975 138 446 64
2021-11-28 13:25:16 GMT 43.697571 24.228941 31,000 138 446 64
2021-11-28 13:25:13 GMT 43.701599 24.224087 30,975 138 446 64
2021-11-28 13:25:08 GMT 43.709839 24.214123 30,975 138 446 64
2021-11-28 13:25:05 GMT 43.714275 24.208700 30,975 138 446 64
2021-11-28 13:25:01 GMT 43.722141 24.199219 30,975 138 447 64
2021-11-28 13:24:56 GMT 43.734467 24.184166 30,975 138 447 -64
2021-11-28 13:24:50 GMT 43.736938 24.181164 31,000 138 446 -64
2021-11-28 13:24:46 GMT 43.744034 24.172541 31,000 138 447 -64
2021-11-28 13:24:43 GMT 43.750027 24.165344 31,000 138 445 0
2021-11-28 13:24:36 GMT 43.760502 24.152592 31,000 138 445 -64
2021-11-28 13:24:32 GMT 43.765366 24.146736 30,975 138 445 -64
2021-11-28 13:24:25 GMT 43.778412 24.130768 31,000 138 444 -64
2021-11-28 13:24:21 GMT 43.781590 24.126892 31,000 138 444 64
2021-11-28 13:24:17 GMT 43.790108 24.116560 30,975 138 444 -64
2021-11-28 13:24:14 GMT 43.793060 24.113010 31,000 138 444 -64
2021-11-28 13:24:11 GMT 43.809311 24.093273 30,975 138 445 0
2021-11-28 13:24:04 GMT 43.809311 24.093273 30,975 138 446 0
2021-11-28 13:24:00 GMT 43.816132 24.085039 30,975 138 446 -64
2021-11-28 13:23:54 GMT 43.825024 24.074184 31,000 138 446 0
2021-11-28 13:23:50 GMT 43.829681 24.068554 31,000 138 445 0
2021-11-28 13:23:46 GMT 43.835953 24.060953 31,000 138 444 0
2021-11-28 13:23:43 GMT 43.840393 24.055525 31,000 138 444 0
2021-11-28 13:23:40 GMT 43.847351 24.047092 31,000 138 444 0
2021-11-28 13:23:34 GMT 43.856049 24.036489 31,000 138 444 -64
2021-11-28 13:23:29 GMT 43.862457 24.028633 31,000 138 444 -64
2021-11-28 13:23:25 GMT 43.869106 24.020559 31,000 138 444 64
2021-11-28 13:23:22 GMT 43.872971 24.015785 31,000 138 444 0
2021-11-28 13:23:19 GMT 43.877579 24.010162 31,000 138 444 0
2021-11-28 13:23:13 GMT 43.888428 23.996887 31,000 138 444 0
2021-11-28 13:23:07 GMT 43.896015 23.987535 31,000 138 444 -64
2021-11-28 13:23:03 GMT 43.903793 23.978045 31,000 138 444 0
2021-11-28 13:23:00 GMT 43.909424 23.971146 31,000 138 444 0
2021-11-28 13:22:53 GMT 43.919617 23.958632 31,000 138 444 128
2021-11-28 13:22:49 GMT 43.924412 23.952745 30,975 138 444 -64
2021-11-28 13:22:42 GMT 43.936607 23.937965 31,000 138 444 0
2021-11-28 13:22:37 GMT 43.942154 23.931097 30,975 138 444 128
2021-11-28 13:22:34 GMT 43.948105 23.923906 30,975 138 443 64
2021-11-28 13:22:31 GMT 43.951859 23.919344 30,975 138 443 -64
2021-11-28 13:22:28 GMT 43.955692 23.914621 31,000 138 443 -64
2021-11-28 13:22:21 GMT 43.967937 23.899580 31,000 138 442 -64
2021-11-28 13:22:18 GMT 43.973103 23.893236 31,000 138 442 0
2021-11-28 13:22:14 GMT 43.980103 23.884598 31,000 138 442 64
2021-11-28 13:22:10 GMT 43.983902 23.879997 31,000 138 442 128
2021-11-28 13:22:07 GMT 43.989212 23.873487 31,000 138 442 0
2021-11-28 13:22:01 GMT 43.999008 23.861410 31,000 138 442 -128
2021-11-28 13:21:58 GMT 44.002991 23.856556 31,000 138 442 -64
2021-11-28 13:21:52 GMT 44.010811 23.846937 31,000 138 442 64
2021-11-28 13:21:48 GMT 44.019379 23.836473 31,000 138 441 0
2021-11-28 13:21:42 GMT 44.026245 23.827940 31,000 138 441 -64
2021-11-28 13:21:37 GMT 44.034531 23.817720 31,000 138 442 -64
2021-11-28 13:21:30 GMT 44.046890 23.802582 30,975 138 442 64
2021-11-28 13:21:26 GMT 44.051697 23.796705 30,975 138 443 0
2021-11-28 13:21:21 GMT 44.059505 23.787102 31,000 138 444 -64
2021-11-28 13:21:18 GMT 44.064148 23.781376 31,000 138 444 0
2021-11-28 13:21:14 GMT 44.069321 23.775053 31,000 138 444 128
2021-11-28 13:21:11 GMT 44.073898 23.769367 31,000 138 445 128
2021-11-28 13:21:07 GMT 44.082546 23.758718 30,975 138 445 64
2021-11-28 13:20:59 GMT 44.093067 23.745707 31,000 138 446 -128
2021-11-28 13:20:56 GMT 44.097794 23.739922 30,975 138 445 64
2021-11-28 13:20:51 GMT 44.105267 23.730797 31,000 138 444 -64
2021-11-28 13:20:48 GMT 44.110428 23.724401 31,000 138 445 -64
2021-11-28 13:20:45 GMT 44.115051 23.718716 31,000 138 444 0
2021-11-28 13:20:40 GMT 44.121460 23.710732 30,975 138 444 -64
2021-11-28 13:20:35 GMT 44.129612 23.700649 31,000 138 444 -64
2021-11-28 13:20:30 GMT 44.136612 23.692017 31,000 138 444 0
2021-11-28 13:20:26 GMT 44.145035 23.681604 31,000 138 445 0
2021-11-28 13:20:18 GMT 44.157776 23.665792 31,000 138 445 -128
2021-11-28 13:20:15 GMT 44.161102 23.661676 31,000 138 445 -128
2021-11-28 13:20:10 GMT 44.172485 23.647614 31,000 138 445 -128
2021-11-28 13:20:07 GMT 44.172485 23.647614 31,000 138 445 -128
2021-11-28 13:20:04 GMT 44.177902 23.640854 31,000 138 445 -64
2021-11-28 13:19:59 GMT 44.184872 23.632246 31,000 138 444 64
2021-11-28 13:19:56 GMT 44.190830 23.624857 31,000 138 445 64
2021-11-28 13:19:53 GMT 44.195206 23.619467 31,000 138 446 128
2021-11-28 13:19:49 GMT 44.200092 23.613371 30,975 138 446 -64
2021-11-28 13:19:45 GMT 44.207977 23.603668 30,975 138 446 0
2021-11-28 13:19:41 GMT 44.214756 23.595217 30,975 138 446 64
2021-11-28 13:19:38 GMT 44.216583 23.593010 30,975 138 446 128
2021-11-28 13:19:34 GMT 44.223557 23.584431 30,975 138 446 64
2021-11-28 13:19:31 GMT 44.227467 23.579540 30,975 138 444 0
2021-11-28 13:19:27 GMT 44.233562 23.572105 30,975 138 444 0
2021-11-28 13:19:24 GMT 44.239609 23.564629 31,000 138 444 0
2021-11-28 13:19:20 GMT 44.247299 23.555080 31,000 138 443 128
2021-11-28 13:19:14 GMT 44.253628 23.547253 31,000 138 443 192
2021-11-28 13:19:11 GMT 44.258377 23.541348 30,975 138 443 128
2021-11-28 13:19:08 GMT 44.262817 23.535854 30,975 138 443 -128
2021-11-28 13:19:04 GMT 44.269550 23.527424 30,975 138 442 -128
2021-11-28 13:19:00 GMT 44.275177 23.520487 31,000 138 442 0
2021-11-28 13:18:57 GMT 44.279755 23.514797 31,000 138 441 64
2021-11-28 13:18:54 GMT 44.284882 23.508389 31,000 138 441 -192
2021-11-28 13:18:50 GMT 44.290146 23.501848 31,000 138 440 -64
2021-11-28 13:18:47 GMT 44.294781 23.496071 31,000 138 439 -64
2021-11-28 13:18:44 GMT 44.300552 23.488836 31,000 138 440 0
2021-11-28 13:18:40 GMT 44.306465 23.481468 31,000 138 439 0
2021-11-28 13:18:37 GMT 44.310287 23.476671 31,000 138 439 0
2021-11-28 13:18:33 GMT 44.318104 23.466930 31,000 138 440 -64
2021-11-28 13:18:30 GMT 44.322006 23.462088 31,000 138 440 -128
2021-11-28 13:18:27 GMT 44.333931 23.447235 31,000 138 441 -64
2021-11-28 13:18:22 GMT 44.333931 23.447235 30,975 138 443 64
2021-11-28 13:18:16 GMT 44.342148 23.436911 31,000 138 443 64
2021-11-28 13:18:12 GMT 44.349014 23.428345 31,000 138 443 64
2021-11-28 13:18:06 GMT 44.358089 23.416889 30,975 138 445 64
2021-11-28 13:18:03 GMT 44.363956 23.409521 30,975 138 445 64
2021-11-28 13:17:59 GMT 44.368011 23.404476 30,975 138 445 0
2021-11-28 13:17:56 GMT 44.372707 23.398535 30,975 138 446 0
2021-11-28 13:17:52 GMT 44.380417 23.388912 31,000 138 446 64
2021-11-28 13:17:43 GMT 44.393051 23.373087 31,000 138 444 0
2021-11-28 13:17:40 GMT 44.399506 23.365044 31,000 138 444 -64
2021-11-28 13:17:34 GMT 44.406876 23.355757 31,000 138 444 0
2021-11-28 13:17:29 GMT 44.414108 23.346731 30,975 138 445 0
2021-11-28 13:17:25 GMT 44.420284 23.339046 31,000 138 445 0
2021-11-28 13:17:21 GMT 44.427246 23.330254 31,000 138 446 0
2021-11-28 13:17:15 GMT 44.435555 23.319820 31,000 138 446 0
2021-11-28 13:17:11 GMT 44.444164 23.309103 31,000 138 446 0
2021-11-28 13:17:08 GMT 44.447098 23.305418 31,000 138 446 0
2021-11-28 13:17:05 GMT 44.451241 23.300261 31,000 138 446 0
2021-11-28 13:17:00 GMT 44.459473 23.289904 30,975 138 446 -64
2021-11-28 13:16:54 GMT 44.467941 23.279245 31,000 137 446 0
2021-11-28 13:16:51 GMT 44.472889 23.272995 31,000 137 446 0
2021-11-28 13:16:48 GMT 44.477875 23.266754 31,000 138 444 64
2021-11-28 13:16:44 GMT 44.483185 23.260084 31,000 138 444 64
2021-11-28 13:16:39 GMT 44.490967 23.250340 31,000 138 444 0
2021-11-28 13:16:34 GMT 44.499004 23.240305 31,000 138 444 0
2021-11-28 13:16:28 GMT 44.507538 23.229610 31,000 138 443 -64
2021-11-28 13:16:23 GMT 44.515411 23.219801 31,000 138 443 -64
2021-11-28 13:16:19 GMT 44.522701 23.210695 31,000 138 443 -64
2021-11-28 13:16:13 GMT 44.530426 23.200968 31,000 138 443 0
2021-11-28 13:16:08 GMT 44.545532 23.181936 31,000 138 443 0
2021-11-28 13:16:03 GMT 44.545532 23.181936 31,000 138 443 0
2021-11-28 13:15:57 GMT 44.554596 23.170492 31,000 138 443 64
2021-11-28 13:15:52 GMT 44.562149 23.161011 30,975 138 443 64
2021-11-28 13:15:48 GMT 44.569839 23.151266 30,975 138 444 -64
2021-11-28 13:15:42 GMT 44.577576 23.141588 31,000 138 443 64
2021-11-28 13:15:37 GMT 44.585770 23.131256 30,975 138 443 0
2021-11-28 13:15:32 GMT 44.592682 23.122623 31,000 138 441 -64
2021-11-28 13:15:26 GMT 44.601746 23.111179 30,975 138 441 0
2021-11-28 13:15:22 GMT 44.608913 23.102171 31,000 138 441 -64
2021-11-28 13:15:19 GMT 44.615112 23.094374 31,000 138 441 -64
2021-11-28 13:15:16 GMT 44.618866 23.089664 31,000 138 441 -64
2021-11-28 13:15:11 GMT 44.625626 23.081137 31,000 138 441 0
2021-11-28 13:15:06 GMT 44.633011 23.071812 31,000 137 441 64
2021-11-28 13:15:01 GMT 44.640060 23.062853 30,975 137 441 0
2021-11-28 13:14:56 GMT 44.648666 23.051998 31,000 137 441 64
2021-11-28 13:14:50 GMT 44.656769 23.041731 30,975 137 441 64
2021-11-28 13:14:46 GMT 44.664406 23.032101 31,000 137 441 0
2021-11-28 13:14:40 GMT 44.671371 23.023289 31,000 137 441 -64
2021-11-28 13:14:35 GMT 44.680046 23.012203 31,025 137 441 -128
2021-11-28 13:14:27 GMT 44.692104 22.996929 31,000 137 442 64
2021-11-28 13:14:24 GMT 44.695736 22.992241 31,000 137 442 0
2021-11-28 13:14:19 GMT 44.703278 22.982595 31,000 137 444 -128
2021-11-28 13:14:15 GMT 44.711235 22.972412 31,000 137 445 -64
2021-11-28 13:14:07 GMT 44.723282 22.956980 31,000 137 445 -64
2021-11-28 13:14:04 GMT 44.727127 22.952009 31,000 137 445 0
2021-11-28 13:13:56 GMT 44.740562 22.934898 31,000 137 447 0
2021-11-28 13:13:53 GMT 44.742752 22.932083 31,000 137 447 64
2021-11-28 13:13:47 GMT 44.752808 22.919222 30,975 137 448 64
2021-11-28 13:13:44 GMT 44.758720 22.911718 31,000 137 448 64
2021-11-28 13:13:36 GMT 44.774780 22.891220 31,000 137 448 -64
2021-11-28 13:13:33 GMT 44.774780 22.891220 31,000 137 447 0
2021-11-28 13:13:28 GMT 44.782333 22.881643 31,000 137 447 64
2021-11-28 13:13:25 GMT 44.786270 22.876610 30,975 137 446 192
2021-11-28 13:13:22 GMT 44.790283 22.871525 30,975 137 446 128
2021-11-28 13:13:17 GMT 44.798447 22.861176 30,975 137 445 0
2021-11-28 13:13:13 GMT 44.806480 22.850960 30,975 137 446 -64
2021-11-28 13:13:05 GMT 44.818119 22.836222 31,000 137 446 -64
2021-11-28 13:13:02 GMT 44.821796 22.831533 31,000 137 445 0
2021-11-28 13:12:56 GMT 44.830215 22.820827 31,000 138 444 -128
2021-11-28 13:12:51 GMT 44.837997 22.811033 31,000 137 444 0
2021-11-28 13:12:47 GMT 44.844330 22.802929 31,000 137 443 64
2021-11-28 13:12:42 GMT 44.853268 22.791473 31,000 137 444 0
2021-11-28 13:12:37 GMT 44.860107 22.782701 31,000 137 444 -64
2021-11-28 13:12:31 GMT 44.869080 22.771193 31,000 137 445 0
2021-11-28 13:12:26 GMT 44.875763 22.762560 31,000 137 445 64
2021-11-28 13:12:23 GMT 44.881386 22.755365 31,000 137 445 0
2021-11-28 13:12:20 GMT 44.885101 22.750593 31,000 137 445 -64
2021-11-28 13:12:15 GMT 44.893024 22.740494 31,000 137 445 0
2021-11-28 13:12:11 GMT 44.900757 22.730581 31,000 137 445 64
2021-11-28 13:12:04 GMT 44.909409 22.719393 31,000 137 446 0
2021-11-28 13:12:00 GMT 44.916065 22.710884 30,975 137 445 -64
2021-11-28 13:11:50 GMT 44.931892 22.690519 31,000 137 445 0
2021-11-28 13:11:45 GMT 44.938614 22.681864 31,000 137 445 -64
2021-11-28 13:11:41 GMT 44.943996 22.674976 31,000 137 445 -64
2021-11-28 13:11:38 GMT 44.951294 22.665581 30,975 137 445 0
2021-11-28 13:11:32 GMT 44.959991 22.654396 31,000 137 445 0
2021-11-28 13:11:29 GMT 44.963699 22.649624 31,000 137 445 64
2021-11-28 13:11:25 GMT 44.969696 22.641907 31,000 137 445 64
2021-11-28 13:11:22 GMT 44.974960 22.635172 31,000 137 445 -64
2021-11-28 13:11:18 GMT 44.980122 22.628487 31,000 137 445 0
2021-11-28 13:11:14 GMT 44.985809 22.621243 31,000 137 446 -64
2021-11-28 13:11:10 GMT 44.991165 22.614309 31,000 137 446 0
2021-11-28 13:11:07 GMT 44.997162 22.606581 30,975 137 448 0
2021-11-28 13:11:04 GMT 45.001072 22.601490 30,975 137 446 0
2021-11-28 13:11:01 GMT 45.005913 22.595325 31,000 137 445 128
2021-11-28 13:10:58 GMT 45.012085 22.587366 30,975 137 448 0
2021-11-28 13:10:54 GMT 45.016479 22.581728 30,975 137 448 64
2021-11-28 13:10:51 GMT 45.022476 22.573961 30,975 137 448 0
2021-11-28 13:10:47 GMT 45.027142 22.567995 30,975 137 447 128
2021-11-28 13:10:44 GMT 45.038086 22.553951 31,000 137 446 64
2021-11-28 13:10:40 GMT 45.038086 22.553951 31,000 137 445 64
2021-11-28 13:10:37 GMT 45.048706 22.540348 31,000 137 445 -64
2021-11-28 13:10:33 GMT 45.048706 22.540348 31,000 137 445 0
2021-11-28 13:10:29 GMT 45.054001 22.533562 30,975 137 445 0
2021-11-28 13:10:26 GMT 45.058796 22.527466 30,975 137 444 -64
2021-11-28 13:10:22 GMT 45.065453 22.518957 30,975 137 444 -64
2021-11-28 13:10:19 GMT 45.069874 22.513330 31,000 137 444 0
2021-11-28 13:10:14 GMT 45.078442 22.502344 31,000 137 444 0
2021-11-28 13:10:10 GMT 45.085007 22.493917 31,000 137 445 64
2021-11-28 13:10:06 GMT 45.090126 22.487339 31,000 137 445 64
2021-11-28 13:10:02 GMT 45.095444 22.480448 31,000 137 447 64
2021-11-28 13:09:58 GMT 45.101902 22.472065 31,000 137 447 0
2021-11-28 13:09:55 GMT 45.106750 22.465799 31,000 137 448 -64
2021-11-28 13:09:49 GMT 45.116100 22.453508 31,000 137 450 64
2021-11-28 13:09:45 GMT 45.120987 22.447096 31,000 137 451 -64
2021-11-28 13:09:39 GMT 45.132065 22.432577 31,000 136 455 -192
2021-11-28 13:09:35 GMT 45.137283 22.425711 31,025 137 457 -192
2021-11-28 13:09:25 GMT 45.152939 22.405111 30,975 137 464 192
2021-11-28 13:09:18 GMT 45.164062 22.390465 30,975 137 469 192
2021-11-28 13:09:15 GMT 45.169327 22.383532 30,975 137 472 128
2021-11-28 13:09:08 GMT 45.180725 22.368687 30,950 137 477 -64
2021-11-28 13:09:03 GMT 45.187683 22.359663 30,975 137 477 128
2021-11-28 13:09:00 GMT 45.191940 22.354103 31,000 137 476 0
2021-11-28 13:08:57 GMT 45.198128 22.346125 30,975 137 476 128
2021-11-28 13:08:54 GMT 45.202969 22.339827 31,000 137 475 64
2021-11-28 13:08:50 GMT 45.207855 22.333464 31,000 137 474 64
2021-11-28 13:08:44 GMT 45.219585 22.318256 30,975 137 474 -64
2021-11-28 13:08:38 GMT 45.227188 22.308329 30,975 137 474 -128
2021-11-28 13:08:35 GMT 45.232910 22.300873 31,000 137 473 0
2021-11-28 13:08:32 GMT 45.237926 22.294409 31,000 137 471 0
2021-11-28 13:08:25 GMT 45.250671 22.277658 30,975 137 472 0
2021-11-28 13:08:20 GMT 45.257126 22.269222 31,000 137 472 0
2021-11-28 13:08:16 GMT 45.263718 22.260654 30,975 137 472 0
2021-11-28 13:08:13 GMT 45.269897 22.252546 30,975 137 472 0
2021-11-28 13:08:09 GMT 45.273727 22.247581 30,975 137 471 0
2021-11-28 13:08:05 GMT 45.280338 22.238874 31,000 137 471 -64
2021-11-28 13:08:02 GMT 45.285736 22.231815 30,975 137 471 -64
2021-11-28 13:07:59 GMT 45.290344 22.225811 31,000 137 470 0
2021-11-28 13:07:56 GMT 45.296768 22.217428 31,000 137 470 0
2021-11-28 13:07:51 GMT 45.303429 22.208660 31,000 137 468 -64
2021-11-28 13:07:45 GMT 45.313477 22.195522 31,000 137 469 -64
2021-11-28 13:07:42 GMT 45.319290 22.187937 31,025 137 469 64
2021-11-28 13:07:34 GMT 45.330185 22.173744 31,000 137 469 0
2021-11-28 13:07:31 GMT 45.335735 22.166458 31,000 137 469 64
2021-11-28 13:07:28 GMT 45.340298 22.160496 30,975 137 468 0
2021-11-28 13:07:23 GMT 45.350143 22.147654 31,000 137 467 -64
2021-11-28 13:07:18 GMT 45.355453 22.140656 31,000 137 467 0
2021-11-28 13:07:14 GMT 45.362045 22.132023 31,000 137 467 0
2021-11-28 13:07:11 GMT 45.372894 22.117832 31,000 137 467 0
2021-11-28 13:07:07 GMT 45.372894 22.117832 31,000 137 467 0
2021-11-28 13:07:03 GMT 45.379959 22.108513 31,000 137 466 0
2021-11-28 13:06:58 GMT 45.388046 22.097887 30,975 137 466 0
2021-11-28 13:06:53 GMT 45.395187 22.088535 31,000 137 466 -64
2021-11-28 13:06:50 GMT 45.405624 22.074802 31,000 137 465 -64
2021-11-28 13:06:47 GMT 45.405624 22.074802 31,000 137 464 0
2021-11-28 13:06:44 GMT 45.409798 22.069256 31,000 137 465 0
2021-11-28 13:06:40 GMT 45.417572 22.058977 31,000 137 464 0
2021-11-28 13:06:37 GMT 45.420692 22.054920 31,000 137 464 -64
2021-11-28 13:06:33 GMT 45.427723 22.045675 31,000 137 464 0
2021-11-28 13:06:29 GMT 45.434006 22.037462 31,000 137 464 0
2021-11-28 13:06:25 GMT 45.439545 22.030134 31,000 137 464 64
2021-11-28 13:06:22 GMT 45.443783 22.024639 31,000 137 464 0
2021-11-28 13:06:18 GMT 45.450119 22.016340 30,975 137 464 64
2021-11-28 13:06:15 GMT 45.455467 22.009300 30,975 137 464 0
2021-11-28 13:06:12 GMT 45.466782 21.994497 30,975 137 464 0
2021-11-28 13:06:09 GMT 45.466782 21.994497 30,975 137 464 0
2021-11-28 13:06:06 GMT 45.471294 21.988600 30,975 137 464 64
2021-11-28 13:06:02 GMT 45.475903 21.982571 30,975 137 464 64
2021-11-28 13:05:58 GMT 45.482422 21.974064 30,975 137 464 0
2021-11-28 13:05:55 GMT 45.487076 21.967966 30,975 137 463 0
2021-11-28 13:05:52 GMT 45.492188 21.961212 30,975 137 463 -64
2021-11-28 13:05:48 GMT 45.498482 21.952894 31,000 137 462 64
2021-11-28 13:05:45 GMT 45.503181 21.946665 31,000 137 462 64
2021-11-28 13:05:42 GMT 45.508957 21.939028 30,975 137 462 64
2021-11-28 13:05:38 GMT 45.515518 21.930386 31,000 137 462 64
2021-11-28 13:05:31 GMT 45.524364 21.918661 30,975 137 462 0
2021-11-28 13:05:25 GMT 45.535172 21.904320 31,000 137 460 -64
2021-11-28 13:05:21 GMT 45.540436 21.897322 31,000 137 460 0
2021-11-28 13:05:16 GMT 45.547531 21.887915 31,000 136 459 0
2021-11-28 13:05:13 GMT 45.553574 21.879875 31,000 136 459 -64
2021-11-28 13:05:10 GMT 45.556767 21.875702 31,000 137 459 0
2021-11-28 13:05:06 GMT 45.564606 21.865273 31,000 137 459 0
2021-11-28 13:05:01 GMT 45.572433 21.854889 31,000 136 459 -64
2021-11-28 13:04:55 GMT 45.579903 21.844940 31,000 137 460 -64
2021-11-28 13:04:52 GMT 45.584518 21.838812 31,000 136 459 0
2021-11-28 13:04:49 GMT 45.589443 21.832306 31,000 137 460 -64
2021-11-28 13:04:43 GMT 45.599873 21.818436 31,000 137 460 0
2021-11-28 13:04:40 GMT 45.604481 21.812256 31,000 136 461 0
2021-11-28 13:04:33 GMT 45.615509 21.797611 31,000 137 462 0
2021-11-28 13:04:29 GMT 45.622311 21.788498 31,000 137 462 0
2021-11-28 13:04:25 GMT 45.627804 21.781219 31,000 136 462 0
2021-11-28 13:04:22 GMT 45.631805 21.775908 31,000 136 462 0
2021-11-28 13:04:18 GMT 45.637482 21.768337 31,000 136 462 0
2021-11-28 13:04:12 GMT 45.647774 21.754646 31,000 136 464 64
2021-11-28 13:04:09 GMT 45.653034 21.747574 31,000 136 464 128
2021-11-28 13:04:02 GMT 45.662659 21.734776 30,975 136 465 64
2021-11-28 13:03:59 GMT 45.668907 21.726425 30,975 136 465 0
2021-11-28 13:03:52 GMT 45.679665 21.712143 31,000 137 464 -64
2021-11-28 13:03:49 GMT 45.682938 21.707712 31,000 136 464 -64
2021-11-28 13:03:45 GMT 45.689716 21.698685 31,000 136 464 64
2021-11-28 13:03:40 GMT 45.698959 21.686342 31,000 136 464 0
2021-11-28 13:03:36 GMT 45.707081 21.675545 31,000 136 464 0
2021-11-28 13:03:32 GMT 45.711040 21.670258 31,000 136 465 0
2021-11-28 13:03:28 GMT 45.716034 21.663565 30,975 136 465 0
2021-11-28 13:03:25 GMT 45.721893 21.655727 31,000 136 465 0
2021-11-28 13:03:22 GMT 45.727524 21.648226 31,000 136 466 -64
2021-11-28 13:03:19 GMT 45.730865 21.643736 31,000 136 466 -64
2021-11-28 13:03:14 GMT 45.738922 21.633041 31,000 136 466 -64
2021-11-28 13:03:09 GMT 45.746696 21.622536 31,000 136 466 0
2021-11-28 13:03:03 GMT 45.756802 21.609009 31,000 136 466 0
2021-11-28 13:02:58 GMT 45.764061 21.599327 31,000 136 466 64
2021-11-28 13:02:53 GMT 45.772766 21.587654 31,000 136 466 64
2021-11-28 13:02:50 GMT 45.775635 21.583780 30,975 136 466 64
2021-11-28 13:02:47 GMT 45.780396 21.577415 30,975 136 466 0
2021-11-28 13:02:44 GMT 45.786640 21.568977 31,000 136 466 64
2021-11-28 13:02:38 GMT 45.794907 21.557922 31,000 136 466 0
2021-11-28 13:02:32 GMT 45.804096 21.545631 30,975 136 466 0
2021-11-28 13:02:29 GMT 45.810654 21.536821 31,000 136 465 0
2021-11-28 13:02:21 GMT 45.822346 21.521118 31,000 136 464 -64
2021-11-28 13:02:18 GMT 45.826721 21.515249 31,000 136 464 -64
2021-11-28 13:02:10 GMT 45.839664 21.497910 31,000 136 463 64
2021-11-28 13:02:07 GMT 45.843666 21.492485 31,000 136 462 64
2021-11-28 13:02:00 GMT 45.855331 21.476866 30,975 136 462 64
2021-11-28 13:01:57 GMT 45.859123 21.471748 30,975 136 462 0
2021-11-28 13:01:53 GMT 45.866478 21.461929 31,000 136 461 0
2021-11-28 13:01:49 GMT 45.872437 21.453896 30,975 136 462 -64
2021-11-28 13:01:46 GMT 45.876251 21.448814 30,975 136 461 -128
2021-11-28 13:01:42 GMT 45.882771 21.440025 31,000 136 461 -128
2021-11-28 13:01:36 GMT 45.892548 21.426889 31,025 136 461 -128
2021-11-28 13:01:32 GMT 45.898552 21.418808 31,000 136 461 -64
2021-11-28 13:01:29 GMT 45.902573 21.413359 31,000 136 462 -64
2021-11-28 13:01:26 GMT 45.908203 21.405788 31,000 136 464 -64
2021-11-28 13:01:23 GMT 45.913773 21.398277 31,000 136 464 0
2021-11-28 13:01:17 GMT 45.922943 21.385826 31,000 136 466 64
2021-11-28 13:01:12 GMT 45.929417 21.377060 31,000 136 466 0
2021-11-28 13:01:06 GMT 45.939190 21.363876 31,000 136 468 64
2021-11-28 13:01:02 GMT 45.945988 21.354675 31,000 136 469 64
2021-11-28 13:00:56 GMT 45.955486 21.341698 31,000 136 469 0
2021-11-28 13:00:52 GMT 45.961910 21.332977 31,000 136 469 0
2021-11-28 13:00:46 GMT 45.978436 21.310593 31,000 136 470 0
2021-11-28 13:00:41 GMT 45.978436 21.310593 31,000 136 469 0
2021-11-28 13:00:37 GMT 45.984627 21.302284 31,000 136 471 0
2021-11-28 13:00:34 GMT 45.991196 21.293381 31,000 136 471 64
2021-11-28 13:00:30 GMT 45.996170 21.286629 30,975 136 471 64
2021-11-28 13:00:27 GMT 46.001896 21.278870 30,975 136 471 64
2021-11-28 13:00:21 GMT 46.010414 21.267403 30,975 136 470 64
2021-11-28 13:00:17 GMT 46.016048 21.259781 30,975 136 470 64
2021-11-28 13:00:14 GMT 46.020844 21.253258 30,975 136 469 0
2021-11-28 13:00:11 GMT 46.026764 21.245214 30,975 136 469 0
2021-11-28 13:00:05 GMT 46.036533 21.231972 31,000 136 469 0
2021-11-28 13:00:00 GMT 46.042725 21.223663 31,000 136 467 64
2021-11-28 12:59:57 GMT 46.047752 21.216797 31,000 136 467 64
2021-11-28 12:59:54 GMT 46.052639 21.210136 31,000 136 467 64
2021-11-28 12:59:48 GMT 46.063347 21.195648 30,975 136 467 0
2021-11-28 12:59:43 GMT 46.069199 21.187737 30,975 136 467 0
2021-11-28 12:59:40 GMT 46.075775 21.178757 31,000 136 466 0
2021-11-28 12:59:37 GMT 46.079735 21.173401 31,000 136 467 0
2021-11-28 12:59:33 GMT 46.085495 21.165497 31,000 136 467 -64
2021-11-28 12:59:30 GMT 46.090813 21.158226 31,000 136 466 -64
2021-11-28 12:59:25 GMT 46.097469 21.149162 31,000 136 467 0
2021-11-28 12:59:20 GMT 46.106873 21.136322 31,000 136 468 0
2021-11-28 12:59:16 GMT 46.113483 21.127258 30,975 136 468 0
2021-11-28 12:59:13 GMT 46.117676 21.121552 31,000 136 468 -64
2021-11-28 12:59:09 GMT 46.123444 21.113663 31,000 136 468 -64
2021-11-28 12:59:03 GMT 46.133221 21.100273 31,000 136 468 0
2021-11-28 12:59:00 GMT 46.138107 21.093544 31,000 136 468 0
2021-11-28 12:58:57 GMT 46.143650 21.085991 31,000 136 468 0
2021-11-28 12:58:53 GMT 46.149857 21.077538 31,000 136 468 0
2021-11-28 12:58:48 GMT 46.156906 21.067892 31,000 136 468 64
2021-11-28 12:58:45 GMT 46.161476 21.061615 31,000 136 468 64
2021-11-28 12:58:42 GMT 46.165527 21.056053 30,975 136 469 64
2021-11-28 12:58:39 GMT 46.170277 21.049530 30,975 136 469 64
2021-11-28 12:58:36 GMT 46.181992 21.033525 30,975 136 470 0
2021-11-28 12:58:32 GMT 46.181992 21.033525 31,000 136 470 0
2021-11-28 12:58:29 GMT 46.186523 21.027283 30,975 136 469 0
2021-11-28 12:58:25 GMT 46.193043 21.018356 31,000 136 469 -64
2021-11-28 12:58:21 GMT 46.198929 21.010281 31,000 136 469 -64
2021-11-28 12:58:18 GMT 46.203049 21.004623 31,000 136 468 0
2021-11-28 12:58:15 GMT 46.209007 20.996521 31,000 136 468 0
2021-11-28 12:58:12 GMT 46.214584 20.988911 31,000 136 468 64
2021-11-28 12:58:07 GMT 46.220993 20.980068 31,000 136 468 64
2021-11-28 12:58:04 GMT 46.225441 20.973930 31,000 136 468 64
2021-11-28 12:57:58 GMT 46.237267 20.957794 31,000 136 468 0
2021-11-28 12:57:54 GMT 46.241222 20.952232 31,000 136 468 0
2021-11-28 12:57:48 GMT 46.250904 20.938980 31,000 136 468 0
2021-11-28 12:57:44 GMT 46.256882 20.930763 31,000 136 468 0
2021-11-28 12:57:40 GMT 46.263931 20.921118 31,000 136 468 0
2021-11-28 12:57:37 GMT 46.267384 20.916458 31,000 136 468 0
2021-11-28 12:57:33 GMT 46.273624 20.907875 31,000 136 468 -64
2021-11-28 12:57:30 GMT 46.278931 20.900597 31,000 136 468 0
2021-11-28 12:57:27 GMT 46.284374 20.893112 31,000 136 468 0
2021-11-28 12:57:23 GMT 46.289154 20.886551 31,000 136 468 -64
2021-11-28 12:57:18 GMT 46.305183 20.864479 31,000 136 468 0
2021-11-28 12:57:14 GMT 46.305183 20.864479 31,000 136 468 0
2021-11-28 12:57:08 GMT 46.314148 20.852184 31,000 136 468 0
2021-11-28 12:57:06 GMT 46.315704 20.850060 31,000 136 468 0
2021-11-28 12:57:03 GMT 46.320694 20.843208 31,000 136 468 0
2021-11-28 12:57:00 GMT 46.327343 20.834061 31,000 136 468 0
2021-11-28 12:56:57 GMT 46.330372 20.829872 31,000 136 467 0
2021-11-28 12:56:53 GMT 46.337311 20.820297 31,000 136 468 0
2021-11-28 12:56:49 GMT 46.342705 20.812843 31,000 136 468 0
2021-11-28 12:56:46 GMT 46.348709 20.804487 31,000 136 468 64
2021-11-28 12:56:43 GMT 46.352810 20.798836 30,975 136 468 0
2021-11-28 12:56:39 GMT 46.358906 20.790390 31,000 136 468 64
2021-11-28 12:56:36 GMT 46.364494 20.782631 30,975 136 468 64
2021-11-28 12:56:33 GMT 46.368450 20.777138 30,975 136 468 0
2021-11-28 12:56:29 GMT 46.375443 20.767443 30,975 136 468 0
2021-11-28 12:56:26 GMT 46.378551 20.763130 30,975 136 468 0
2021-11-28 12:56:22 GMT 46.384689 20.754648 30,975 136 468 0
2021-11-28 12:56:16 GMT 46.400059 20.733398 31,000 136 468 0
2021-11-28 12:56:13 GMT 46.400059 20.733398 31,000 136 468 0
2021-11-28 12:56:06 GMT 46.410782 20.718473 31,000 136 468 0
2021-11-28 12:56:00 GMT 46.418678 20.707512 31,000 136 468 0
2021-11-28 12:55:56 GMT 46.426407 20.696869 31,000 136 467 -64
2021-11-28 12:55:51 GMT 46.437393 20.681694 31,000 136 467 64
2021-11-28 12:55:47 GMT 46.444473 20.671915 31,000 136 467 64
2021-11-28 12:55:45 GMT 46.444473 20.671915 31,000 136 467 64
2021-11-28 12:55:42 GMT 46.447681 20.667480 31,000 136 466 64
2021-11-28 12:55:35 GMT 46.463928 20.644958 31,000 136 466 0
2021-11-28 12:55:31 GMT 46.463928 20.644958 31,000 136 466 0
2021-11-28 12:55:27 GMT 46.471344 20.634602 31,000 136 466 0
2021-11-28 12:55:24 GMT 46.475006 20.629509 31,000 136 466 64
2021-11-28 12:55:21 GMT 46.479538 20.623215 31,000 136 466 64
2021-11-28 12:55:17 GMT 46.490509 20.607948 30,975 136 466 0
2021-11-28 12:55:14 GMT 46.490509 20.607948 30,975 136 466 0
2021-11-28 12:55:11 GMT 46.497208 20.598627 30,975 136 466 0
2021-11-28 12:55:07 GMT 46.503265 20.590164 31,000 136 465 -64
2021-11-28 12:55:03 GMT 46.510342 20.580345 31,000 136 464 -64
2021-11-28 12:55:00 GMT 46.512726 20.576990 31,000 136 464 -64
2021-11-28 12:54:54 GMT 46.524261 20.560913 31,000 136 463 -64
2021-11-28 12:54:51 GMT 46.527420 20.556559 31,000 136 463 -64
2021-11-28 12:54:44 GMT 46.537296 20.542786 31,000 136 463 -64
2021-11-28 12:54:40 GMT 46.543999 20.533447 31,000 136 463 0
2021-11-28 12:54:35 GMT 46.551041 20.523733 31,000 136 464 0
2021-11-28 12:54:31 GMT 46.558594 20.513149 31,000 136 464 64
2021-11-28 12:54:25 GMT 46.567245 20.501024 31,000 136 465 64
2021-11-28 12:54:22 GMT 46.571136 20.495613 31,000 136 465 0
2021-11-28 12:54:19 GMT 46.576630 20.487894 31,000 136 465 0
2021-11-28 12:54:13 GMT 46.590317 20.468868 31,000 136 465 64
2021-11-28 12:54:10 GMT 46.590317 20.468868 30,975 136 465 64
2021-11-28 12:54:03 GMT 46.601990 20.452591 30,975 136 466 0
2021-11-28 12:53:59 GMT 46.606750 20.445892 31,000 136 464 0
2021-11-28 12:53:55 GMT 46.614807 20.434704 31,000 136 463 0
2021-11-28 12:53:52 GMT 46.618668 20.429352 31,000 136 464 64
2021-11-28 12:53:49 GMT 46.622589 20.423784 31,000 136 463 64
2021-11-28 12:53:45 GMT 46.629097 20.414726 31,000 136 463 -64
2021-11-28 12:53:42 GMT 46.633888 20.407997 31,000 136 463 0
2021-11-28 12:53:39 GMT 46.637970 20.402281 31,000 136 463 0
2021-11-28 12:53:33 GMT 46.648136 20.388016 31,000 135 463 0
2021-11-28 12:53:30 GMT 46.653717 20.380175 31,000 135 463 0
2021-11-28 12:53:22 GMT 46.664200 20.365370 31,000 135 463 0
2021-11-28 12:53:18 GMT 46.669922 20.357391 31,000 135 463 0
2021-11-28 12:53:13 GMT 46.678070 20.345924 31,000 135 464 -64
2021-11-28 12:53:10 GMT 46.683376 20.338371 31,000 135 464 -64
2021-11-28 12:53:07 GMT 46.687428 20.332741 31,000 135 464 -64
2021-11-28 12:53:02 GMT 46.695618 20.321205 31,000 135 465 0
2021-11-28 12:52:58 GMT 46.700821 20.313923 31,000 135 465 0
2021-11-28 12:52:52 GMT 46.711075 20.299438 31,000 135 467 0
2021-11-28 12:52:49 GMT 46.715870 20.292641 30,975 135 466 0
2021-11-28 12:52:42 GMT 46.728012 20.275537 31,000 135 467 -64
2021-11-28 12:52:38 GMT 46.731419 20.270805 31,000 135 467 -64
2021-11-28 12:52:32 GMT 46.741055 20.257210 31,000 135 467 0
2021-11-28 12:52:29 GMT 46.746231 20.249880 31,000 135 466 64
2021-11-28 12:52:26 GMT 46.750225 20.244301 31,000 135 466 64
2021-11-28 12:52:21 GMT 46.759396 20.231255 31,000 135 467 -64
2021-11-28 12:52:18 GMT 46.762608 20.226723 31,000 135 467 -64
2021-11-28 12:52:13 GMT 46.772617 20.212578 31,000 135 468 0
2021-11-28 12:52:08 GMT 46.778900 20.203720 31,000 135 468 0
2021-11-28 12:52:01 GMT 46.790493 20.187309 31,000 135 468 0
2021-11-28 12:51:58 GMT 46.794525 20.181618 31,000 135 468 0
2021-11-28 12:51:52 GMT 46.804596 20.167416 31,000 135 468 64
2021-11-28 12:51:50 GMT 46.806087 20.165268 30,975 135 468 64
2021-11-28 12:51:47 GMT 46.811005 20.158371 30,975 135 468 -128
2021-11-28 12:51:41 GMT 46.825687 20.137527 31,000 135 468 -128
2021-11-28 12:51:38 GMT 46.825687 20.137527 31,000 135 468 -128
2021-11-28 12:51:33 GMT 46.834305 20.125412 31,000 135 468 128
2021-11-28 12:51:30 GMT 46.838161 20.119949 31,000 135 468 128
2021-11-28 12:51:27 GMT 46.842167 20.114250 31,000 135 467 128
2021-11-28 12:51:22 GMT 46.850170 20.102921 31,000 135 468 0
2021-11-28 12:51:18 GMT 46.857761 20.092140 31,000 135 468 0
2021-11-28 12:51:10 GMT 46.870331 20.074274 30,975 135 468 64
2021-11-28 12:51:07 GMT 46.873215 20.070190 30,975 135 468 0
2021-11-28 12:51:01 GMT 46.883366 20.055824 31,000 135 468 -64
2021-11-28 12:50:57 GMT 46.888824 20.047989 31,000 135 468 0
2021-11-28 12:50:50 GMT 46.901520 20.029907 31,000 135 467 64
2021-11-28 12:50:47 GMT 46.904526 20.025673 30,975 135 466 64
2021-11-28 12:50:42 GMT 46.917625 20.007019 30,975 135 466 -64
2021-11-28 12:50:39 GMT 46.920933 20.002300 31,000 135 466 -64
2021-11-28 12:50:36 GMT 46.920933 20.002300 31,000 135 466 -64
2021-11-28 12:50:29 GMT 46.932850 19.985329 31,000 135 465 0
2021-11-28 12:50:26 GMT 46.936012 19.980749 31,000 135 465 0
2021-11-28 12:50:23 GMT 46.940689 19.974037 31,000 135 464 0
2021-11-28 12:50:20 GMT 46.945038 19.967789 31,000 135 464 64
2021-11-28 12:50:17 GMT 46.951355 19.958725 31,000 135 464 0
2021-11-28 12:50:14 GMT 46.954468 19.954193 31,000 135 464 0
2021-11-28 12:50:11 GMT 46.959595 19.946777 31,000 135 464 0
2021-11-28 12:50:08 GMT 46.968155 19.934486 30,975 135 464 -64
2021-11-28 12:50:02 GMT 46.973583 19.926664 31,000 135 463 64
2021-11-28 12:49:58 GMT 46.981705 19.915054 31,000 135 464 0
2021-11-28 12:49:55 GMT 46.985546 19.909552 31,000 135 463 64
2021-11-28 12:49:50 GMT 46.996674 19.893564 31,000 135 463 64
2021-11-28 12:49:47 GMT 46.996674 19.893564 31,000 135 463 0
2021-11-28 12:49:44 GMT 47.001343 19.886902 31,000 135 463 0
2021-11-28 12:49:40 GMT 47.007286 19.878424 31,000 135 463 0
2021-11-28 12:49:37 GMT 47.011288 19.872719 31,000 135 463 0
2021-11-28 12:49:34 GMT 47.016689 19.864971 31,000 135 463 -64
2021-11-28 12:49:29 GMT 47.024048 19.854355 31,000 135 461 -64
2021-11-28 12:49:26 GMT 47.030136 19.845703 31,000 135 461 -64
2021-11-28 12:49:23 GMT 47.032612 19.842154 31,000 135 461 0
2021-11-28 12:49:20 GMT 47.038151 19.834196 31,000 135 461 0
2021-11-28 12:49:17 GMT 47.044281 19.825516 31,000 135 461 0
2021-11-28 12:49:14 GMT 47.047394 19.820984 31,000 135 461 0
2021-11-28 12:49:11 GMT 47.052441 19.813772 31,000 135 461 0
2021-11-28 12:49:08 GMT 47.057796 19.806166 31,000 135 461 64
2021-11-28 12:49:05 GMT 47.060867 19.801729 30,975 135 460 128
2021-11-28 12:48:59 GMT 47.070099 19.788574 31,000 135 460 64
2021-11-28 12:48:56 GMT 47.073853 19.783150 31,000 135 460 64
2021-11-28 12:48:53 GMT 47.079117 19.775597 30,975 135 460 0
2021-11-28 12:48:50 GMT 47.083771 19.768982 31,000 135 460 0
2021-11-28 12:48:47 GMT 47.088844 19.761587 31,000 135 460 -64
2021-11-28 12:48:44 GMT 47.093922 19.754404 31,000 135 458 64
2021-11-28 12:48:38 GMT 47.101547 19.743393 31,000 135 458 64
2021-11-28 12:48:35 GMT 47.108002 19.734123 31,000 135 459 128
2021-11-28 12:48:32 GMT 47.110306 19.730810 30,975 135 459 -64
2021-11-28 12:48:28 GMT 47.117615 19.720177 31,000 135 459 -64
2021-11-28 12:48:24 GMT 47.122879 19.712631 31,000 135 458 0
2021-11-28 12:48:21 GMT 47.126926 19.706797 31,000 135 458 -64
2021-11-28 12:48:18 GMT 47.131676 19.699896 31,000 135 458 -64
2021-11-28 12:48:15 GMT 47.137848 19.691071 31,000 135 458 0
2021-11-28 12:48:12 GMT 47.142941 19.683697 31,000 135 458 0
2021-11-28 12:48:08 GMT 47.147598 19.676994 31,000 135 458 -64
2021-11-28 12:48:04 GMT 47.154327 19.667244 31,000 135 458 0
2021-11-28 12:48:01 GMT 47.157417 19.662851 31,000 135 459 64
2021-11-28 12:47:57 GMT 47.162750 19.655159 31,000 135 459 0
2021-11-28 12:47:54 GMT 47.168106 19.647400 31,000 135 459 0
2021-11-28 12:47:51 GMT 47.173233 19.639984 31,000 135 461 0
2021-11-28 12:47:48 GMT 47.177761 19.633413 31,000 135 461 0
2021-11-28 12:47:44 GMT 47.184605 19.623484 31,000 135 461 0
2021-11-28 12:47:41 GMT 47.188431 19.617943 31,000 135 461 0
2021-11-28 12:47:38 GMT 47.192963 19.611351 31,000 135 461 0
2021-11-28 12:47:34 GMT 47.199036 19.602568 31,000 135 461 -64
2021-11-28 12:47:31 GMT 47.205368 19.593361 31,000 135 461 -64
2021-11-28 12:47:28 GMT 47.209183 19.587778 31,000 135 461 -64
2021-11-28 12:47:23 GMT 47.215237 19.579044 31,000 135 462 -64
2021-11-28 12:47:20 GMT 47.220200 19.571869 31,000 135 462 -64
2021-11-28 12:47:17 GMT 47.223495 19.567062 31,000 135 461 0
2021-11-28 12:47:13 GMT 47.230316 19.557175 31,000 135 463 128
2021-11-28 12:47:10 GMT 47.234894 19.550583 31,000 135 463 192
2021-11-28 12:47:07 GMT 47.239815 19.543482 30,975 135 463 128
2021-11-28 12:47:03 GMT 47.245926 19.534653 30,975 135 463 64
2021-11-28 12:46:59 GMT 47.252571 19.525028 30,975 135 464 -64
2021-11-28 12:46:55 GMT 47.257412 19.517986 30,975 135 464 -64
2021-11-28 12:46:52 GMT 47.269283 19.500732 31,000 135 464 -64
2021-11-28 12:46:47 GMT 47.269283 19.500732 31,000 135 463 64
2021-11-28 12:46:43 GMT 47.281616 19.482843 31,000 135 463 0
2021-11-28 12:46:40 GMT 47.281616 19.482843 31,000 135 463 0
2021-11-28 12:46:36 GMT 47.292698 19.466717 31,000 135 463 -64
2021-11-28 12:46:33 GMT 47.292698 19.466717 31,000 135 463 -64
2021-11-28 12:46:30 GMT 47.296417 19.461319 31,000 135 463 64
2021-11-28 12:46:26 GMT 47.302895 19.451857 31,000 135 463 128
2021-11-28 12:46:23 GMT 47.305939 19.447449 31,000 135 463 64
2021-11-28 12:46:20 GMT 47.313309 19.436668 31,000 135 463 64
2021-11-28 12:46:17 GMT 47.317043 19.431223 30,975 135 463 64
2021-11-28 12:46:13 GMT 47.323608 19.421715 30,975 135 463 -64
2021-11-28 12:46:10 GMT 47.327518 19.415941 30,975 135 463 -64
2021-11-28 12:46:06 GMT 47.332035 19.409391 31,000 135 463 -128
2021-11-28 12:46:01 GMT 47.340454 19.397118 31,000 135 463 0
2021-11-28 12:45:58 GMT 47.351818 19.380587 31,000 135 463 64
2021-11-28 12:45:54 GMT 47.351818 19.380587 30,975 135 462 0
2021-11-28 12:45:51 GMT 47.355652 19.374939 31,000 135 462 -64
2021-11-28 12:45:48 GMT 47.360870 19.367317 31,000 135 463 -64
2021-11-28 12:45:45 GMT 47.363270 19.363827 31,000 135 463 -64
2021-11-28 12:45:42 GMT 47.373596 19.348778 31,000 135 462 64
2021-11-28 12:45:39 GMT 47.373596 19.348778 31,000 135 463 0
2021-11-28 12:45:36 GMT 47.378220 19.341980 31,000 135 463 0
2021-11-28 12:45:32 GMT 47.384499 19.332767 31,000 135 461 -64
2021-11-28 12:45:29 GMT 47.393509 19.319595 30,975 135 461 128
2021-11-28 12:45:26 GMT 47.393509 19.319595 31,000 135 461 64
2021-11-28 12:45:23 GMT 47.398186 19.312696 31,000 135 461 128
2021-11-28 12:45:20 GMT 47.402206 19.306892 31,000 135 461 128
2021-11-28 12:45:16 GMT 47.409683 19.295937 30,975 135 461 0
2021-11-28 12:45:11 GMT 47.416077 19.286568 31,000 135 461 -192
2021-11-28 12:45:08 GMT 47.420837 19.279633 31,000 135 461 -128
2021-11-28 12:45:05 GMT 47.429398 19.267136 31,000 135 461 320
2021-11-28 12:45:02 GMT 47.429398 19.267136 31,000 135 461 320
2021-11-28 12:44:58 GMT 47.436405 19.256849 30,975 135 461 0
2021-11-28 12:44:55 GMT 47.440269 19.251217 30,975 135 461 0
2021-11-28 12:44:51 GMT 47.450558 19.236145 30,975 135 461 -64
2021-11-28 12:44:48 GMT 47.450558 19.236145 31,000 135 461 -64
2021-11-28 12:44:42 GMT 47.460381 19.221779 31,000 135 460 -64
2021-11-28 12:44:39 GMT 47.465591 19.214172 31,000 135 459 -64
2021-11-28 12:44:36 GMT 47.468628 19.209663 31,000 135 459 0
2021-11-28 12:44:33 GMT 47.472565 19.203896 31,000 135 459 128
2021-11-28 12:44:30 GMT 47.477695 19.196424 31,000 135 459 128
2021-11-28 12:44:27 GMT 47.481747 19.190439 31,000 135 458 64
2021-11-28 12:44:24 GMT 47.492455 19.174734 30,975 135 458 -64
2021-11-28 12:44:20 GMT 47.492455 19.174734 30,975 135 458 -128
2021-11-28 12:44:17 GMT 47.497250 19.167692 30,975 135 459 -192
2021-11-28 12:44:14 GMT 47.504379 19.157135 31,000 135 459 -128
2021-11-28 12:44:11 GMT 47.506805 19.153564 31,000 135 459 -64
2021-11-28 12:44:08 GMT 47.512802 19.144707 31,000 135 459 0
2021-11-28 12:44:04 GMT 47.518570 19.136192 31,000 135 458 128
2021-11-28 12:44:01 GMT 47.520756 19.132973 31,000 134 458 64
2021-11-28 12:43:58 GMT 47.525368 19.126282 31,000 134 458 64
2021-11-28 12:43:55 GMT 47.530392 19.118816 31,000 134 458 0
2021-11-28 12:43:52 GMT 47.534317 19.112984 31,000 134 458 0
2021-11-28 12:43:48 GMT 47.541519 19.102337 31,000 134 458 -64
2021-11-28 12:43:45 GMT 47.545486 19.096436 31,000 134 458 -64
2021-11-28 12:43:42 GMT 47.550751 19.088676 30,975 134 457 64
2021-11-28 12:43:39 GMT 47.558258 19.077484 31,000 134 457 0
2021-11-28 12:43:36 GMT 47.558258 19.077484 31,000 134 457 0
2021-11-28 12:43:33 GMT 47.563339 19.069931 31,000 134 457 64
2021-11-28 12:43:30 GMT 47.567642 19.063614 31,000 135 456 64
2021-11-28 12:43:27 GMT 47.571487 19.057915 31,000 135 456 0
2021-11-28 12:43:24 GMT 47.576157 19.051048 31,000 135 456 0
2021-11-28 12:43:21 GMT 47.583324 19.040434 31,000 135 456 0
2021-11-28 12:43:18 GMT 47.585861 19.036766 30,975 135 456 0
2021-11-28 12:43:15 GMT 47.590393 19.030037 30,975 135 456 0
2021-11-28 12:43:11 GMT 47.596451 19.021208 31,000 135 456 64
2021-11-28 12:43:07 GMT 47.601154 19.014166 31,000 135 456 0
2021-11-28 12:43:04 GMT 47.606785 19.005924 30,975 135 455 0
2021-11-28 12:43:01 GMT 47.612743 18.997122 31,000 135 456 0
2021-11-28 12:42:58 GMT 47.615158 18.993576 31,000 135 455 64
2021-11-28 12:42:55 GMT 47.621914 18.983601 30,975 135 455 0
2021-11-28 12:42:51 GMT 47.624954 18.979088 30,975 134 454 0
2021-11-28 12:42:48 GMT 47.630295 18.971134 31,000 135 453 0
2021-11-28 12:42:44 GMT 47.636021 18.962614 30,975 135 453 0
2021-11-28 12:42:41 GMT 47.640427 18.956154 31,000 135 453 0
2021-11-28 12:42:38 GMT 47.645187 18.949013 31,000 135 453 0
2021-11-28 12:42:35 GMT 47.648869 18.943600 31,000 134 453 0
2021-11-28 12:42:32 GMT 47.655293 18.934092 31,000 134 453 0
2021-11-28 12:42:29 GMT 47.659622 18.927612 31,000 134 453 0
2021-11-28 12:42:26 GMT 47.662125 18.923950 31,000 134 453 64
2021-11-28 12:42:23 GMT 47.673264 18.907330 31,000 134 452 64
2021-11-28 12:42:19 GMT 47.673264 18.907330 30,975 134 452 64
2021-11-28 12:42:16 GMT 47.679405 18.898245 31,000 134 452 64
2021-11-28 12:42:12 GMT 47.688484 18.884724 30,975 134 451 0
2021-11-28 12:42:09 GMT 47.688484 18.884724 31,000 134 451 -64
2021-11-28 12:42:06 GMT 47.693115 18.877739 31,000 134 451 -64
2021-11-28 12:42:01 GMT 47.700077 18.867399 31,000 134 451 -128
2021-11-28 12:41:56 GMT 47.706894 18.857277 31,000 134 450 0
2021-11-28 12:41:53 GMT 47.712318 18.849159 31,000 134 450 0
2021-11-28 12:41:50 GMT 47.715996 18.843664 31,000 134 450 0
2021-11-28 12:41:47 GMT 47.720188 18.837399 31,000 134 450 0
2021-11-28 12:41:44 GMT 47.724747 18.830566 31,000 134 451 64
2021-11-28 12:41:41 GMT 47.730469 18.822052 31,000 134 451 64
2021-11-28 12:41:37 GMT 47.734852 18.815426 31,000 134 451 64
2021-11-28 12:41:34 GMT 47.740906 18.806465 30,975 134 451 64
2021-11-28 12:41:31 GMT 47.743790 18.802114 30,975 134 451 0
2021-11-28 12:41:28 GMT 47.749607 18.793524 31,000 134 451 -64
2021-11-28 12:41:25 GMT 47.753998 18.786964 31,000 134 451 -64
2021-11-28 12:41:22 GMT 47.756836 18.782707 31,000 134 450 -64
2021-11-28 12:41:19 GMT 47.760544 18.777145 31,000 134 449 -64
2021-11-28 12:41:16 GMT 47.765900 18.769180 31,000 134 449 128
2021-11-28 12:41:13 GMT 47.776794 18.752907 31,000 134 449 64
2021-11-28 12:41:09 GMT 47.776794 18.752907 31,000 134 450 64
2021-11-28 12:41:06 GMT 47.780613 18.747183 30,975 134 450 0
2021-11-28 12:41:03 GMT 47.785778 18.739508 30,975 134 450 0
2021-11-28 12:40:59 GMT 47.792450 18.729492 30,975 134 451 64
2021-11-28 12:40:56 GMT 47.795277 18.725281 30,975 134 451 0
2021-11-28 12:40:53 GMT 47.799545 18.718918 31,000 134 450 0
2021-11-28 12:40:50 GMT 47.804169 18.711983 31,000 134 450 0
2021-11-28 12:40:47 GMT 47.815338 18.695210 31,000 134 449 -64
2021-11-28 12:40:43 GMT 47.815338 18.695210 31,000 134 449 -64
2021-11-28 12:40:40 GMT 47.819855 18.688448 31,000 134 448 0
2021-11-28 12:40:37 GMT 47.823166 18.683487 31,000 134 449 64
2021-11-28 12:40:34 GMT 47.828293 18.675797 31,000 134 449 64
2021-11-28 12:40:31 GMT 47.831223 18.671333 31,000 134 449 64
2021-11-28 12:40:28 GMT 47.835159 18.665497 30,975 134 449 0
2021-11-28 12:40:25 GMT 47.840057 18.658094 31,000 134 449 0
2021-11-28 12:40:21 GMT 47.845779 18.649567 31,000 134 449 -64
2021-11-28 12:40:18 GMT 47.851185 18.641476 31,000 134 448 -64
2021-11-28 12:40:15 GMT 47.854752 18.636108 31,000 134 448 -64
2021-11-28 12:40:10 GMT 47.861481 18.626083 31,000 134 448 -64
2021-11-28 12:40:06 GMT 47.869034 18.614822 31,000 134 447 64
2021-11-28 12:40:03 GMT 47.873428 18.608162 31,000 134 448 64
2021-11-28 12:40:00 GMT 47.876495 18.603561 31,000 134 448 64
2021-11-28 12:39:57 GMT 47.881165 18.596615 31,000 135 448 0
2021-11-28 12:39:54 GMT 47.885075 18.590769 30,975 135 448 0
2021-11-28 12:39:51 GMT 47.890137 18.583237 31,000 135 448 0
2021-11-28 12:39:48 GMT 47.894852 18.576262 30,975 135 447 64
2021-11-28 12:39:45 GMT 47.899460 18.569429 30,975 135 447 128
2021-11-28 12:39:41 GMT 47.910355 18.553232 30,975 135 447 0
2021-11-28 12:39:38 GMT 47.910355 18.553232 30,975 135 447 -64
2021-11-28 12:39:35 GMT 47.912682 18.549782 31,000 135 446 -64
2021-11-28 12:39:32 GMT 47.918362 18.541330 31,000 135 446 -64
2021-11-28 12:39:29 GMT 47.925064 18.531401 31,000 135 446 0
2021-11-28 12:39:26 GMT 47.930191 18.523773 31,000 135 445 0
2021-11-28 12:39:20 GMT 47.935398 18.516117 31,000 135 444 0
2021-11-28 12:39:17 GMT 47.939575 18.509903 31,000 135 444 -64
2021-11-28 12:39:14 GMT 47.944523 18.502596 31,000 135 444 0
2021-11-28 12:39:11 GMT 47.948200 18.497103 31,000 134 444 0
2021-11-28 12:39:08 GMT 47.951981 18.491501 31,000 134 444 -64
2021-11-28 12:39:04 GMT 47.961685 18.476944 31,000 134 444 -64
2021-11-28 12:38:59 GMT 47.965942 18.470558 31,000 134 444 -64
2021-11-28 12:38:55 GMT 47.971848 18.461609 31,000 134 444 64
2021-11-28 12:38:52 GMT 47.976925 18.453861 31,000 133 445 0
2021-11-28 12:38:49 GMT 47.984253 18.442474 31,000 133 446 0
2021-11-28 12:38:46 GMT 47.984253 18.442474 31,000 133 445 0
2021-11-28 12:38:43 GMT 47.988647 18.435539 31,000 132 447 128
2021-11-28 12:38:40 GMT 47.997849 18.420776 31,000 132 446 128
2021-11-28 12:38:34 GMT 48.001602 18.414597 30,975 131 448 64
2021-11-28 12:38:31 GMT 48.007229 18.405197 30,975 131 449 0
2021-11-28 12:38:27 GMT 48.011215 18.398598 30,975 131 449 0
2021-11-28 12:38:24 GMT 48.016632 18.389565 31,000 131 448 -128
2021-11-28 12:38:21 GMT 48.019592 18.384590 31,000 131 447 -128
2021-11-28 12:38:18 GMT 48.022385 18.379921 31,000 131 447 -64
2021-11-28 12:38:14 GMT 48.028381 18.369896 31,000 131 446 0
2021-11-28 12:38:11 GMT 48.033142 18.361931 31,000 131 446 64
2021-11-28 12:38:08 GMT 48.037300 18.354916 31,000 131 446 64
2021-11-28 12:38:03 GMT 48.045074 18.341887 31,000 131 447 64
2021-11-28 12:37:58 GMT 48.050800 18.332308 31,000 131 446 64
2021-11-28 12:37:54 GMT 48.056351 18.322929 31,000 131 446 0
2021-11-28 12:37:51 GMT 48.061321 18.314562 30,975 131 446 -64
2021-11-28 12:37:48 GMT 48.063557 18.310829 31,000 131 446 -64
2021-11-28 12:37:45 GMT 48.068630 18.302307 31,000 131 446 -64
2021-11-28 12:37:42 GMT 48.072693 18.295464 31,000 131 444 64
2021-11-28 12:37:39 GMT 48.077911 18.286812 31,000 131 444 64
2021-11-28 12:37:36 GMT 48.080082 18.283152 31,000 131 444 0
2021-11-28 12:37:33 GMT 48.084869 18.275139 31,000 131 444 64
2021-11-28 12:37:30 GMT 48.088806 18.268547 31,000 131 444 0
2021-11-28 12:37:27 GMT 48.093071 18.261391 31,000 131 444 0
2021-11-28 12:37:23 GMT 48.098377 18.252586 31,000 131 444 0
2021-11-28 12:37:20 GMT 48.103966 18.243219 30,975 131 444 64
2021-11-28 12:37:17 GMT 48.108059 18.236319 31,000 131 443 64
2021-11-28 12:37:12 GMT 48.113617 18.227142 30,975 131 442 0
2021-11-28 12:37:09 GMT 48.118195 18.219452 31,000 131 441 0
2021-11-28 12:37:06 GMT 48.122307 18.212585 31,000 131 441 -64
2021-11-28 12:37:03 GMT 48.129822 18.199951 31,000 131 441 -64
2021-11-28 12:37:00 GMT 48.129822 18.199951 31,000 131 441 -64
2021-11-28 12:36:57 GMT 48.133438 18.193840 31,000 131 441 -64
2021-11-28 12:36:54 GMT 48.138885 18.184639 31,000 131 440 0
2021-11-28 12:36:51 GMT 48.146210 18.172417 31,000 131 439 192
2021-11-28 12:36:48 GMT 48.146210 18.172417 31,000 131 437 0
2021-11-28 12:36:45 GMT 48.149597 18.166649 31,000 131 439 192
2021-11-28 12:36:41 GMT 48.155090 18.157379 30,975 131 439 0
2021-11-28 12:36:38 GMT 48.160126 18.148933 31,000 131 439 -64
2021-11-28 12:36:35 GMT 48.164337 18.141878 31,000 131 439 -64
2021-11-28 12:36:31 GMT 48.169144 18.133780 31,000 131 439 -64
2021-11-28 12:36:28 GMT 48.173931 18.125778 31,000 131 439 0
2021-11-28 12:36:24 GMT 48.178299 18.118498 31,000 131 437 64
2021-11-28 12:36:20 GMT 48.183563 18.109694 31,000 131 436 0
2021-11-28 12:36:16 GMT 48.188828 18.100891 31,000 131 436 0
2021-11-28 12:36:13 GMT 48.195145 18.090258 31,000 131 436 0
2021-11-28 12:36:10 GMT 48.197163 18.086893 31,000 131 437 64
2021-11-28 12:36:07 GMT 48.201004 18.080467 31,000 131 437 64
2021-11-28 12:36:04 GMT 48.204895 18.073849 31,000 131 437 64
2021-11-28 12:36:01 GMT 48.210388 18.064552 31,000 131 437 -64
2021-11-28 12:35:58 GMT 48.213730 18.058918 31,000 131 436 -64
2021-11-28 12:35:55 GMT 48.218716 18.050537 31,000 131 436 -64
2021-11-28 12:35:50 GMT 48.224121 18.041452 31,000 131 437 0
2021-11-28 12:35:47 GMT 48.228836 18.033495 31,000 131 437 0
2021-11-28 12:35:44 GMT 48.232361 18.027578 31,000 131 438 0
2021-11-28 12:35:40 GMT 48.238724 18.016874 31,000 131 438 0
2021-11-28 12:35:37 GMT 48.242363 18.010712 31,000 131 437 0
2021-11-28 12:35:34 GMT 48.245636 18.005182 31,000 131 437 0
2021-11-28 12:35:31 GMT 48.249252 17.999002 31,000 131 438 0
2021-11-28 12:35:28 GMT 48.258240 17.983751 31,000 131 438 0
2021-11-28 12:35:25 GMT 48.258240 17.983751 31,000 131 438 64
2021-11-28 12:35:22 GMT 48.264130 17.973774 31,000 131 438 0
2021-11-28 12:35:19 GMT 48.266281 17.970182 31,000 131 439 -64
2021-11-28 12:35:16 GMT 48.270340 17.963224 31,000 131 439 0
2021-11-28 12:35:13 GMT 48.273506 17.957876 31,000 131 439 -64
2021-11-28 12:35:09 GMT 48.284958 17.938505 31,000 131 439 0
2021-11-28 12:35:06 GMT 48.284958 17.938505 31,000 131 439 0
2021-11-28 12:35:02 GMT 48.288391 17.932646 31,000 131 439 0
2021-11-28 12:34:59 GMT 48.293015 17.924828 31,000 131 439 64
2021-11-28 12:34:56 GMT 48.296814 17.918348 31,000 131 439 -64
2021-11-28 12:34:53 GMT 48.301117 17.911095 31,000 131 439 0
2021-11-28 12:34:49 GMT 48.306839 17.901377 31,000 131 439 -64
2021-11-28 12:34:46 GMT 48.311493 17.893476 31,000 131 439 -64
2021-11-28 12:34:42 GMT 48.314667 17.888065 31,000 131 439 -64
2021-11-28 12:34:38 GMT 48.320206 17.878630 31,000 131 439 0
2021-11-28 12:34:35 GMT 48.325745 17.869263 31,000 131 439 0
2021-11-28 12:34:32 GMT 48.328262 17.864967 31,000 131 439 0
2021-11-28 12:34:29 GMT 48.334026 17.855167 31,000 131 439 0
2021-11-28 12:34:26 GMT 48.342312 17.841074 31,000 131 439 0
2021-11-28 12:34:23 GMT 48.342312 17.841074 31,000 131 439 64
2021-11-28 12:34:20 GMT 48.346390 17.834190 31,000 131 439 0
2021-11-28 12:34:17 GMT 48.349293 17.829220 31,000 131 440 -64
2021-11-28 12:34:14 GMT 48.354813 17.819824 31,000 131 440 0
2021-11-28 12:34:11 GMT 48.357952 17.814476 31,000 131 440 0
2021-11-28 12:34:08 GMT 48.361221 17.808908 31,000 131 440 0
2021-11-28 12:34:05 GMT 48.365524 17.801584 31,000 131 440 -64
2021-11-28 12:34:02 GMT 48.369591 17.794670 31,000 131 440 -64
2021-11-28 12:33:58 GMT 48.373993 17.787148 31,000 131 440 -64
2021-11-28 12:33:55 GMT 48.380112 17.776674 31,000 131 440 64
2021-11-28 12:33:51 GMT 48.383602 17.770746 31,000 131 440 64
2021-11-28 12:33:48 GMT 48.387451 17.764118 31,000 131 440 64
2021-11-28 12:33:45 GMT 48.392578 17.755384 30,975 131 441 0
2021-11-28 12:33:42 GMT 48.397381 17.747112 30,975 131 441 0
2021-11-28 12:33:39 GMT 48.401386 17.740318 30,975 131 441 -64
2021-11-28 12:33:36 GMT 48.404179 17.735476 30,975 131 440 -128
2021-11-28 12:33:33 GMT 48.409103 17.727003 31,000 131 440 -128
2021-11-28 12:33:29 GMT 48.414841 17.717190 31,000 131 440 -64
2021-11-28 12:33:26 GMT 48.417587 17.712490 31,000 131 440 64
2021-11-28 12:33:23 GMT 48.421776 17.705336 31,000 131 440 64
2021-11-28 12:33:19 GMT 48.426662 17.696951 31,000 131 439 64
2021-11-28 12:33:16 GMT 48.431351 17.688974 30,975 131 439 64
2021-11-28 12:33:13 GMT 48.435883 17.681227 30,975 131 440 64
2021-11-28 12:33:09 GMT 48.440094 17.673973 30,975 131 440 0
2021-11-28 12:33:06 GMT 48.448776 17.659077 31,000 131 440 0
2021-11-28 12:33:03 GMT 48.448776 17.659077 30,975 131 440 -64
2021-11-28 12:33:00 GMT 48.452911 17.652071 31,000 131 440 -64
2021-11-28 12:32:56 GMT 48.459621 17.640574 31,000 131 439 0
2021-11-28 12:32:53 GMT 48.469307 17.624022 31,000 131 438 -64
2021-11-28 12:32:49 GMT 48.469307 17.624022 31,000 131 438 0
2021-11-28 12:32:46 GMT 48.472145 17.619179 31,000 131 438 -64
2021-11-28 12:32:43 GMT 48.476944 17.611013 31,000 131 437 0
2021-11-28 12:32:38 GMT 48.483318 17.600098 31,000 131 436 0
2021-11-28 12:32:35 GMT 48.490440 17.587811 31,000 131 437 0
2021-11-28 12:32:32 GMT 48.490440 17.587811 31,000 131 437 -64
2021-11-28 12:32:29 GMT 48.494431 17.580942 31,000 131 437 64
2021-11-28 12:32:26 GMT 48.498688 17.573689 30,975 131 437 64
2021-11-28 12:32:23 GMT 48.502499 17.567139 31,000 131 437 64
2021-11-28 12:32:20 GMT 48.507706 17.558125 31,000 131 437 64
2021-11-28 12:32:17 GMT 48.510410 17.553478 31,000 131 437 -64
2021-11-28 12:32:14 GMT 48.514389 17.546644 30,975 131 437 -64
2021-11-28 12:32:11 GMT 48.518417 17.539745 30,975 131 437 -128
2021-11-28 12:32:08 GMT 48.524048 17.530025 31,000 130 438 0
2021-11-28 12:32:05 GMT 48.526100 17.526518 31,000 131 436 -128
2021-11-28 12:32:01 GMT 48.535736 17.509893 31,000 131 435 64
2021-11-28 12:31:58 GMT 48.535736 17.509893 31,000 131 435 128
2021-11-28 12:31:55 GMT 48.539322 17.503750 31,000 131 435 128
2021-11-28 12:31:51 GMT 48.543777 17.496080 30,975 131 435 64
2021-11-28 12:31:48 GMT 48.548958 17.487125 30,975 131 436 -128
2021-11-28 12:31:45 GMT 48.552429 17.481220 31,000 131 436 -128
2021-11-28 12:31:42 GMT 48.555706 17.475561 31,000 131 436 -64
2021-11-28 12:31:39 GMT 48.561539 17.465586 31,000 131 435 0
2021-11-28 12:31:36 GMT 48.564598 17.460312 31,000 131 435 0
2021-11-28 12:31:33 GMT 48.568043 17.454456 31,000 131 435 0
2021-11-28 12:31:30 GMT 48.576187 17.440435 31,000 131 435 0
2021-11-28 12:31:27 GMT 48.576187 17.440435 31,000 131 435 0
2021-11-28 12:31:24 GMT 48.580379 17.433279 31,000 131 435 0
2021-11-28 12:31:21 GMT 48.585388 17.424669 31,000 131 435 64
2021-11-28 12:31:18 GMT 48.588089 17.420019 31,000 131 435 64
2021-11-28 12:31:15 GMT 48.593536 17.410583 31,000 131 435 0
2021-11-28 12:31:12 GMT 48.595779 17.406780 31,000 131 435 0
2021-11-28 12:31:08 GMT 48.602352 17.395477 31,000 130 440 64
2021-11-28 12:31:05 GMT 48.606819 17.387671 31,000 131 437 -64
2021-11-28 12:31:02 GMT 48.609695 17.382694 31,000 131 437 -64
2021-11-28 12:30:59 GMT 48.613712 17.375746 31,000 130 441 64
2021-11-28 12:30:56 GMT 48.617527 17.369097 31,000 131 437 -64
2021-11-28 12:30:53 GMT 48.620911 17.363258 31,000 131 437 -128
2021-11-28 12:30:50 GMT 48.626839 17.352905 31,000 130 438 0
2021-11-28 12:30:47 GMT 48.629585 17.348135 31,000 130 438 0
2021-11-28 12:30:44 GMT 48.633450 17.341413 31,000 130 439 0
2021-11-28 12:30:41 GMT 48.638580 17.332413 31,000 130 439 0
2021-11-28 12:30:37 GMT 48.644028 17.322905 31,000 130 440 64
2021-11-28 12:30:34 GMT 48.647369 17.316982 31,000 130 440 64
2021-11-28 12:30:31 GMT 48.651371 17.310043 31,000 130 440 64
2021-11-28 12:30:27 GMT 48.656662 17.300720 30,975 130 441 0
2021-11-28 12:30:24 GMT 48.660122 17.294649 31,000 130 441 -64
2021-11-28 12:30:21 GMT 48.663620 17.288465 31,000 130 441 -64
2021-11-28 12:30:17 GMT 48.670223 17.276941 30,975 130 441 64
2021-11-28 12:30:14 GMT 48.674603 17.269279 31,000 130 440 64
2021-11-28 12:30:11 GMT 48.677307 17.264523 31,000 130 441 128
2021-11-28 12:30:08 GMT 48.682846 17.254803 30,975 130 440 64
2021-11-28 12:30:05 GMT 48.686325 17.248747 30,975 130 440 64
2021-11-28 12:30:02 GMT 48.690262 17.241844 30,975 130 441 0
2021-11-28 12:29:59 GMT 48.694431 17.234657 31,000 131 440 -64
2021-11-28 12:29:56 GMT 48.697128 17.229942 31,000 131 440 -64
2021-11-28 12:29:53 GMT 48.700951 17.223310 31,000 130 439 -64
2021-11-28 12:29:50 GMT 48.706238 17.214237 31,000 131 438 64
2021-11-28 12:29:46 GMT 48.711842 17.204590 31,000 130 438 0
2021-11-28 12:29:42 GMT 48.715622 17.197969 30,975 130 439 -64
2021-11-28 12:29:39 GMT 48.720062 17.190153 31,000 129 439 -128
2021-11-28 12:29:36 GMT 48.724823 17.181419 31,000 129 440 0
2021-11-28 12:29:33 GMT 48.728622 17.174377 31,000 128 441 64
2021-11-28 12:29:30 GMT 48.731628 17.168667 31,000 127 442 -64
2021-11-28 12:29:27 GMT 48.735855 17.160503 31,000 127 443 -128
2021-11-28 12:29:24 GMT 48.739700 17.152899 31,000 126 443 0
2021-11-28 12:29:21 GMT 48.742752 17.146694 31,000 126 444 64
2021-11-28 12:29:18 GMT 48.745964 17.140045 31,000 126 444 0
2021-11-28 12:29:15 GMT 48.749771 17.132051 31,000 124 446 64
2021-11-28 12:29:12 GMT 48.753571 17.123882 31,000 124 446 64
2021-11-28 12:29:09 GMT 48.756500 17.117332 31,000 122 449 0
2021-11-28 12:29:06 GMT 48.759464 17.110701 31,000 121 451 -64
2021-11-28 12:29:03 GMT 48.766434 17.094444 31,000 122 449 0
2021-11-28 12:29:00 GMT 48.766434 17.094444 31,000 122 450 -64
2021-11-28 12:28:57 GMT 48.770779 17.083885 31,000 121 451 64
2021-11-28 12:28:54 GMT 48.773575 17.076979 30,975 120 453 128
2021-11-28 12:28:51 GMT 48.776829 17.068707 30,975 120 453 64
2021-11-28 12:28:48 GMT 48.783581 17.050854 30,975 118 455 64
2021-11-28 12:28:45 GMT 48.783581 17.050854 30,975 118 455 64
2021-11-28 12:28:42 GMT 48.786140 17.043770 30,975 117 456 0
2021-11-28 12:28:39 GMT 48.789631 17.033796 30,975 117 457 0
2021-11-28 12:28:36 GMT 48.791912 17.027145 30,975 116 457 -64
2021-11-28 12:28:33 GMT 48.794800 17.018618 31,000 115 459 -64
2021-11-28 12:28:30 GMT 48.797562 17.010075 31,000 115 458 -64
2021-11-28 12:28:26 GMT 48.801819 16.996553 31,000 113 460 -64
2021-11-28 12:28:23 GMT 48.804527 16.987682 31,000 114 459 -64
2021-11-28 12:28:20 GMT 48.807495 16.977539 31,000 113 460 -64
2021-11-28 12:28:17 GMT 48.809277 16.971275 31,000 112 461 -64
2021-11-28 12:28:14 GMT 48.811790 16.962313 31,000 111 462 0
2021-11-28 12:28:11 GMT 48.814590 16.951693 31,000 111 463 64
2021-11-28 12:28:08 GMT 48.815842 16.946917 31,000 111 463 64
2021-11-28 12:28:05 GMT 48.818401 16.936943 31,000 110 464 0
2021-11-28 12:28:02 GMT 48.821007 16.926245 30,975 110 464 64
2021-11-28 12:27:59 GMT 48.823334 16.916973 30,975 110 465 0
2021-11-28 12:27:56 GMT 48.825665 16.907381 31,000 110 465 0
2021-11-28 12:27:53 GMT 48.827896 16.898346 30,975 110 465 0
2021-11-28 12:27:50 GMT 48.830246 16.888874 31,000 110 465 0
2021-11-28 12:27:45 GMT 48.833908 16.873873 31,000 110 465 64
2021-11-28 12:27:41 GMT 48.837254 16.860111 31,000 110 465 0
2021-11-28 12:27:38 GMT 48.838837 16.853750 31,000 110 465 0
2021-11-28 12:27:35 GMT 48.841370 16.843451 31,000 110 464 0
2021-11-28 12:27:32 GMT 48.843887 16.833027 31,000 110 463 0
2021-11-28 12:27:29 GMT 48.845398 16.826969 31,000 110 464 -64
2021-11-28 12:27:25 GMT 48.848473 16.814430 31,000 110 464 -64
2021-11-28 12:27:22 GMT 48.850895 16.804384 31,000 110 464 -64
2021-11-28 12:27:19 GMT 48.853409 16.794151 31,000 110 464 -128
2021-11-28 12:27:15 GMT 48.856796 16.780350 31,025 110 464 0
2021-11-28 12:27:11 GMT 48.859177 16.770700 31,000 110 465 64
2021-11-28 12:27:08 GMT 48.861099 16.762741 31,000 110 464 64
2021-11-28 12:27:03 GMT 48.864716 16.747953 31,000 110 466 -64
2021-11-28 12:27:00 GMT 48.867691 16.735699 30,975 110 466 0
2021-11-28 12:26:57 GMT 48.870121 16.725744 30,975 110 466 -64
2021-11-28 12:26:54 GMT 48.872074 16.717722 30,975 110 466 -64
2021-11-28 12:26:50 GMT 48.875008 16.705725 31,000 110 466 0
2021-11-28 12:26:47 GMT 48.876778 16.698351 31,000 110 466 0
2021-11-28 12:26:44 GMT 48.879150 16.688665 31,000 110 465 0
2021-11-28 12:26:41 GMT 48.881332 16.679852 31,000 110 466 -64
2021-11-28 12:26:38 GMT 48.883987 16.668865 31,000 110 466 64
2021-11-28 12:26:35 GMT 48.886227 16.659466 31,000 110 466 64
2021-11-28 12:26:32 GMT 48.888042 16.651949 30,975 110 466 0
2021-11-28 12:26:29 GMT 48.890625 16.641258 31,000 110 466 -64
2021-11-28 12:26:25 GMT 48.895248 16.622032 31,000 110 465 -64
2021-11-28 12:26:22 GMT 48.895248 16.622032 31,000 110 465 -64
2021-11-28 12:26:17 GMT 48.900799 16.599113 31,000 110 464 -64
2021-11-28 12:26:14 GMT 48.901703 16.595343 31,000 110 464 0
2021-11-28 12:26:10 GMT 48.904335 16.584585 31,000 110 464 64
2021-11-28 12:26:07 GMT 48.909164 16.564356 31,000 109 465 64
2021-11-28 12:26:04 GMT 48.909164 16.564356 30,975 109 465 64
2021-11-28 12:26:00 GMT 48.911831 16.553289 30,975 109 465 0
2021-11-28 12:25:57 GMT 48.914291 16.543085 30,975 110 464 0
2021-11-28 12:25:52 GMT 48.918022 16.527630 30,975 110 464 0
2021-11-28 12:25:49 GMT 48.920654 16.516678 30,975 110 464 0
2021-11-28 12:25:46 GMT 48.922398 16.509272 31,000 110 463 -64
2021-11-28 12:25:43 GMT 48.923996 16.502663 31,000 110 463 0
2021-11-28 12:25:39 GMT 48.927658 16.487520 31,000 110 463 -64
2021-11-28 12:25:36 GMT 48.929474 16.479925 31,000 110 462 -128
2021-11-28 12:25:33 GMT 48.931244 16.472553 31,000 110 462 -64
2021-11-28 12:25:30 GMT 48.933563 16.462942 31,000 110 462 0
2021-11-28 12:25:27 GMT 48.935806 16.453787 31,000 110 462 0
2021-11-28 12:25:24 GMT 48.938553 16.442196 31,000 110 463 64
2021-11-28 12:25:21 GMT 48.940430 16.434490 31,000 110 463 64
2021-11-28 12:25:18 GMT 48.942719 16.424982 31,000 110 463 0
2021-11-28 12:25:15 GMT 48.944836 16.416176 31,000 110 463 0
2021-11-28 12:25:11 GMT 48.947632 16.404612 31,000 110 463 0
2021-11-28 12:25:08 GMT 48.949818 16.395361 31,000 110 463 0
2021-11-28 12:25:05 GMT 48.952053 16.386181 31,000 110 463 64
2021-11-28 12:25:02 GMT 48.955124 16.373386 31,000 110 463 64
2021-11-28 12:24:59 GMT 48.957092 16.365192 31,000 110 463 64
2021-11-28 12:24:55 GMT 48.959427 16.355473 30,975 110 463 0
2021-11-28 12:24:51 GMT 48.963177 16.339849 30,975 110 463 0
2021-11-28 12:24:48 GMT 48.965195 16.331530 31,000 110 462 0
2021-11-28 12:24:45 GMT 48.967072 16.323782 31,000 110 462 0
2021-11-28 12:24:42 GMT 48.968811 16.316433 30,975 110 462 0
2021-11-28 12:24:39 GMT 48.971279 16.306168 31,000 110 461 0
2021-11-28 12:24:35 GMT 48.974258 16.293781 31,000 109 460 -64
2021-11-28 12:24:32 GMT 48.979065 16.273781 31,000 109 460 -64
2021-11-28 12:24:29 GMT 48.979065 16.273781 31,000 109 460 -64
2021-11-28 12:24:26 GMT 48.980164 16.269133 31,000 109 459 -64
2021-11-28 12:24:23 GMT 48.982964 16.257307 31,000 109 459 0
2021-11-28 12:24:20 GMT 48.985149 16.248201 31,000 109 459 0
2021-11-28 12:24:17 GMT 48.987663 16.237720 31,000 109 459 0
2021-11-28 12:24:14 GMT 48.989777 16.228779 31,000 109 459 0
2021-11-28 12:24:11 GMT 48.992367 16.217772 31,000 109 459 0
2021-11-28 12:24:08 GMT 48.994324 16.209677 31,000 109 459 0
2021-11-28 12:24:05 GMT 48.998154 16.193424 31,000 109 458 0
2021-11-28 12:24:02 GMT 48.998154 16.193424 31,000 109 458 0
2021-11-28 12:23:59 GMT 49.000717 16.182440 31,000 109 458 0
2021-11-28 12:23:56 GMT 49.002274 16.176029 31,000 109 458 0
2021-11-28 12:23:53 GMT 49.004013 16.168566 31,000 109 458 64
2021-11-28 12:23:50 GMT 49.006439 16.158354 31,000 109 458 64
2021-11-28 12:23:47 GMT 49.008194 16.151058 31,000 109 458 64
2021-11-28 12:23:44 GMT 49.011127 16.138771 31,000 109 458 0
2021-11-28 12:23:41 GMT 49.012989 16.130964 31,000 109 458 0
2021-11-28 12:23:38 GMT 49.015869 16.118845 31,000 109 458 0
2021-11-28 12:23:34 GMT 49.018204 16.108994 31,000 109 457 -64
2021-11-28 12:23:30 GMT 49.021317 16.096027 31,000 109 457 0
2021-11-28 12:23:27 GMT 49.025711 16.077576 31,000 109 457 0
2021-11-28 12:23:24 GMT 49.025711 16.077576 31,000 109 457 0
2021-11-28 12:23:20 GMT 49.028305 16.066710 31,000 109 457 0
2021-11-28 12:23:17 GMT 49.030334 16.058067 30,975 109 457 0
2021-11-28 12:23:14 GMT 49.033081 16.046448 31,000 109 457 0
2021-11-28 12:23:10 GMT 49.035706 16.035269 30,975 109 457 0
2021-11-28 12:23:07 GMT 49.037476 16.027925 30,975 109 456 0
2021-11-28 12:23:04 GMT 49.039803 16.018066 31,000 109 456 0
2021-11-28 12:22:59 GMT 49.043015 16.004333 31,000 109 456 0
2021-11-28 12:22:56 GMT 49.045898 15.992080 31,000 109 455 0
2021-11-28 12:22:53 GMT 49.047409 15.985741 31,000 109 455 0
2021-11-28 12:22:50 GMT 49.051907 15.966532 31,000 109 455 0
2021-11-28 12:22:47 GMT 49.051907 15.966532 31,000 109 455 0
2021-11-28 12:22:44 GMT 49.054001 15.957642 31,000 109 455 64
2021-11-28 12:22:41 GMT 49.057068 15.944683 31,000 109 455 64
2021-11-28 12:22:37 GMT 49.058899 15.936796 30,975 109 455 0
2021-11-28 12:22:34 GMT 49.061005 15.927922 31,000 109 455 0
2021-11-28 12:22:31 GMT 49.064941 15.911239 31,000 109 455 0
2021-11-28 12:22:28 GMT 49.064941 15.911239 31,000 109 455 -64
2021-11-28 12:22:25 GMT 49.069473 15.891935 31,000 109 455 0
2021-11-28 12:22:22 GMT 49.069473 15.891935 31,000 109 455 64
2021-11-28 12:22:19 GMT 49.072018 15.881026 31,000 109 455 0
2021-11-28 12:22:16 GMT 49.074142 15.872075 31,000 109 455 64
2021-11-28 12:22:13 GMT 49.076302 15.862885 31,000 109 455 0
2021-11-28 12:22:10 GMT 49.078300 15.854356 31,000 109 455 0
2021-11-28 12:22:06 GMT 49.080769 15.843948 31,000 109 455 -64
2021-11-28 12:22:03 GMT 49.083710 15.831440 31,000 109 455 -64
2021-11-28 12:21:59 GMT 49.085495 15.823622 31,000 109 455 0
2021-11-28 12:21:56 GMT 49.087521 15.815036 31,000 109 455 0
2021-11-28 12:21:53 GMT 49.090034 15.804339 30,975 109 455 0
2021-11-28 12:21:50 GMT 49.092957 15.791720 30,975 109 455 -64
2021-11-28 12:21:47 GMT 49.094036 15.787137 31,000 109 455 -64
2021-11-28 12:21:44 GMT 49.096924 15.774922 31,000 109 455 -64
2021-11-28 12:21:41 GMT 49.098644 15.767549 31,000 109 455 -64
2021-11-28 12:21:38 GMT 49.100601 15.759113 31,000 109 455 0
2021-11-28 12:21:35 GMT 49.103207 15.747962 31,000 109 455 64
2021-11-28 12:21:32 GMT 49.104950 15.740591 31,000 109 455 64
2021-11-28 12:21:29 GMT 49.107071 15.731482 31,000 109 456 64
2021-11-28 12:21:26 GMT 49.108932 15.723387 31,000 109 456 64
2021-11-28 12:21:23 GMT 49.112091 15.709886 31,000 109 456 0
2021-11-28 12:21:20 GMT 49.113510 15.703829 30,975 109 456 0
2021-11-28 12:21:16 GMT 49.118523 15.682044 31,000 109 457 -64
2021-11-28 12:21:13 GMT 49.118523 15.682044 31,000 109 457 0
2021-11-28 12:21:10 GMT 49.120197 15.674888 31,000 109 456 0
2021-11-28 12:21:07 GMT 49.122208 15.666081 31,000 109 457 0
2021-11-28 12:21:04 GMT 49.126465 15.647700 31,000 109 456 0
2021-11-28 12:21:01 GMT 49.128487 15.638894 31,000 109 456 0
2021-11-28 12:20:58 GMT 49.128487 15.638894 31,000 109 456 0
2021-11-28 12:20:55 GMT 49.130447 15.630376 31,000 109 456 0
2021-11-28 12:20:52 GMT 49.132908 15.619667 31,000 109 456 0
2021-11-28 12:20:49 GMT 49.134979 15.610798 31,000 109 457 0
2021-11-28 12:20:46 GMT 49.139008 15.593191 31,000 109 453 0
2021-11-28 12:20:43 GMT 49.139008 15.593191 31,000 109 457 0
2021-11-28 12:20:40 GMT 49.140869 15.585118 31,000 109 457 64
2021-11-28 12:20:37 GMT 49.143475 15.573843 31,000 109 457 64
2021-11-28 12:20:34 GMT 49.145233 15.566289 31,000 109 457 0
2021-11-28 12:20:31 GMT 49.147888 15.554598 30,975 109 457 0
2021-11-28 12:20:27 GMT 49.151062 15.540884 30,975 109 457 0
2021-11-28 12:20:24 GMT 49.152412 15.534957 30,975 109 457 0
2021-11-28 12:20:21 GMT 49.154572 15.525794 31,000 109 457 0
2021-11-28 12:20:18 GMT 49.157394 15.513490 31,000 109 457 0
2021-11-28 12:20:15 GMT 49.159023 15.506263 30,975 109 457 0
2021-11-28 12:20:12 GMT 49.160843 15.498469 31,000 109 457 0
2021-11-28 12:20:09 GMT 49.162609 15.490650 31,000 109 456 0
2021-11-28 12:20:06 GMT 49.165775 15.476990 31,000 109 456 0
2021-11-28 12:20:03 GMT 49.167404 15.469834 31,000 109 456 0
2021-11-28 12:20:00 GMT 49.169128 15.462130 31,000 109 456 0
2021-11-28 12:19:57 GMT 49.171829 15.450369 31,000 109 455 0
2021-11-28 12:19:54 GMT 49.173340 15.443890 31,000 109 455 0
2021-11-28 12:19:51 GMT 49.175083 15.436225 31,000 109 455 -64
2021-11-28 12:19:48 GMT 49.177177 15.427118 31,000 109 454 0
2021-11-28 12:19:45 GMT 49.179932 15.415086 31,000 109 454 64
2021-11-28 12:19:42 GMT 49.181396 15.408748 31,000 109 454 0
2021-11-28 12:19:39 GMT 49.183182 15.400860 31,000 109 453 -64
2021-11-28 12:19:36 GMT 49.185654 15.390155 31,000 109 453 -64
2021-11-28 12:19:33 GMT 49.187981 15.379992 31,000 109 453 -64
2021-11-28 12:19:30 GMT 49.190678 15.368283 31,000 109 453 0
2021-11-28 12:19:27 GMT 49.192520 15.360295 31,000 109 453 0
2021-11-28 12:19:24 GMT 49.194588 15.351297 31,000 109 453 64
2021-11-28 12:19:21 GMT 49.196033 15.345009 30,975 109 452 64
2021-11-28 12:19:18 GMT 49.198174 15.335685 30,975 109 452 64
2021-11-28 12:19:15 GMT 49.200714 15.324801 30,975 109 452 64
2021-11-28 12:19:12 GMT 49.202644 15.316387 30,975 109 452 64
2021-11-28 12:19:09 GMT 49.205017 15.305927 30,975 109 451 0
2021-11-28 12:19:06 GMT 49.207207 15.296438 30,975 109 451 0
2021-11-28 12:19:03 GMT 49.208954 15.288814 31,000 109 451 0
2021-11-28 12:19:00 GMT 49.210602 15.281701 31,000 109 445 0
2021-11-28 12:18:57 GMT 49.213257 15.270151 31,000 109 450 0
2021-11-28 12:18:54 GMT 49.214813 15.263461 31,000 109 450 0
2021-11-28 12:18:51 GMT 49.216827 15.254587 31,000 109 449 0
2021-11-28 12:18:48 GMT 49.221031 15.236230 31,000 109 449 0
2021-11-28 12:18:45 GMT 49.221031 15.236230 31,000 109 447 0
2021-11-28 12:18:42 GMT 49.223125 15.227123 31,000 109 447 0
2021-11-28 12:18:39 GMT 49.225204 15.217896 31,000 109 447 0
2021-11-28 12:18:35 GMT 49.227642 15.207102 31,000 109 447 0
2021-11-28 12:18:32 GMT 49.229782 15.197543 31,000 109 446 -64
2021-11-28 12:18:29 GMT 49.233974 15.179130 31,000 109 446 -64
2021-11-28 12:18:26 GMT 49.233974 15.179130 31,000 109 446 -64
2021-11-28 12:18:23 GMT 49.236191 15.169443 31,000 109 446 -64
2021-11-28 12:18:20 GMT 49.238300 15.160049 31,000 109 446 -64
2021-11-28 12:18:17 GMT 49.241867 15.144231 31,000 109 445 0
2021-11-28 12:18:14 GMT 49.241867 15.144231 31,000 109 445 0
2021-11-28 12:18:11 GMT 49.244339 15.133526 31,000 109 445 0
2021-11-28 12:18:08 GMT 49.248638 15.114224 31,000 108 444 0
2021-11-28 12:18:05 GMT 49.248638 15.114224 31,000 108 444 0
2021-11-28 12:18:02 GMT 49.250702 15.105145 31,000 108 444 64
2021-11-28 12:17:59 GMT 49.254036 15.090228 31,000 108 444 64
2021-11-28 12:17:56 GMT 49.254036 15.090228 31,000 108 444 64
2021-11-28 12:17:53 GMT 49.255920 15.081693 30,975 108 444 0
2021-11-28 12:17:50 GMT 49.257900 15.072809 30,975 108 444 0
2021-11-28 12:17:47 GMT 49.261871 15.054650 31,000 108 444 0
2021-11-28 12:17:44 GMT 49.261871 15.054650 31,000 108 444 0
2021-11-28 12:17:41 GMT 49.264481 15.042889 31,000 108 444 0
2021-11-28 12:17:38 GMT 49.265900 15.036410 31,000 108 443 0
2021-11-28 12:17:35 GMT 49.268467 15.024816 31,000 108 443 0
2021-11-28 12:17:32 GMT 49.270191 15.017154 31,000 108 442 0
2021-11-28 12:17:29 GMT 49.272190 15.008192 31,000 108 442 0
2021-11-28 12:17:26 GMT 49.276291 14.989788 31,000 108 441 0
2021-11-28 12:17:23 GMT 49.276291 14.989788 31,000 109 441 0
2021-11-28 12:17:20 GMT 49.279732 14.974438 31,000 109 441 0
2021-11-28 12:17:17 GMT 49.279732 14.974438 31,000 109 441 0
2021-11-28 12:17:14 GMT 49.281464 14.966689 31,000 109 440 64
2021-11-28 12:17:11 GMT 49.283409 14.958175 31,000 109 440 64
2021-11-28 12:17:08 GMT 49.285858 14.947322 30,975 109 440 64
2021-11-28 12:17:04 GMT 49.287781 14.938801 30,975 109 436 0
2021-11-28 12:17:01 GMT 49.290394 14.927384 30,975 109 438 0
2021-11-28 12:16:58 GMT 49.292114 14.919723 30,975 109 438 0
2021-11-28 12:16:55 GMT 49.294167 14.910760 30,975 109 437 0
2021-11-28 12:16:52 GMT 49.297050 14.898111 31,000 109 436 0
2021-11-28 12:16:49 GMT 49.299007 14.889655 31,000 109 436 0
2021-11-28 12:16:46 GMT 49.300095 14.884714 31,000 109 436 0
2021-11-28 12:16:43 GMT 49.302124 14.875994 31,000 109 435 0
2021-11-28 12:16:40 GMT 49.303986 14.867742 31,000 108 435 0
2021-11-28 12:16:37 GMT 49.306782 14.855106 31,000 108 435 0
2021-11-28 12:16:34 GMT 49.308151 14.849008 31,000 108 434 -64
2021-11-28 12:16:31 GMT 49.310783 14.837181 31,000 108 434 -64
2021-11-28 12:16:28 GMT 49.314507 14.820195 31,000 108 433 -64
2021-11-28 12:16:25 GMT 49.316208 14.812528 31,000 108 434 -64
2021-11-28 12:16:22 GMT 49.316208 14.812528 31,000 108 434 -64
2021-11-28 12:16:19 GMT 49.317535 14.806612 31,000 108 436 -64
2021-11-28 12:16:16 GMT 49.321629 14.787959 31,000 108 436 0
2021-11-28 12:16:13 GMT 49.323486 14.779569 31,000 108 437 0
2021-11-28 12:16:10 GMT 49.323486 14.779569 31,000 108 438 64
2021-11-28 12:16:07 GMT 49.325447 14.770757 31,000 108 440 64
2021-11-28 12:16:04 GMT 49.328110 14.758935 30,975 108 440 64
2021-11-28 12:16:01 GMT 49.329346 14.753301 30,975 108 441 0
2021-11-28 12:15:58 GMT 49.330986 14.745893 30,975 108 441 0
2021-11-28 12:15:55 GMT 49.333282 14.735413 31,000 108 442 -128
2021-11-28 12:15:52 GMT 49.335594 14.725004 31,000 108 445 0
2021-11-28 12:15:49 GMT 49.337177 14.717777 31,000 108 443 0
2021-11-28 12:15:46 GMT 49.339134 14.708886 31,000 108 443 0
2021-11-28 12:15:43 GMT 49.341110 14.699989 31,000 108 444 64
2021-11-28 12:15:40 GMT 49.343674 14.688509 31,000 108 445 0
2021-11-28 12:15:37 GMT 49.345421 14.680553 31,000 108 445 0
2021-11-28 12:15:33 GMT 49.348206 14.668157 31,000 108 446 64
2021-11-28 12:15:29 GMT 49.350494 14.657786 31,000 108 448 0
2021-11-28 12:15:26 GMT 49.352215 14.650124 31,000 108 448 64
2021-11-28 12:15:23 GMT 49.354935 14.637874 31,000 108 449 0
2021-11-28 12:15:20 GMT 49.359200 14.618755 31,000 108 449 0
2021-11-28 12:15:17 GMT 49.359200 14.618755 31,000 108 450 0
2021-11-28 12:15:14 GMT 49.360455 14.613117 31,000 108 450 0
2021-11-28 12:15:10 GMT 49.363155 14.600830 31,000 108 450 0
2021-11-28 12:15:07 GMT 49.365528 14.590133 31,000 108 450 0
2021-11-28 12:15:04 GMT 49.367569 14.581041 31,000 108 450 0
2021-11-28 12:15:00 GMT 49.369720 14.571196 31,000 108 450 64
2021-11-28 12:14:57 GMT 49.371735 14.562096 31,000 108 450 64
2021-11-28 12:14:54 GMT 49.373978 14.551955 31,000 108 450 64
2021-11-28 12:14:51 GMT 49.375946 14.542941 30,975 108 451 0
2021-11-28 12:14:48 GMT 49.380333 14.523203 30,975 108 451 0
2021-11-28 12:14:45 GMT 49.380333 14.523203 30,975 108 451 0
2021-11-28 12:14:42 GMT 49.381962 14.515758 30,975 108 451 0
2021-11-28 12:14:38 GMT 49.385406 14.500218 31,000 108 451 0
2021-11-28 12:14:34 GMT 49.387363 14.491400 31,000 108 452 0
2021-11-28 12:14:31 GMT 49.389271 14.482727 31,000 108 452 0
2021-11-28 12:14:28 GMT 49.393181 14.464874 31,000 108 452 0
2021-11-28 12:14:25 GMT 49.393181 14.464874 31,000 108 452 0
2021-11-28 12:14:22 GMT 49.395218 14.455543 31,000 108 453 0
2021-11-28 12:14:19 GMT 49.397606 14.444564 31,000 108 453 0
2021-11-28 12:14:16 GMT 49.399048 14.437914 31,000 108 453 -64
2021-11-28 12:14:13 GMT 49.401188 14.428157 31,000 108 454 -128
2021-11-28 12:14:10 GMT 49.403137 14.419133 31,000 108 454 -128
2021-11-28 12:14:07 GMT 49.405975 14.406034 31,000 108 455 -64
2021-11-28 12:14:04 GMT 49.406754 14.402442 31,000 108 454 -64
2021-11-28 12:14:01 GMT 49.409008 14.391873 31,000 108 457 128
2021-11-28 12:13:58 GMT 49.413292 14.371996 31,000 108 457 128
2021-11-28 12:13:55 GMT 49.413292 14.371996 31,000 108 457 128
2021-11-28 12:13:51 GMT 49.415852 14.360070 30,975 108 458 64
2021-11-28 12:13:48 GMT 49.417877 14.350821 30,975 108 458 0
2021-11-28 12:13:45 GMT 49.420303 14.339623 31,000 108 458 0
2021-11-28 12:13:42 GMT 49.421265 14.335116 31,000 108 458 0
2021-11-28 12:13:39 GMT 49.424000 14.322703 31,000 108 458 0
2021-11-28 12:13:36 GMT 49.425907 14.314029 31,000 108 458 64
2021-11-28 12:13:33 GMT 49.427910 14.304793 31,000 108 458 64
2021-11-28 12:13:29 GMT 49.430656 14.292248 30,975 108 458 64
2021-11-28 12:13:26 GMT 49.432755 14.282588 31,000 108 458 0
2021-11-28 12:13:22 GMT 49.434658 14.273838 31,000 108 458 0
2021-11-28 12:13:19 GMT 49.439175 14.253202 30,975 108 458 0
2021-11-28 12:13:16 GMT 49.439175 14.253202 31,000 108 458 0
2021-11-28 12:13:13 GMT 49.441177 14.243991 31,000 108 457 0
2021-11-28 12:13:10 GMT 49.445480 14.224042 31,000 108 457 0
2021-11-28 12:13:07 GMT 49.445480 14.224042 31,000 108 456 0
2021-11-28 12:13:04 GMT 49.447815 14.213345 31,000 108 456 64
2021-11-28 12:13:00 GMT 49.452209 14.193074 30,975 108 455 -64
2021-11-28 12:12:57 GMT 49.452209 14.193074 31,000 108 456 64
2021-11-28 12:12:54 GMT 49.453934 14.185205 31,000 108 455 -64
2021-11-28 12:12:51 GMT 49.455963 14.175688 31,000 108 455 -64
2021-11-28 12:12:48 GMT 49.457886 14.166798 31,000 108 455 0
2021-11-28 12:12:45 GMT 49.460495 14.154845 31,000 108 455 0
2021-11-28 12:12:42 GMT 49.461845 14.148683 31,000 108 455 0
2021-11-28 12:12:39 GMT 49.463615 14.140444 31,000 108 455 0
2021-11-28 12:12:36 GMT 49.466129 14.128789 31,000 108 455 0
2021-11-28 12:12:33 GMT 49.468410 14.118174 31,000 108 455 0
2021-11-28 12:12:30 GMT 49.469742 14.111938 31,000 108 456 -64
2021-11-28 12:12:27 GMT 49.472462 14.099393 31,000 108 456 -128
2021-11-28 12:12:24 GMT 49.473717 14.093529 31,000 108 456 -128
2021-11-28 12:12:21 GMT 49.475487 14.085215 31,000 108 456 -64
2021-11-28 12:12:17 GMT 49.478210 14.072474 31,025 108 455 0
2021-11-28 12:12:14 GMT 49.480560 14.061683 31,000 108 457 0
2021-11-28 12:12:11 GMT 49.482281 14.053592 30,975 108 456 64
2021-11-28 12:12:08 GMT 49.484344 14.043852 31,000 108 457 0
2021-11-28 12:12:05 GMT 49.487076 14.031026 31,000 108 457 0
2021-11-28 12:12:02 GMT 49.488380 14.024864 31,000 108 458 0
2021-11-28 12:11:58 GMT 49.492012 14.007865 31,000 108 458 0
2021-11-28 12:11:55 GMT 49.493317 14.001786 31,000 108 459 64
2021-11-28 12:11:52 GMT 49.494572 13.995765 31,000 108 459 128
2021-11-28 12:11:49 GMT 49.497482 13.982199 31,000 108 459 64
2021-11-28 12:11:46 GMT 49.498901 13.975500 30,975 108 459 -64
2021-11-28 12:11:43 GMT 49.500156 13.969562 31,000 108 459 64
2021-11-28 12:11:40 GMT 49.502487 13.958872 31,000 108 460 0
2021-11-28 12:11:37 GMT 49.505173 13.946204 31,000 108 459 0
2021-11-28 12:11:34 GMT 49.506489 13.940092 31,000 108 459 64
2021-11-28 12:11:31 GMT 49.508492 13.930664 30,975 108 459 64
2021-11-28 12:11:28 GMT 49.510773 13.920197 31,000 108 458 0
2021-11-28 12:11:25 GMT 49.512726 13.911004 30,975 108 458 0
2021-11-28 12:11:22 GMT 49.514694 13.901825 31,000 108 458 0
2021-11-28 12:11:19 GMT 49.516731 13.892138 30,975 108 458 0
2021-11-28 12:11:16 GMT 49.518127 13.885605 31,000 108 457 -64
2021-11-28 12:11:13 GMT 49.520782 13.873134 31,000 108 457 64
2021-11-28 12:11:10 GMT 49.522736 13.864004 31,000 108 457 64
2021-11-28 12:11:06 GMT 49.525406 13.851375 30,975 108 457 0
2021-11-28 12:11:02 GMT 49.528091 13.838839 31,000 107 456 0
2021-11-28 12:10:59 GMT 49.532135 13.819717 31,000 107 456 0
2021-11-28 12:10:55 GMT 49.532135 13.819717 31,000 108 456 -64
2021-11-28 12:10:52 GMT 49.534195 13.809959 31,000 107 457 0
2021-11-28 12:10:49 GMT 49.535770 13.802391 31,000 108 456 -64
2021-11-28 12:10:46 GMT 49.538132 13.791456 31,000 107 457 0
2021-11-28 12:10:43 GMT 49.540192 13.781626 31,000 108 457 0
2021-11-28 12:10:40 GMT 49.542149 13.772476 30,975 108 457 0
2021-11-28 12:10:37 GMT 49.544037 13.763412 31,000 108 457 0
2021-11-28 12:10:34 GMT 49.546005 13.754232 31,000 107 458 64
2021-11-28 12:10:31 GMT 49.548706 13.741439 31,000 107 458 64
2021-11-28 12:10:28 GMT 49.549988 13.735440 31,000 107 458 64
2021-11-28 12:10:25 GMT 49.552483 13.723483 31,000 108 458 64
2021-11-28 12:10:22 GMT 49.553787 13.717321 31,000 108 458 64
2021-11-28 12:10:19 GMT 49.555847 13.707613 30,975 108 458 0
2021-11-28 12:10:16 GMT 49.559883 13.688742 30,975 108 458 -64
2021-11-28 12:10:13 GMT 49.559883 13.688742 31,000 108 457 -128
2021-11-28 12:10:10 GMT 49.562214 13.677607 31,000 108 457 -128
2021-11-28 12:10:06 GMT 49.564213 13.668328 31,000 108 457 -128
2021-11-28 12:10:03 GMT 49.566261 13.658604 31,025 108 457 -128
2021-11-28 12:10:00 GMT 49.567978 13.650657 31,025 108 457 -64
2021-11-28 12:09:57 GMT 49.570080 13.640566 31,000 108 457 64
2021-11-28 12:09:54 GMT 49.572144 13.630853 31,000 107 458 64
2021-11-28 12:09:51 GMT 49.576584 13.609748 31,000 107 459 64
2021-11-28 12:09:48 GMT 49.576584 13.609748 30,975 107 459 0
2021-11-28 12:09:45 GMT 49.580135 13.592909 31,000 107 461 -64
2021-11-28 12:09:42 GMT 49.582123 13.583438 31,000 107 460 0
2021-11-28 12:09:39 GMT 49.584000 13.574331 31,000 107 461 -64
2021-11-28 12:09:36 GMT 49.584000 13.574331 31,000 107 461 -64
2021-11-28 12:09:33 GMT 49.585907 13.565220 31,000 107 461 0
2021-11-28 12:09:30 GMT 49.587982 13.555467 31,000 107 461 0
2021-11-28 12:09:27 GMT 49.589951 13.545998 31,000 107 461 0
2021-11-28 12:09:24 GMT 49.592239 13.535156 31,000 107 462 0
2021-11-28 12:09:21 GMT 49.594521 13.524244 31,000 107 462 0
2021-11-28 12:09:18 GMT 49.595810 13.518171 31,000 107 462 0
2021-11-28 12:09:15 GMT 49.597641 13.509281 31,000 107 463 64
2021-11-28 12:09:12 GMT 49.599747 13.499306 31,000 107 463 64
2021-11-28 12:09:08 GMT 49.602539 13.485935 31,000 107 463 64
2021-11-28 12:09:05 GMT 49.604507 13.476394 31,000 107 462 64
2021-11-28 12:09:02 GMT 49.606339 13.467648 31,000 107 462 64
2021-11-28 12:08:58 GMT 49.609406 13.452976 31,000 107 462 64
2021-11-28 12:08:55 GMT 49.610672 13.446894 30,975 107 462 64
2021-11-28 12:08:52 GMT 49.612629 13.437467 31,000 107 462 0
2021-11-28 12:08:49 GMT 49.614769 13.427149 30,975 107 460 0
2021-11-28 12:08:46 GMT 49.617096 13.416014 30,975 107 462 64
2021-11-28 12:08:42 GMT 49.619427 13.404879 30,975 107 459 -64
2021-11-28 12:08:37 GMT 49.622776 13.388697 31,000 107 459 -64
2021-11-28 12:08:33 GMT 49.625988 13.373034 31,000 107 458 -64
2021-11-28 12:08:30 GMT 49.627197 13.367095 31,000 107 458 -64
2021-11-28 12:08:27 GMT 49.629456 13.356412 31,000 107 457 0
2021-11-28 12:08:24 GMT 49.630829 13.349617 31,000 107 457 0
2021-11-28 12:08:21 GMT 49.633392 13.337254 31,000 107 456 0
2021-11-28 12:08:18 GMT 49.634903 13.330174 31,000 107 456 0
2021-11-28 12:08:14 GMT 49.639160 13.309647 31,000 107 456 64
2021-11-28 12:08:11 GMT 49.639160 13.309647 30,975 107 456 64
2021-11-28 12:08:08 GMT 49.641357 13.299095 31,000 107 456 0
2021-11-28 12:08:05 GMT 49.643166 13.290414 30,975 107 456 0
2021-11-28 12:08:02 GMT 49.645752 13.277989 31,000 107 456 64
2021-11-28 12:07:59 GMT 49.647034 13.271918 31,000 107 456 0
2021-11-28 12:07:56 GMT 49.649357 13.260647 30,975 107 456 0
2021-11-28 12:07:53 GMT 49.650707 13.254188 31,000 107 456 0
2021-11-28 12:07:50 GMT 49.652756 13.244308 31,000 107 456 -64
2021-11-28 12:07:47 GMT 49.654816 13.234622 31,000 107 456 -64
2021-11-28 12:07:44 GMT 49.656418 13.226816 31,000 107 456 -64
2021-11-28 12:07:41 GMT 49.658524 13.216770 31,000 107 455 -128
2021-11-28 12:07:38 GMT 49.660858 13.205418 31,025 107 455 -128
2021-11-28 12:07:35 GMT 49.662415 13.197977 31,025 107 455 -128
2021-11-28 12:07:32 GMT 49.664566 13.187569 31,025 107 455 0
2021-11-28 12:07:28 GMT 49.667187 13.174983 31,000 107 456 64
2021-11-28 12:07:25 GMT 49.668777 13.167187 31,000 107 457 64
2021-11-28 12:07:22 GMT 49.670727 13.157761 31,000 107 457 64
2021-11-28 12:07:19 GMT 49.672356 13.149892 31,000 107 457 64
2021-11-28 12:07:16 GMT 49.674866 13.137769 31,000 107 458 64
2021-11-28 12:07:13 GMT 49.676498 13.129776 31,000 107 458 0
2021-11-28 12:07:10 GMT 49.678360 13.120571 31,000 107 458 -64
2021-11-28 12:07:07 GMT 49.680222 13.111663 31,000 107 458 -64
2021-11-28 12:07:04 GMT 49.684845 13.088837 31,000 107 459 0
2021-11-28 12:07:01 GMT 49.684845 13.088837 31,000 107 459 0
2021-11-28 12:06:58 GMT 49.685760 13.084428 31,000 107 458 -64
2021-11-28 12:06:55 GMT 49.687950 13.073656 31,000 107 458 -64
2021-11-28 12:06:52 GMT 49.690201 13.062527 31,000 107 458 -64
2021-11-28 12:06:49 GMT 49.691536 13.055989 31,000 107 459 0
2021-11-28 12:06:46 GMT 49.693443 13.046562 31,000 107 459 0
2021-11-28 12:06:43 GMT 49.695351 13.037283 31,000 107 459 64
2021-11-28 12:06:40 GMT 49.697727 13.025554 31,000 107 459 64
2021-11-28 12:06:37 GMT 49.700089 13.013956 30,975 107 460 0
2021-11-28 12:06:34 GMT 49.701962 13.004621 31,000 107 460 64
2021-11-28 12:06:31 GMT 49.703312 12.998088 30,975 107 460 0
2021-11-28 12:06:27 GMT 49.705582 12.986852 30,975 107 460 0
2021-11-28 12:06:24 GMT 49.707870 12.975649 30,975 107 460 0
2021-11-28 12:06:21 GMT 49.709366 12.968321 31,000 107 459 64
2021-11-28 12:06:18 GMT 49.711899 12.955844 31,000 107 458 64
2021-11-28 12:06:15 GMT 49.712952 12.950785 31,000 107 452 0
2021-11-28 12:06:12 GMT 49.715462 12.938406 30,975 107 457 0
2021-11-28 12:06:09 GMT 49.716934 12.931270 30,975 107 456 -64
2021-11-28 12:06:06 GMT 49.719131 12.920572 30,975 107 456 -64
2021-11-28 12:06:03 GMT 49.720909 12.911979 31,000 107 452 0
2021-11-28 12:06:00 GMT 49.722748 12.903009 30,975 107 454 0
2021-11-28 12:05:57 GMT 49.725357 12.890215 31,000 107 454 0
2021-11-28 12:05:54 GMT 49.726685 12.883855 31,000 107 453 128
2021-11-28 12:05:51 GMT 49.728607 12.874242 31,000 107 453 128
2021-11-28 12:05:48 GMT 49.732178 12.856895 30,975 107 453 64
2021-11-28 12:05:45 GMT 49.732178 12.856895 30,975 107 453 0
2021-11-28 12:05:42 GMT 49.734421 12.845547 30,975 107 453 0
2021-11-28 12:05:39 GMT 49.735481 12.840271 31,000 107 452 -64
2021-11-28 12:05:36 GMT 49.737625 12.829646 31,000 107 453 -64
2021-11-28 12:05:33 GMT 49.739574 12.819783 31,000 107 452 -64
2021-11-28 12:05:30 GMT 49.744034 12.797482 31,000 107 452 -64
2021-11-28 12:05:26 GMT 49.744034 12.797482 31,000 107 452 0
2021-11-28 12:05:23 GMT 49.746468 12.785339 31,000 107 452 0
2021-11-28 12:05:19 GMT 49.748283 12.776357 31,000 107 453 0
2021-11-28 12:05:16 GMT 49.749802 12.768571 31,000 107 453 0
2021-11-28 12:05:13 GMT 49.752331 12.756018 31,000 107 453 -64
2021-11-28 12:05:10 GMT 49.753647 12.749706 31,000 107 454 -64
2021-11-28 12:05:07 GMT 49.755753 12.739226 31,000 107 455 0
2021-11-28 12:05:04 GMT 49.757629 12.729974 31,000 107 456 0
2021-11-28 12:05:01 GMT 49.759548 12.720683 31,000 107 456 0
2021-11-28 12:04:58 GMT 49.761734 12.710068 31,000 107 456 0
2021-11-28 12:04:55 GMT 49.763077 12.703592 31,000 107 456 0
2021-11-28 12:04:52 GMT 49.765411 12.692317 31,000 107 457 0
2021-11-28 12:04:49 GMT 49.767834 12.680524 31,000 107 459 64
2021-11-28 12:04:46 GMT 49.769508 12.672433 31,000 107 459 64
2021-11-28 12:04:43 GMT 49.771225 12.664273 31,000 107 459 64
2021-11-28 12:04:40 GMT 49.772907 12.656027 31,000 107 459 -64
2021-11-28 12:04:37 GMT 49.775528 12.643312 31,000 107 459 -64
2021-11-28 12:04:34 GMT 49.777039 12.636084 31,000 107 459 0
2021-11-28 12:04:31 GMT 49.779190 12.625676 31,000 107 459 -64
2021-11-28 12:04:28 GMT 49.781242 12.615794 31,000 107 459 -128
2021-11-28 12:04:24 GMT 49.783939 12.602803 31,000 107 459 0
2021-11-28 12:04:21 GMT 49.785107 12.597013 31,000 107 459 64
2021-11-28 12:04:18 GMT 49.787201 12.586863 31,000 107 460 64
2021-11-28 12:04:15 GMT 49.789673 12.574720 31,000 107 460 64
2021-11-28 12:04:12 GMT 49.791576 12.565464 31,000 107 460 64
2021-11-28 12:04:09 GMT 49.792786 12.559303 30,975 107 461 64
2021-11-28 12:04:06 GMT 49.794846 12.549350 30,975 107 461 0
2021-11-28 12:04:03 GMT 49.796722 12.539954 30,975 106 460 -64
2021-11-28 12:04:00 GMT 49.798874 12.529329 31,000 106 461 -64
2021-11-28 12:03:57 GMT 49.800373 12.521890 31,000 104 459 0
2021-11-28 12:03:53 GMT 49.802887 12.508825 31,000 104 459 0
2021-11-28 12:03:50 GMT 49.805122 12.496726 31,000 105 460 64
2021-11-28 12:03:46 GMT 49.806751 12.487669 31,000 104 460 64
2021-11-28 12:03:43 GMT 49.808716 12.476349 31,000 104 459 64
2021-11-28 12:03:40 GMT 49.812057 12.456566 30,975 104 459 0
2021-11-28 12:03:37 GMT 49.812057 12.456566 31,000 104 459 0
2021-11-28 12:03:33 GMT 49.813782 12.446322 31,000 104 459 -64
2021-11-28 12:03:30 GMT 49.815491 12.436307 31,000 104 459 0
2021-11-28 12:03:27 GMT 49.817642 12.423369 31,000 104 458 64
2021-11-28 12:03:23 GMT 49.819740 12.411136 31,000 104 459 -64
2021-11-28 12:03:20 GMT 49.821533 12.400240 31,000 104 458 -64
2021-11-28 12:03:17 GMT 49.822346 12.395473 31,000 104 458 0
2021-11-28 12:03:13 GMT 49.825012 12.379713 31,000 104 458 64
2021-11-28 12:03:10 GMT 49.828354 12.359475 30,975 104 457 64
2021-11-28 12:03:07 GMT 49.828354 12.359475 30,975 104 458 64
2021-11-28 12:03:04 GMT 49.830261 12.348039 30,975 104 457 0
2021-11-28 12:03:01 GMT 49.831055 12.343284 30,975 104 457 0
2021-11-28 12:02:58 GMT 49.832611 12.333888 30,975 104 457 0
2021-11-28 12:02:55 GMT 49.834122 12.324709 30,975 104 457 0
2021-11-28 12:02:52 GMT 49.835678 12.315168 31,000 104 456 0
2021-11-28 12:02:49 GMT 49.837475 12.304391 31,000 104 456 0
2021-11-28 12:02:45 GMT 49.839710 12.291103 31,000 104 455 0
2021-11-28 12:02:42 GMT 49.841061 12.282938 31,000 104 455 0
2021-11-28 12:02:39 GMT 49.842682 12.273319 31,000 104 454 0
2021-11-28 12:02:36 GMT 49.844513 12.262477 31,000 104 454 0
2021-11-28 12:02:33 GMT 49.846134 12.252948 31,000 104 454 0
2021-11-28 12:02:30 GMT 49.847488 12.245058 31,000 104 454 0
2021-11-28 12:02:27 GMT 49.848835 12.237062 31,000 104 454 -64
2021-11-28 12:02:24 GMT 49.852421 12.215312 31,000 104 455 -64
2021-11-28 12:02:21 GMT 49.852421 12.215312 31,000 104 454 0
2021-11-28 12:02:18 GMT 49.854309 12.204365 31,000 104 455 0
2021-11-28 12:02:15 GMT 49.855446 12.197571 31,000 104 455 0
2021-11-28 12:02:12 GMT 49.857029 12.188218 31,000 104 455 0
2021-11-28 12:02:08 GMT 49.858978 12.176899 31,000 104 455 0
2021-11-28 12:02:05 GMT 49.860809 12.166274 31,000 104 456 0
2021-11-28 12:02:02 GMT 49.862659 12.155407 31,000 104 456 -64
2021-11-28 12:01:59 GMT 49.864384 12.145237 31,000 104 456 0
2021-11-28 12:01:55 GMT 49.866478 12.132915 31,000 104 456 0
2021-11-28 12:01:51 GMT 49.868042 12.123702 31,000 104 457 -64
2021-11-28 12:01:48 GMT 49.869873 12.112716 31,000 104 458 -64
2021-11-28 12:01:45 GMT 49.873306 12.092333 31,000 104 458 64
2021-11-28 12:01:42 GMT 49.873306 12.092333 31,000 104 459 64
2021-11-28 12:01:39 GMT 49.874531 12.085035 31,000 104 460 64
2021-11-28 12:01:36 GMT 49.876160 12.075162 31,000 104 460 64
2021-11-28 12:01:32 GMT 49.878860 12.058906 30,975 104 461 64
2021-11-28 12:01:29 GMT 49.880211 12.050592 30,975 104 461 0
2021-11-28 12:01:25 GMT 49.884384 12.025331 31,000 104 461 -128
2021-11-28 12:01:21 GMT 49.884384 12.025331 31,000 104 461 0
2021-11-28 12:01:18 GMT 49.885712 12.017236 31,000 104 461 0
2021-11-28 12:01:15 GMT 49.887955 12.003503 31,000 104 461 -64
2021-11-28 12:01:10 GMT 49.890312 11.989127 31,000 104 461 -64
2021-11-28 12:01:07 GMT 49.891289 11.983189 31,000 104 461 -64
2021-11-28 12:01:04 GMT 49.892944 11.973218 31,000 104 465 64
2021-11-28 12:01:01 GMT 49.894550 11.963517 31,000 104 461 -128
2021-11-28 12:00:58 GMT 49.896317 11.952828 31,000 104 461 0
2021-11-28 12:00:55 GMT 49.897713 11.944588 31,000 104 462 0
2021-11-28 12:00:52 GMT 49.899857 11.931746 31,000 104 461 0
2021-11-28 12:00:49 GMT 49.900925 11.925140 31,000 104 464 64
2021-11-28 12:00:46 GMT 49.904572 11.903397 31,000 104 462 0
2021-11-28 12:00:43 GMT 49.906219 11.893568 31,000 104 463 64
2021-11-28 12:00:40 GMT 49.906219 11.893568 30,975 104 464 64
2021-11-28 12:00:37 GMT 49.907581 11.885203 30,975 104 465 0
2021-11-28 12:00:34 GMT 49.908703 11.878373 31,000 104 465 0
2021-11-28 12:00:31 GMT 49.910614 11.866680 30,975 104 465 0
2021-11-28 12:00:28 GMT 49.912079 11.857645 31,000 104 463 0
2021-11-28 12:00:25 GMT 49.914009 11.846083 31,000 104 464 0
2021-11-28 12:00:22 GMT 49.915329 11.837913 31,000 104 464 0
2021-11-28 12:00:18 GMT 49.917389 11.825048 31,000 104 464 0
2021-11-28 12:00:15 GMT 49.919083 11.814534 31,000 104 464 0
2021-11-28 12:00:12 GMT 49.920502 11.805821 30,975 104 464 0
2021-11-28 12:00:09 GMT 49.922104 11.795992 31,000 103 464 0
2021-11-28 12:00:06 GMT 49.923660 11.786306 31,000 103 464 0
2021-11-28 12:00:03 GMT 49.926857 11.766357 31,000 103 464 0
2021-11-28 12:00:00 GMT 49.926857 11.766357 31,000 103 464 0
2021-11-28 11:59:57 GMT 49.928623 11.755445 31,000 103 465 0
2021-11-28 11:59:54 GMT 49.930115 11.745975 31,000 103 465 -64
2021-11-28 11:59:51 GMT 49.931442 11.737518 31,000 103 465 -64
2021-11-28 11:59:48 GMT 49.933044 11.727616 31,000 103 465 0
2021-11-28 11:59:45 GMT 49.936028 11.708828 31,000 103 465 64
2021-11-28 11:59:42 GMT 49.936028 11.708828 31,000 103 465 64
2021-11-28 11:59:39 GMT 49.938213 11.695317 30,975 103 465 64
2021-11-28 11:59:36 GMT 49.939178 11.689092 30,975 103 465 64
2021-11-28 11:59:33 GMT 49.941193 11.676685 31,000 104 463 64
2021-11-28 11:59:30 GMT 49.942383 11.669215 30,975 104 466 -64
2021-11-28 11:59:27 GMT 49.943710 11.660831 30,975 104 466 -64
2021-11-28 11:59:24 GMT 49.945312 11.651146 31,000 104 466 0
2021-11-28 11:59:21 GMT 49.946960 11.640954 31,000 104 464 -64
2021-11-28 11:59:18 GMT 49.948929 11.628884 31,000 104 464 0
2021-11-28 11:59:15 GMT 49.952133 11.609060 31,000 104 464 0
2021-11-28 11:59:12 GMT 49.952133 11.609060 31,000 104 463 64
2021-11-28 11:59:09 GMT 49.953506 11.600261 30,975 104 463 64
2021-11-28 11:59:06 GMT 49.954651 11.593250 30,975 104 464 0
2021-11-28 11:59:03 GMT 49.956253 11.583565 30,975 104 464 0
2021-11-28 11:59:00 GMT 49.958046 11.572464 31,000 103 465 -64
2021-11-28 11:58:57 GMT 49.959641 11.562677 30,975 104 464 0
2021-11-28 11:58:54 GMT 49.963028 11.542028 31,000 104 464 0
2021-11-28 11:58:51 GMT 49.963028 11.542028 31,000 104 463 0
2021-11-28 11:58:48 GMT 49.964890 11.530597 31,000 104 463 64
2021-11-28 11:58:45 GMT 49.965958 11.524080 31,000 104 463 0
2021-11-28 11:58:42 GMT 49.968056 11.511000 31,000 103 463 64
2021-11-28 11:58:39 GMT 49.969032 11.504987 31,000 104 463 0
2021-11-28 11:58:36 GMT 49.971081 11.492367 31,000 103 461 64
2021-11-28 11:58:33 GMT 49.972092 11.486206 31,000 104 462 -64
2021-11-28 11:58:30 GMT 49.973740 11.476015 31,000 104 462 0
2021-11-28 11:58:27 GMT 49.975037 11.467871 31,000 104 462 -64
2021-11-28 11:58:24 GMT 49.976387 11.459557 31,000 104 462 -64
2021-11-28 11:58:21 GMT 49.978683 11.445369 31,000 104 462 -64
2021-11-28 11:58:18 GMT 49.980286 11.435250 31,000 104 462 -64
2021-11-28 11:58:15 GMT 49.981834 11.425633 31,000 103 463 64
2021-11-28 11:58:12 GMT 49.982895 11.418843 31,000 104 462 -64
2021-11-28 11:58:09 GMT 49.984406 11.409663 31,000 103 463 64
2021-11-28 11:58:06 GMT 49.988022 11.386968 31,000 103 464 0
2021-11-28 11:58:03 GMT 49.988022 11.386968 31,000 103 463 64
2021-11-28 11:57:59 GMT 49.990128 11.373524 31,000 103 464 64
2021-11-28 11:57:55 GMT 49.991638 11.363911 31,000 103 465 0
2021-11-28 11:57:52 GMT 49.993008 11.355484 31,000 103 465 0
2021-11-28 11:57:49 GMT 49.994961 11.343161 31,000 103 465 0
2021-11-28 11:57:46 GMT 49.996490 11.333554 31,000 103 465 -64
2021-11-28 11:57:43 GMT 49.998127 11.323341 31,000 103 465 -64
2021-11-28 11:57:40 GMT 49.999512 11.314689 31,000 103 465 -64
2021-11-28 11:57:37 GMT 50.000931 11.305654 31,000 103 466 0
2021-11-28 11:57:34 GMT 50.002411 11.296247 31,000 103 466 -64
2021-11-28 11:57:31 GMT 50.003998 11.286356 31,000 103 466 0
2021-11-28 11:57:28 GMT 50.005577 11.276427 31,000 103 466 0
2021-11-28 11:57:25 GMT 50.007294 11.265540 31,000 103 467 64
2021-11-28 11:57:22 GMT 50.008789 11.256235 30,975 103 467 64
2021-11-28 11:57:19 GMT 50.010635 11.244579 30,975 103 467 64
2021-11-28 11:57:15 GMT 50.012138 11.234931 30,975 103 461 64
2021-11-28 11:57:12 GMT 50.013767 11.224538 30,975 103 467 64
2021-11-28 11:57:09 GMT 50.017273 11.202224 30,975 103 467 64
2021-11-28 11:57:06 GMT 50.017273 11.202224 31,000 103 467 64
2021-11-28 11:57:03 GMT 50.018326 11.195574 30,975 103 466 64
2021-11-28 11:57:00 GMT 50.019634 11.187200 30,975 103 466 0
2021-11-28 11:56:57 GMT 50.021358 11.176436 30,975 103 465 0
2021-11-28 11:56:54 GMT 50.023357 11.163742 30,975 103 464 0
2021-11-28 11:56:51 GMT 50.024570 11.155725 30,975 103 465 0
2021-11-28 11:56:48 GMT 50.025879 11.147581 31,000 103 464 -64
2021-11-28 11:56:45 GMT 50.027920 11.134495 31,000 103 463 0
2021-11-28 11:56:42 GMT 50.028805 11.128779 31,000 103 463 0
2021-11-28 11:56:39 GMT 50.031143 11.113683 31,000 103 459 0
2021-11-28 11:56:36 GMT 50.032158 11.107252 31,000 103 460 64
2021-11-28 11:56:33 GMT 50.033691 11.097602 30,975 103 459 64
2021-11-28 11:56:30 GMT 50.035137 11.088323 30,975 103 460 64
2021-11-28 11:56:27 GMT 50.038101 11.069159 31,000 103 459 0
2021-11-28 11:56:24 GMT 50.039654 11.059150 30,975 103 459 0
2021-11-28 11:56:21 GMT 50.039654 11.059150 30,975 103 459 0
2021-11-28 11:56:18 GMT 50.040955 11.050910 30,975 103 458 -64
2021-11-28 11:56:15 GMT 50.042999 11.037429 30,975 103 458 -64
2021-11-28 11:56:12 GMT 50.044098 11.030346 31,000 103 458 -64
2021-11-28 11:56:09 GMT 50.045654 11.020299 31,000 103 457 -64
2021-11-28 11:56:05 GMT 50.047943 11.005626 31,000 103 457 0
2021-11-28 11:56:02 GMT 50.049637 10.994857 31,000 103 457 0
2021-11-28 11:55:59 GMT 50.050140 10.991460 31,000 103 457 0
2021-11-28 11:55:56 GMT 50.052082 10.978905 31,000 103 457 0
2021-11-28 11:55:53 GMT 50.053848 10.967391 31,000 103 457 0
2021-11-28 11:55:50 GMT 50.055359 10.957850 31,000 103 457 0
2021-11-28 11:55:47 GMT 50.056320 10.951490 31,000 103 457 0
2021-11-28 11:55:44 GMT 50.058132 10.939710 31,000 103 457 0
2021-11-28 11:55:40 GMT 50.060089 10.927314 31,000 103 457 0
2021-11-28 11:55:37 GMT 50.061539 10.917953 31,000 103 458 0
2021-11-28 11:55:33 GMT 50.065117 10.895023 31,000 103 458 -64
2021-11-28 11:55:30 GMT 50.065117 10.895023 31,000 103 458 -64
2021-11-28 11:55:27 GMT 50.066254 10.887740 31,000 103 458 0
2021-11-28 11:55:24 GMT 50.068233 10.874832 31,000 103 459 -64
2021-11-28 11:55:20 GMT 50.069771 10.864810 31,000 103 459 -64
2021-11-28 11:55:18 GMT 50.070557 10.859985 31,000 103 459 -64
2021-11-28 11:55:15 GMT 50.072426 10.847811 31,000 103 459 0
2021-11-28 11:55:12 GMT 50.074081 10.837001 31,000 103 459 0
2021-11-28 11:55:09 GMT 50.075546 10.827388 31,000 103 460 0
2021-11-28 11:55:06 GMT 50.077148 10.817124 31,000 103 460 -64
2021-11-28 11:55:03 GMT 50.078384 10.808988 31,000 103 461 64
2021-11-28 11:55:00 GMT 50.079758 10.800139 31,000 103 461 64
2021-11-28 11:54:57 GMT 50.081497 10.788574 31,000 103 461 64
2021-11-28 11:54:53 GMT 50.083317 10.776846 31,000 103 462 0
2021-11-28 11:54:50 GMT 50.084656 10.768264 31,000 103 462 0
2021-11-28 11:54:47 GMT 50.086205 10.758065 31,000 103 462 0
2021-11-28 11:54:44 GMT 50.087677 10.748460 31,000 103 462 64
2021-11-28 11:54:41 GMT 50.089649 10.735721 30,975 103 462 64
2021-11-28 11:54:38 GMT 50.090881 10.727571 30,975 103 463 0
2021-11-28 11:54:35 GMT 50.091839 10.721246 31,000 103 463 64
2021-11-28 11:54:32 GMT 50.093536 10.710152 30,975 103 462 0
2021-11-28 11:54:29 GMT 50.095322 10.698371 30,975 103 462 64
2021-11-28 11:54:26 GMT 50.096558 10.690492 30,975 103 462 64
2021-11-28 11:54:23 GMT 50.099426 10.671510 31,000 103 462 0
2021-11-28 11:54:20 GMT 50.099426 10.671510 31,000 103 461 -64
2021-11-28 11:54:17 GMT 50.100868 10.661860 30,975 103 461 -64
2021-11-28 11:54:14 GMT 50.102871 10.648647 31,000 103 460 -64
2021-11-28 11:54:10 GMT 50.104385 10.638669 31,000 103 459 0
2021-11-28 11:54:08 GMT 50.105347 10.632236 31,000 103 458 0
2021-11-28 11:54:05 GMT 50.107014 10.621181 31,000 102 458 0
2021-11-28 11:54:02 GMT 50.108688 10.609685 31,000 102 459 0
2021-11-28 11:53:59 GMT 50.110645 10.596536 31,000 102 459 -64
2021-11-28 11:53:56 GMT 50.110645 10.596536 31,000 102 459 -64
2021-11-28 11:53:53 GMT 50.112740 10.582358 31,000 102 460 128
2021-11-28 11:53:50 GMT 50.115784 10.561548 31,000 102 459 -64
2021-11-28 11:53:47 GMT 50.115784 10.561548 31,000 102 459 64
2021-11-28 11:53:44 GMT 50.116508 10.556377 31,000 102 460 192
2021-11-28 11:53:41 GMT 50.118439 10.543333 30,975 102 460 128
2021-11-28 11:53:38 GMT 50.119396 10.536705 30,975 102 461 0
2021-11-28 11:53:35 GMT 50.122471 10.515920 30,975 102 462 -128
2021-11-28 11:53:32 GMT 50.122471 10.515920 31,000 103 461 -64
2021-11-28 11:53:29 GMT 50.125076 10.498105 31,000 103 461 -64
2021-11-28 11:53:26 GMT 50.125076 10.498105 31,000 103 461 -64
2021-11-28 11:53:23 GMT 50.126633 10.487607 31,000 103 461 0
2021-11-28 11:53:20 GMT 50.128197 10.477097 31,000 103 462 0
2021-11-28 11:53:18 GMT 50.129196 10.470549 31,000 104 462 64
2021-11-28 11:53:15 GMT 50.130615 10.461008 31,000 103 461 0
2021-11-28 11:53:12 GMT 50.134048 10.438602 31,000 103 461 64
2021-11-28 11:53:09 GMT 50.134048 10.438602 30,975 103 462 0
2021-11-28 11:53:06 GMT 50.134781 10.433831 30,975 103 462 -64
2021-11-28 11:53:03 GMT 50.136528 10.422908 31,000 104 462 -64
2021-11-28 11:53:00 GMT 50.138306 10.411714 31,000 104 462 0
2021-11-28 11:52:58 GMT 50.139133 10.406502 31,000 104 462 0
2021-11-28 11:52:55 GMT 50.140530 10.397966 31,000 104 462 64
2021-11-28 11:52:52 GMT 50.142197 10.387790 31,000 104 462 64
2021-11-28 11:52:49 GMT 50.143982 10.377527 31,000 105 462 64
2021-11-28 11:52:46 GMT 50.145447 10.369359 31,000 106 462 64
2021-11-28 11:52:43 GMT 50.147278 10.359385 31,000 106 462 64
2021-11-28 11:52:40 GMT 50.149200 10.349193 30,975 106 462 0
2021-11-28 11:52:37 GMT 50.151611 10.336650 30,975 106 462 -64
2021-11-28 11:52:34 GMT 50.152821 10.330192 31,000 106 461 -64
2021-11-28 11:52:31 GMT 50.155334 10.317276 31,000 106 462 -64
2021-11-28 11:52:28 GMT 50.156479 10.311103 31,000 106 461 -64
2021-11-28 11:52:25 GMT 50.157944 10.303658 31,000 106 460 0
2021-11-28 11:52:22 GMT 50.160175 10.292037 31,000 106 460 64
2021-11-28 11:52:19 GMT 50.162292 10.280890 31,000 106 460 64
2021-11-28 11:52:16 GMT 50.163849 10.273012 30,975 106 460 0
2021-11-28 11:52:13 GMT 50.165955 10.261953 30,975 106 460 0
2021-11-28 11:52:10 GMT 50.167419 10.254292 30,975 106 459 -64
2021-11-28 11:52:07 GMT 50.171448 10.233476 31,000 106 459 0
2021-11-28 11:52:04 GMT 50.173676 10.221888 31,000 106 459 -64
2021-11-28 11:52:01 GMT 50.173676 10.221888 31,000 106 459 -64
2021-11-28 11:51:58 GMT 50.174744 10.216346 31,000 106 458 0
2021-11-28 11:51:55 GMT 50.176609 10.206596 31,000 106 456 64
2021-11-28 11:51:52 GMT 50.178516 10.196649 31,000 106 457 64
2021-11-28 11:51:49 GMT 50.180328 10.187217 31,000 106 457 64
2021-11-28 11:51:46 GMT 50.182800 10.174379 30,975 106 457 0
2021-11-28 11:51:43 GMT 50.183964 10.168144 30,975 106 456 0
2021-11-28 11:51:40 GMT 50.185638 10.159318 30,975 106 457 -64
2021-11-28 11:51:37 GMT 50.187874 10.147656 31,000 106 456 -128
2021-11-28 11:51:34 GMT 50.189667 10.138140 31,000 106 456 64
2021-11-28 11:51:31 GMT 50.191132 10.130434 31,000 106 456 0
2021-11-28 11:51:28 GMT 50.193054 10.120215 31,000 106 456 64
2021-11-28 11:51:25 GMT 50.194576 10.112247 31,000 106 456 64
2021-11-28 11:51:22 GMT 50.196857 10.100147 31,000 106 456 64
2021-11-28 11:51:19 GMT 50.198860 10.089309 31,000 106 456 64
2021-11-28 11:51:16 GMT 50.200443 10.080847 30,975 106 456 64
2021-11-28 11:51:13 GMT 50.201935 10.073090 30,975 106 456 -128
2021-11-28 11:51:09 GMT 50.204498 10.059429 31,000 106 456 -128
2021-11-28 11:51:06 GMT 50.206329 10.049671 31,000 106 456 -64
2021-11-28 11:51:03 GMT 50.207752 10.041875 31,000 106 456 0
2021-11-28 11:50:59 GMT 50.210033 10.029849 31,000 106 456 64
2021-11-28 11:50:56 GMT 50.212360 10.017527 31,000 106 458 0
2021-11-28 11:50:53 GMT 50.213837 10.009557 31,000 106 458 -128
2021-11-28 11:50:49 GMT 50.215992 9.998078 31,000 106 458 -128
2021-11-28 11:50:46 GMT 50.218185 9.986645 31,000 106 458 -64
2021-11-28 11:50:43 GMT 50.219482 9.979594 30,975 106 458 64
2021-11-28 11:50:40 GMT 50.221344 9.969659 31,000 106 458 128
2021-11-28 11:50:37 GMT 50.223450 9.958600 31,000 106 459 128
2021-11-28 11:50:34 GMT 50.226933 9.940029 30,975 106 461 -64
2021-11-28 11:50:31 GMT 50.226933 9.940029 30,975 106 460 0
2021-11-28 11:50:28 GMT 50.228420 9.932012 30,975 106 461 0
2021-11-28 11:50:25 GMT 50.230701 9.919838 31,000 106 461 0
2021-11-28 11:50:20 GMT 50.233109 9.906849 31,000 106 461 64
2021-11-28 11:50:17 GMT 50.234612 9.898904 31,000 106 461 64
2021-11-28 11:50:15 GMT 50.236103 9.890962 31,000 106 461 64
2021-11-28 11:50:12 GMT 50.239689 9.871513 31,000 106 462 -64
2021-11-28 11:50:09 GMT 50.239689 9.871513 31,000 106 463 0
2021-11-28 11:50:06 GMT 50.241760 9.860374 31,000 106 461 0
2021-11-28 11:50:02 GMT 50.244110 9.847907 31,000 106 461 -64
2021-11-28 11:49:59 GMT 50.245514 9.840353 31,000 106 461 -64
2021-11-28 11:49:56 GMT 50.247391 9.830162 31,000 106 461 -64
2021-11-28 11:49:53 GMT 50.249229 9.820218 31,000 106 462 -64
2021-11-28 11:49:50 GMT 50.252426 9.802840 31,000 106 462 -64
2021-11-28 11:49:47 GMT 50.252426 9.802840 31,000 106 462 0
2021-11-28 11:49:44 GMT 50.254852 9.789758 31,000 106 462 -64
2021-11-28 11:49:41 GMT 50.256634 9.780207 31,000 106 462 -64
2021-11-28 11:49:38 GMT 50.258194 9.771616 31,000 106 463 0
2021-11-28 11:49:36 GMT 50.259338 9.765617 31,000 106 463 0
2021-11-28 11:49:33 GMT 50.261566 9.753558 31,000 106 463 0
2021-11-28 11:49:30 GMT 50.262863 9.746463 31,000 106 463 0
2021-11-28 11:49:27 GMT 50.264374 9.738368 31,000 106 464 64
2021-11-28 11:49:24 GMT 50.266525 9.727020 31,000 106 464 64
2021-11-28 11:49:21 GMT 50.270828 9.703819 30,975 106 464 0
2021-11-28 11:49:18 GMT 50.270828 9.703819 30,975 106 464 128
2021-11-28 11:49:14 GMT 50.272461 9.694766 30,975 106 464 0
2021-11-28 11:49:10 GMT 50.274857 9.681918 30,975 106 464 0
2021-11-28 11:49:07 GMT 50.277069 9.669973 30,975 106 463 0
2021-11-28 11:49:04 GMT 50.278519 9.662403 31,000 106 463 -128
2021-11-28 11:49:01 GMT 50.280487 9.651706 31,000 106 463 -64
2021-11-28 11:48:58 GMT 50.282330 9.641988 31,000 106 462 -64
2021-11-28 11:48:55 GMT 50.284149 9.632191 31,000 106 462 0
2021-11-28 11:48:52 GMT 50.285568 9.624385 31,000 106 461 0
2021-11-28 11:48:49 GMT 50.288086 9.610796 31,000 105 460 64
2021-11-28 11:48:46 GMT 50.289322 9.604147 31,000 106 461 -64
2021-11-28 11:48:43 GMT 50.290558 9.597570 31,000 106 461 0
2021-11-28 11:48:40 GMT 50.292664 9.586077 30,975 106 461 64
2021-11-28 11:48:37 GMT 50.296387 9.565900 31,000 106 461 64
2021-11-28 11:48:34 GMT 50.296387 9.565900 31,000 106 461 64
2021-11-28 11:48:31 GMT 50.298531 9.554245 31,000 106 461 64
2021-11-28 11:48:28 GMT 50.300018 9.546154 30,975 106 461 128
2021-11-28 11:48:25 GMT 50.301590 9.537651 30,975 106 461 128
2021-11-28 11:48:22 GMT 50.302811 9.531085 30,975 106 460 128
2021-11-28 11:48:19 GMT 50.305206 9.518063 30,975 106 460 128
2021-11-28 11:48:16 GMT 50.309284 9.496196 30,975 106 459 0
2021-11-28 11:48:13 GMT 50.309284 9.496196 30,975 106 459 0
2021-11-28 11:48:10 GMT 50.310974 9.486983 30,975 106 458 0
2021-11-28 11:48:07 GMT 50.312542 9.478529 30,975 106 457 -64
2021-11-28 11:48:04 GMT 50.314030 9.470512 31,000 105 454 64
2021-11-28 11:48:01 GMT 50.316032 9.459600 31,000 106 455 0
2021-11-28 11:47:56 GMT 50.318939 9.443905 31,000 105 454 64
2021-11-28 11:47:53 GMT 50.320312 9.436244 30,975 105 453 64
2021-11-28 11:47:50 GMT 50.321991 9.426938 30,975 105 453 0
2021-11-28 11:47:47 GMT 50.323792 9.417018 31,000 105 453 -64
2021-11-28 11:47:45 GMT 50.324661 9.412248 31,000 105 453 -128
2021-11-28 11:47:42 GMT 50.326355 9.402851 31,000 105 452 -64
2021-11-28 11:47:39 GMT 50.328091 9.393311 31,000 105 451 -64
2021-11-28 11:47:36 GMT 50.329559 9.385143 31,000 105 451 -64
2021-11-28 11:47:33 GMT 50.331581 9.373788 31,000 105 451 0
2021-11-28 11:47:30 GMT 50.333305 9.364434 31,000 105 452 0
2021-11-28 11:47:27 GMT 50.336517 9.346474 31,000 105 453 -128
2021-11-28 11:47:25 GMT 50.336517 9.346474 31,000 105 453 -64
2021-11-28 11:47:22 GMT 50.338303 9.336717 31,025 105 453 -128
2021-11-28 11:47:19 GMT 50.339214 9.331624 31,025 105 453 -128
2021-11-28 11:47:16 GMT 50.341312 9.320192 31,025 105 453 -128
2021-11-28 11:47:13 GMT 50.343292 9.309178 31,025 105 454 0
2021-11-28 11:47:09 GMT 50.345352 9.297831 31,000 105 454 64
2021-11-28 11:47:06 GMT 50.346954 9.288868 31,000 105 454 0
2021-11-28 11:47:03 GMT 50.348667 9.279587 31,000 105 456 -64
2021-11-28 11:47:00 GMT 50.350479 9.269566 31,000 105 457 128
2021-11-28 11:46:57 GMT 50.352219 9.259957 30,975 105 457 -64
2021-11-28 11:46:54 GMT 50.354115 9.249597 31,000 105 457 128
2021-11-28 11:46:51 GMT 50.355556 9.241580 31,000 105 457 128
2021-11-28 11:46:48 GMT 50.357929 9.228516 30,975 105 458 -64
2021-11-28 11:46:45 GMT 50.359371 9.220573 31,000 105 459 -128
2021-11-28 11:46:42 GMT 50.361282 9.209940 31,000 105 458 -64
2021-11-28 11:46:39 GMT 50.362350 9.204168 31,025 105 458 0
2021-11-28 11:46:36 GMT 50.364120 9.194183 31,025 105 457 256
2021-11-28 11:46:34 GMT 50.365219 9.188112 31,000 105 457 192
2021-11-28 11:46:31 GMT 50.366776 9.179523 30,975 105 458 256
2021-11-28 11:46:28 GMT 50.368561 9.169753 30,975 105 458 256
2021-11-28 11:46:25 GMT 50.370731 9.157847 30,950 105 458 256
2021-11-28 11:46:22 GMT 50.371895 9.151314 30,950 105 457 320
2021-11-28 11:46:19 GMT 50.374008 9.139758 30,950 105 457 256
2021-11-28 11:46:16 GMT 50.375851 9.129416 30,925 105 457 384
2021-11-28 11:46:14 GMT 50.377029 9.122989 30,475 105 460 960
2021-11-28 11:46:11 GMT 50.380371 9.104413 30,875 105 456 704
2021-11-28 11:46:08 GMT 50.380371 9.104413 30,850 105 456 768
2021-11-28 11:46:05 GMT 50.381905 9.096012 30,800 105 455 896
2021-11-28 11:46:02 GMT 50.384090 9.083689 30,650 105 455 960
2021-11-28 11:45:59 GMT 50.387257 9.065948 30,600 105 456 960
2021-11-28 11:45:56 GMT 50.387257 9.065948 30,675 105 456 960
2021-11-28 11:45:54 GMT 50.388702 9.058011 30,625 105 456 960
2021-11-28 11:45:51 GMT 50.391724 9.040881 30,575 105 456 896
2021-11-28 11:45:48 GMT 50.391724 9.040881 30,550 105 457 960
2021-11-28 11:45:45 GMT 50.393417 9.031340 30,475 105 457 960
2021-11-28 11:45:42 GMT 50.395077 9.021928 30,450 105 457 960
2021-11-28 11:45:39 GMT 50.397125 9.010379 30,400 105 457 1024
2021-11-28 11:45:36 GMT 50.398636 9.001850 30,350 105 457 960
2021-11-28 11:45:34 GMT 50.399689 8.995996 30,300 105 457 960
2021-11-28 11:45:31 GMT 50.401409 8.986371 30,250 105 458 1024
2021-11-28 11:45:28 GMT 50.402893 8.977998 30,125 105 460 960
2021-11-28 11:45:25 GMT 50.404949 8.966477 30,150 105 459 960
2021-11-28 11:45:22 GMT 50.406345 8.958608 30,100 105 460 1024
2021-11-28 11:45:19 GMT 50.408298 8.947845 30,050 105 460 960
2021-11-28 11:45:16 GMT 50.410172 8.937161 30,000 105 461 1024
2021-11-28 11:45:14 GMT 50.411465 8.930103 29,975 105 461 1024
2021-11-28 11:45:11 GMT 50.413235 8.920230 29,900 105 462 960
2021-11-28 11:45:08 GMT 50.414722 8.911916 29,850 105 462 960
2021-11-28 11:45:05 GMT 50.416119 8.904270 29,825 105 462 960
2021-11-28 11:45:02 GMT 50.420124 8.881704 29,750 105 462 1024
2021-11-28 11:44:59 GMT 50.420124 8.881704 29,700 105 462 1024
2021-11-28 11:44:56 GMT 50.421566 8.873538 29,650 105 461 1088
2021-11-28 11:44:53 GMT 50.423012 8.865373 29,600 105 461 1152
2021-11-28 11:44:50 GMT 50.425095 8.853463 29,550 105 460 1600
2021-11-28 11:44:47 GMT 50.426697 8.844428 29,500 105 460 1600
2021-11-28 11:44:44 GMT 50.428070 8.836477 29,475 105 459 1856
2021-11-28 11:44:41 GMT 50.429718 8.827009 29,300 105 459 1856
2021-11-28 11:44:38 GMT 50.431412 8.817034 29,075 105 459 1536
2021-11-28 11:44:35 GMT 50.434788 8.797376 29,150 105 459 1600
2021-11-28 11:44:33 GMT 50.434788 8.797376 29,050 105 458 1536
2021-11-28 11:44:30 GMT 50.435905 8.790770 29,000 104 458 1600
2021-11-28 11:44:27 GMT 50.437859 8.779561 28,950 104 458 1664
2021-11-28 11:44:24 GMT 50.439583 8.769317 28,850 104 458 1664
2021-11-28 11:44:20 GMT 50.441803 8.756031 26,275 116 458 0
2021-11-28 11:44:17 GMT 50.443268 8.747430 28,650 104 457 1920
2021-11-28 11:44:14 GMT 50.444366 8.740925 28,600 104 456 1920
2021-11-28 11:44:12 GMT 50.445419 8.734565 28,475 104 456 1728
2021-11-28 11:44:09 GMT 50.447170 8.724258 28,400 104 455 1536
2021-11-28 11:44:06 GMT 50.449127 8.712520 28,275 104 454 1600
2021-11-28 11:44:03 GMT 50.450684 8.703123 28,275 104 454 1600
2021-11-28 11:44:01 GMT 50.451462 8.698353 28,225 104 454 1984
2021-11-28 11:43:58 GMT 50.452805 8.690557 28,125 104 454 2240
2021-11-28 11:43:55 GMT 50.454666 8.679422 27,850 104 454 2176
2021-11-28 11:43:52 GMT 50.456223 8.670164 27,875 104 454 2176
2021-11-28 11:43:49 GMT 50.459793 8.648915 27,775 104 454 2304
2021-11-28 11:43:46 GMT 50.459793 8.648915 27,675 104 454 2432
2021-11-28 11:43:43 GMT 50.461716 8.637639 27,500 105 454 2432
2021-11-28 11:43:40 GMT 50.462769 8.631640 27,375 105 455 2368
2021-11-28 11:43:37 GMT 50.464966 8.619208 27,275 105 455 2304
2021-11-28 11:43:34 GMT 50.467255 8.606343 27,075 105 456 2304
2021-11-28 11:43:32 GMT 50.467255 8.606343 27,100 106 455 2368
2021-11-28 11:43:29 GMT 50.469330 8.595020 26,875 116 458 1984
2021-11-28 11:43:26 GMT 50.470867 8.586855 26,875 106 456 2496
2021-11-28 11:43:23 GMT 50.472153 8.579889 26,725 108 456 2496
2021-11-28 11:43:20 GMT 50.474590 8.567703 26,300 113 458 2432
2021-11-28 11:43:17 GMT 50.476311 8.559834 26,275 116 458 1984
2021-11-28 11:43:14 GMT 50.479477 8.547291 25,750 120 457 1920
2021-11-28 11:43:11 GMT 50.481537 8.539846 26,225 116 458 2048
2021-11-28 11:43:08 GMT 50.485016 8.528657 26,125 123 430 1280
2021-11-28 11:43:04 GMT 50.488815 8.517801 25,975 120 457 1920
2021-11-28 11:43:01 GMT 50.494839 8.502379 25,900 122 458 1984
2021-11-28 11:42:58 GMT 50.494839 8.502379 25,775 123 457 1984
2021-11-28 11:42:55 GMT 50.498005 8.494881 25,675 123 456 1984
2021-11-28 11:42:52 GMT 50.502182 8.484915 25,600 123 456 1920
2021-11-28 11:42:49 GMT 50.504894 8.478476 25,375 123 456 1920
2021-11-28 11:42:46 GMT 50.508316 8.470387 25,375 123 455 1920
2021-11-28 11:42:43 GMT 50.512024 8.461641 25,250 123 454 1728
2021-11-28 11:42:40 GMT 50.516098 8.451956 25,225 123 453 1920
2021-11-28 11:42:37 GMT 50.519257 8.444366 24,450 123 443 1792
2021-11-28 11:42:34 GMT 50.523285 8.434826 25,075 123 453 1920
2021-11-28 11:42:32 GMT 50.525192 8.430300 24,975 123 452 1984
2021-11-28 11:42:29 GMT 50.527519 8.424732 24,875 123 451 2048
2021-11-28 11:42:26 GMT 50.531479 8.415383 24,750 123 451 2048
2021-11-28 11:42:23 GMT 50.535233 8.406420 24,475 123 445 1664
2021-11-28 11:42:20 GMT 50.538712 8.398181 24,575 123 450 2048
2021-11-28 11:42:17 GMT 50.542145 8.390013 24,475 123 450 2048
2021-11-28 11:42:14 GMT 50.546402 8.379894 24,350 123 449 1920
2021-11-28 11:42:11 GMT 50.549332 8.372811 24,275 123 449 1920
2021-11-28 11:42:08 GMT 50.552399 8.365511 24,200 123 448 1856
2021-11-28 11:42:05 GMT 50.555420 8.358427 23,900 123 446 1792
2021-11-28 11:42:02 GMT 50.559494 8.348742 23,900 123 446 1792
2021-11-28 11:41:59 GMT 50.562572 8.341295 23,800 123 444 1792
2021-11-28 11:41:56 GMT 50.566483 8.332016 23,825 123 444 1792
2021-11-28 11:41:53 GMT 50.570480 8.322505 23,675 123 443 1792
2021-11-28 11:41:50 GMT 50.572628 8.317318 23,650 123 443 1728
2021-11-28 11:41:47 GMT 50.576588 8.307965 23,550 123 440 1344
2021-11-28 11:41:44 GMT 50.578819 8.302621 23,500 123 440 1344
2021-11-28 11:41:41 GMT 50.583382 8.291708 23,425 123 438 1088
2021-11-28 11:41:38 GMT 50.586227 8.284920 23,350 123 436 1152
2021-11-28 11:41:35 GMT 50.592319 8.270404 23,300 123 432 1216
2021-11-28 11:41:32 GMT 50.592319 8.270404 23,250 123 433 1216
2021-11-28 11:41:29 GMT 50.596603 8.260160 23,175 123 433 1216
2021-11-28 11:41:26 GMT 50.599258 8.253850 23,125 123 433 1216
2021-11-28 11:41:23 GMT 50.603214 8.244348 23,075 123 432 1216
2021-11-28 11:41:20 GMT 50.606644 8.236204 22,975 123 432 1216
2021-11-28 11:41:17 GMT 50.609825 8.228760 22,975 123 432 1216
2021-11-28 11:41:14 GMT 50.617180 8.211241 22,825 123 426 1216
2021-11-28 11:41:11 GMT 50.617180 8.211241 22,700 123 427 1280
2021-11-28 11:41:08 GMT 50.619972 8.204560 22,650 123 424 1216
2021-11-28 11:41:05 GMT 50.622765 8.197879 22,725 123 430 1280
2021-11-28 11:41:01 GMT 50.630127 8.180405 22,600 123 428 1280
2021-11-28 11:40:58 GMT 50.630127 8.180405 22,575 123 427 1280
2021-11-28 11:40:55 GMT 50.633568 8.172121 22,200 123 421 1280
2021-11-28 11:40:52 GMT 50.637405 8.162914 22,425 123 426 1216
2021-11-28 11:40:49 GMT 50.640038 8.156606 22,350 123 424 1216
2021-11-28 11:40:46 GMT 50.645737 8.143037 22,325 123 424 1216
2021-11-28 11:40:43 GMT 50.645737 8.143037 22,225 123 424 1216
2021-11-28 11:40:40 GMT 50.650417 8.131813 22,175 123 423 1280
2021-11-28 11:40:37 GMT 50.652977 8.125577 22,100 123 422 1280
2021-11-28 11:40:34 GMT 50.660099 8.108504 22,050 123 421 1280
2021-11-28 11:40:31 GMT 50.660099 8.108504 22,000 123 421 1344
2021-11-28 11:40:28 GMT 50.662613 8.102417 21,900 123 421 1344
2021-11-28 11:40:25 GMT 50.666336 8.093454 21,875 123 421 1280
2021-11-28 11:40:21 GMT 50.670155 8.084304 21,775 123 421 1216
2021-11-28 11:40:18 GMT 50.673706 8.075619 21,700 123 422 960
2021-11-28 11:40:15 GMT 50.676765 8.068237 21,450 123 422 960
2021-11-28 11:40:12 GMT 50.679977 8.060532 21,600 123 422 960
2021-11-28 11:40:09 GMT 50.682632 8.054166 21,550 123 422 960
2021-11-28 11:40:06 GMT 50.685516 8.047256 21,500 123 422 960
2021-11-28 11:40:03 GMT 50.688766 8.039320 21,400 123 422 1024
2021-11-28 11:40:00 GMT 50.692780 8.029709 21,350 123 422 1024
2021-11-28 11:39:57 GMT 50.696640 8.020316 21,300 123 422 1216
2021-11-28 11:39:54 GMT 50.699936 8.012299 21,225 123 422 1088
2021-11-28 11:39:51 GMT 50.701626 8.008194 21,275 123 422 1088
2021-11-28 11:39:48 GMT 50.704418 8.001480 21,200 123 422 1152
2021-11-28 11:39:45 GMT 50.708141 7.992401 21,150 123 422 1280
2021-11-28 11:39:42 GMT 50.711121 7.985229 21,050 122 421 1408
2021-11-28 11:39:39 GMT 50.714474 7.977066 20,925 122 422 1408
2021-11-28 11:39:36 GMT 50.717560 7.969616 20,925 122 422 1408
2021-11-28 11:39:33 GMT 50.720200 7.963104 20,900 122 422 1408
2021-11-28 11:39:30 GMT 50.723511 7.955141 20,800 123 423 1472
2021-11-28 11:39:27 GMT 50.730469 7.938216 20,675 123 425 1920
2021-11-28 11:39:24 GMT 50.734131 7.929382 20,625 123 425 1536
2021-11-28 11:39:21 GMT 50.734131 7.929382 20,550 123 425 1664
2021-11-28 11:39:18 GMT 50.737701 7.920697 20,400 123 425 1920
2021-11-28 11:39:15 GMT 50.743332 7.907039 20,075 122 424 2496
2021-11-28 11:39:12 GMT 50.743332 7.907039 20,075 122 424 2496
2021-11-28 11:39:09 GMT 50.746593 7.899170 20,075 122 424 2496
2021-11-28 11:39:06 GMT 50.749851 7.891235 19,950 122 422 2624
2021-11-28 11:39:03 GMT 50.753540 7.882245 19,825 123 423 2624
2021-11-28 11:39:00 GMT 50.756287 7.875564 19,750 123 422 2624
2021-11-28 11:38:57 GMT 50.759537 7.867770 19,600 123 422 2688
2021-11-28 11:38:54 GMT 50.762650 7.860124 19,450 122 420 2624
2021-11-28 11:38:51 GMT 50.769405 7.843704 19,275 122 420 2624
2021-11-28 11:38:48 GMT 50.769405 7.843704 19,225 122 419 2624
2021-11-28 11:38:45 GMT 50.772663 7.835770 19,125 122 416 2688
2021-11-28 11:38:43 GMT 50.774342 7.831726 19,075 122 418 2752
2021-11-28 11:38:40 GMT 50.778030 7.822637 18,325 122 415 2752
2021-11-28 11:38:37 GMT 50.781322 7.814713 18,575 122 416 2688
2021-11-28 11:38:33 GMT 50.785374 7.804794 18,550 122 415 2688
2021-11-28 11:38:30 GMT 50.791122 7.790717 18,400 122 415 2752
2021-11-28 11:38:27 GMT 50.791122 7.790717 18,275 122 414 2752
2021-11-28 11:38:24 GMT 50.793892 7.783890 18,275 122 414 2752
2021-11-28 11:38:21 GMT 50.796825 7.776794 18,075 122 413 2752
2021-11-28 11:38:18 GMT 50.800362 7.768173 17,475 122 411 2688
2021-11-28 11:38:15 GMT 50.803574 7.760315 17,800 122 411 2688
2021-11-28 11:38:12 GMT 50.806641 7.752710 17,550 122 410 2752
2021-11-28 11:38:09 GMT 50.810028 7.744471 17,450 122 408 2688
2021-11-28 11:38:06 GMT 50.812500 7.738384 17,325 122 408 2624
2021-11-28 11:38:03 GMT 50.816143 7.729492 17,200 122 406 2752
2021-11-28 11:38:00 GMT 50.819183 7.722052 16,675 122 404 2880
2021-11-28 11:37:57 GMT 50.822388 7.714184 16,775 122 404 2880
2021-11-28 11:37:54 GMT 50.825043 7.707726 16,475 122 403 2944
2021-11-28 11:37:50 GMT 50.831818 7.691098 16,600 122 402 2944
2021-11-28 11:37:47 GMT 50.835045 7.683182 16,425 122 400 3072
2021-11-28 11:37:44 GMT 50.835045 7.683182 16,250 122 399 3072
2021-11-28 11:37:41 GMT 50.838161 7.675476 16,125 122 399 3072
2021-11-28 11:37:38 GMT 50.840721 7.669220 15,950 122 398 3072
2021-11-28 11:37:35 GMT 50.844086 7.660960 15,825 122 397 3072
2021-11-28 11:37:32 GMT 50.846634 7.654724 15,825 122 397 3072
2021-11-28 11:37:30 GMT 50.848206 7.650938 15,675 122 396 3072
2021-11-28 11:37:27 GMT 50.851959 7.641659 15,100 122 391 3712
2021-11-28 11:37:24 GMT 50.855621 7.632751 15,300 122 394 2944
2021-11-28 11:37:21 GMT 50.857635 7.627778 15,100 122 388 3520
2021-11-28 11:37:18 GMT 50.861526 7.618276 14,975 122 391 3520
2021-11-28 11:37:15 GMT 50.863022 7.614517 14,900 122 391 3648
2021-11-28 11:37:12 GMT 50.866371 7.606354 14,450 122 391 3584
2021-11-28 11:37:09 GMT 50.869633 7.598343 14,425 122 390 3584
2021-11-28 11:37:06 GMT 50.872238 7.591998 12,850 122 389 3584
2021-11-28 11:37:03 GMT 50.875214 7.584723 14,000 122 389 3520
2021-11-28 11:36:59 GMT 50.879013 7.575370 13,775 122 388 3520
2021-11-28 11:36:56 GMT 50.882572 7.566681 12,850 123 385 3648
2021-11-28 11:36:53 GMT 50.885513 7.559485 13,400 122 386 3584
2021-11-28 11:36:50 GMT 50.888992 7.550948 13,250 123 385 3648
2021-11-28 11:36:47 GMT 50.891464 7.544937 13,075 123 385 3584
2021-11-28 11:36:44 GMT 50.894257 7.538180 12,950 123 384 3520
2021-11-28 11:36:41 GMT 50.897053 7.531357 12,725 123 383 3136
2021-11-28 11:36:38 GMT 50.900124 7.523956 12,625 123 382 2944
2021-11-28 11:36:35 GMT 50.901993 7.519399 12,525 123 381 2816
2021-11-28 11:36:32 GMT 50.907028 7.507299 12,300 123 378 2752
2021-11-28 11:36:29 GMT 50.911011 7.497798 12,150 123 376 2752
2021-11-28 11:36:26 GMT 50.911011 7.497798 11,725 123 371 1984
2021-11-28 11:36:23 GMT 50.913715 7.491379 11,800 123 371 1984
2021-11-28 11:36:20 GMT 50.918015 7.481170 11,750 123 371 1984
2021-11-28 11:36:17 GMT 50.919662 7.477310 11,675 123 370 1728
2021-11-28 11:36:13 GMT 50.923771 7.467575 11,600 123 363 1344
2021-11-28 11:36:10 GMT 50.926483 7.461201 11,525 123 358 1344
2021-11-28 11:36:07 GMT 50.929314 7.454529 11,475 123 358 1344
2021-11-28 11:36:04 GMT 50.931732 7.448883 11,150 123 351 1408
2021-11-28 11:36:01 GMT 50.934311 7.442643 11,350 123 350 1408
2021-11-28 11:35:59 GMT 50.936852 7.436676 11,250 123 345 1344
2021-11-28 11:35:56 GMT 50.939026 7.431434 11,200 123 341 1408
2021-11-28 11:35:53 GMT 50.941727 7.424976 11,075 123 335 1472
2021-11-28 11:35:49 GMT 50.945232 7.416611 11,025 123 331 1472
2021-11-28 11:35:46 GMT 50.947842 7.410355 10,475 121 303 1664
2021-11-28 11:35:43 GMT 50.950562 7.403746 10,900 122 325 1472
2021-11-28 11:35:40 GMT 50.955986 7.390366 10,800 122 319 1472
2021-11-28 11:35:37 GMT 50.955986 7.390366 10,725 122 315 1472
2021-11-28 11:35:34 GMT 50.957245 7.387266 10,700 122 313 1536
2021-11-28 11:35:31 GMT 50.959663 7.381210 10,575 121 306 1600
2021-11-28 11:35:28 GMT 50.962555 7.373756 10,450 121 299 1728
2021-11-28 11:35:25 GMT 50.964367 7.369156 10,400 120 292 2112
2021-11-28 11:35:22 GMT 50.966583 7.363364 10,375 121 294 1920
2021-11-28 11:35:20 GMT 50.967682 7.360543 10,250 120 292 2176
2021-11-28 11:35:17 GMT 50.969650 7.355198 10,100 117 288 2496
2021-11-28 11:35:14 GMT 50.971619 7.349557 10,075 110 283 3072
2021-11-28 11:35:11 GMT 50.973629 7.342758 9,925 112 284 3008
2021-11-28 11:35:08 GMT 50.974731 7.337902 9,175 105 280 3328
2021-11-28 11:35:05 GMT 50.976013 7.331221 9,450 104 280 3392
2021-11-28 11:35:02 GMT 50.976795 7.326431 9,100 101 278 3456
2021-11-28 11:34:59 GMT 50.977890 7.319418 9,200 101 278 3456
2021-11-28 11:34:56 GMT 50.978565 7.314224 9,025 98 277 3456
2021-11-28 11:34:53 GMT 50.979126 7.307690 8,900 93 276 3584
2021-11-28 11:34:50 GMT 50.979355 7.303391 8,800 92 276 3584
2021-11-28 11:34:48 GMT 50.979309 7.295961 8,575 86 274 3712
2021-11-28 11:34:44 GMT 50.978348 7.283787 8,100 64 270 3712
2021-11-28 11:34:41 GMT 50.978348 7.283787 8,050 73 272 3648
2021-11-28 11:34:38 GMT 50.976143 7.271576 7,900 70 272 3648
2021-11-28 11:34:35 GMT 50.976143 7.271576 7,725 66 271 3712
2021-11-28 11:34:32 GMT 50.975006 7.267085 7,575 64 270 3712
2021-11-28 11:34:29 GMT 50.973358 7.261443 7,425 63 271 3648
2021-11-28 11:34:26 GMT 50.971676 7.256012 7,200 63 269 3456
2021-11-28 11:34:23 GMT 50.969395 7.248764 7,075 63 269 3456
2021-11-28 11:34:20 GMT 50.968555 7.245941 6,975 63 268 3392
2021-11-28 11:34:17 GMT 50.966415 7.239151 6,750 63 267 3328
2021-11-28 11:34:14 GMT 50.965073 7.234720 6,600 63 267 3264
2021-11-28 11:34:11 GMT 50.963196 7.228707 6,425 63 266 3200
2021-11-28 11:34:08 GMT 50.961731 7.224030 6,200 63 265 3200
2021-11-28 11:34:05 GMT 50.959896 7.218170 6,100 63 264 3008
2021-11-28 11:34:01 GMT 50.957565 7.210594 5,875 63 259 3200
2021-11-28 11:33:58 GMT 50.956406 7.206879 5,775 63 260 2880
2021-11-28 11:33:55 GMT 50.955093 7.202652 5,650 63 259 3264
2021-11-28 11:33:52 GMT 50.953537 7.197604 5,400 64 246 1472
2021-11-28 11:33:49 GMT 50.951569 7.191294 5,075 64 246 1472
2021-11-28 11:33:46 GMT 50.950241 7.186914 5,175 64 254 1856
2021-11-28 11:33:43 GMT 50.948456 7.181050 5,025 64 248 1536
2021-11-28 11:33:40 GMT 50.947128 7.176745 4,975 64 240 1472
2021-11-28 11:33:37 GMT 50.945618 7.171623 4,900 65 235 1472
2021-11-28 11:33:34 GMT 50.944069 7.166443 4,875 65 234 1472
2021-11-28 11:33:30 GMT 50.942276 7.160339 4,725 65 223 1408
2021-11-28 11:33:27 GMT 50.940857 7.155440 4,675 64 222 1408
2021-11-28 11:33:24 GMT 50.939228 7.150040 4,600 62 219 1408
2021-11-28 11:33:21 GMT 50.938530 7.148056 4,525 55 212 1536
2021-11-28 11:33:18 GMT 50.936691 7.143637 4,450 49 209 1728
2021-11-28 11:33:15 GMT 50.934757 7.139969 4,400 42 205 1536
2021-11-28 11:33:12 GMT 50.932709 7.136808 4,325 38 202 1344
2021-11-28 11:33:09 GMT 50.930969 7.134655 4,275 34 198 1280
2021-11-28 11:33:06 GMT 50.927868 7.131424 4,175 30 193 1344
2021-11-28 11:33:03 GMT 50.925934 7.129607 4,100 30 187 1472
2021-11-28 11:33:00 GMT 50.923306 7.127151 4,050 30 184 1664
2021-11-28 11:32:55 GMT 50.920139 7.124252 3,950 30 178 2048
2021-11-28 11:32:51 GMT 50.917721 7.121964 3,750 31 175 2368
2021-11-28 11:32:48 GMT 50.915176 7.119512 3,575 32 174 2496
2021-11-28 11:32:45 GMT 50.913345 7.117730 3,525 32 174 2560
2021-11-28 11:32:42 GMT 50.910923 7.115250 3,350 30 173 2688
2021-11-28 11:32:39 GMT 50.908970 7.113419 3,050 29 174 2624
2021-11-28 11:32:35 GMT 50.906433 7.111346 3,050 20 174 2432
2021-11-28 11:32:32 GMT 50.904144 7.110084 2,950 11 173 2368
2021-11-28 11:32:29 GMT 50.901810 7.109342 2,800 357 173 2496
2021-11-28 11:32:25 GMT 50.898422 7.109268 2,700 351 172 2560
2021-11-28 11:32:21 GMT 50.895561 7.110291 2,475 338 172 2560
2021-11-28 11:32:18 GMT 50.893387 7.111717 2,425 331 171 2560
2021-11-28 11:32:14 GMT 50.890629 7.114563 2,275 322 171 2496
2021-11-28 11:32:11 GMT 50.888718 7.117062 2,125 319 171 2624
2021-11-28 11:32:08 GMT 50.887024 7.119512 1,900 318 180 3136
2021-11-28 11:32:05 GMT 50.885056 7.122333 1,850 318 170 2944
2021-11-28 11:32:01 GMT 50.882854 7.125473 1,650 318 171 3328
2021-11-28 11:31:58 GMT 50.881119 7.128048 1,125 317 174 3456
2021-11-28 11:31:55 GMT 50.878849 7.131424 1,225 317 178 3264
2021-11-28 11:31:50 GMT 50.876770 7.134507 1,000 318 181 3072
2021-11-28 11:31:46 GMT 50.873867 7.138672 775 318 186 1792
2021-11-28 11:31:43 GMT 50.872421 7.140742 700 318 168 -128
2021-11-28 11:31:33 GMT 50.866280 7.149734 775 318 154 -64
2021-11-28 11:31:25 GMT 50.862396 7.155292 800 318 125 0
2021-11-28 11:31:21 GMT 50.860565 7.157964 800 317 59
2021-11-28 11:31:16 GMT 50.858757 7.160581 0 317 86
2021-11-28 11:31:10 GMT 50.857319 7.162666 0 317 59
2021-11-28 11:31:05 GMT 50.856468 7.163902 0 317 38
2021-11-28 11:31:00 GMT 50.855991 7.164612 0 317 19
2021-11-28 11:30:52 GMT 50.855553 7.165220 0 354 14
2021-11-28 11:30:35 GMT 50.854469 7.165070 0 22 13
2021-11-28 11:30:31 GMT 50.854294 7.164997 0 28 15
2021-11-28 11:29:48 GMT 50.853973 7.160748 0 137 19
2021-11-28 11:29:01 GMT 50.857178 7.156143 0 137 21
2021-11-28 11:28:24 GMT 50.859650 7.152545 0 137 18
2021-11-28 11:28:19 GMT 50.859924 7.152157 0 137 18
2021-11-28 11:28:11 GMT 50.860428 7.151413 0 137 17
2021-11-28 11:28:00 GMT 50.861065 7.150497 0 137 17
2021-11-28 11:27:51 GMT 50.861580 7.149754 0 137 18
2021-11-28 11:27:40 GMT 50.862202 7.148852 0 137 19
2021-11-28 11:27:31 GMT 50.862888 7.147850 0 137 20
2021-11-28 11:27:18 GMT 50.863701 7.146662 0 137 22
2021-11-28 11:27:10 GMT 50.864330 7.145753 0 137 23
2021-11-28 11:27:00 GMT 50.865120 7.144602 0 137 24
2021-11-28 11:26:50 GMT 50.865887 7.143478 0 137 22
2021-11-28 11:26:40 GMT 50.866562 7.142505 0 137 18
2021-11-28 11:26:30 GMT 50.867123 7.141726 0 143 16
2021-11-28 11:26:20 GMT 50.867764 7.141317 0 149 17
2021-11-28 11:26:06 GMT 50.868561 7.140236 0 137 18
2021-11-28 11:25:55 GMT 50.869297 7.139183 0 137 17
2021-11-28 11:25:46 GMT 50.869698 7.138552 0 137 15
2021-11-28 11:25:34 GMT 50.870258 7.137791 0 137 13
2021-11-28 11:25:27 GMT 50.870552 7.137356 0 137 13
2021-11-28 11:25:16 GMT 50.871075 7.136593 0 137 12
2021-11-28 11:25:05 GMT 50.871460 7.136028 0 137 12
2021-11-28 11:24:49 GMT 50.872040 7.135201 0 137 9
2021-11-28 11:24:42 GMT 50.872227 7.134933 0 137 10
2021-11-28 11:24:36 GMT 50.872425 7.134647 0 137 11
2021-11-28 11:24:15 GMT 50.873234 7.133449 0 137 12
2021-11-28 11:24:06 GMT 50.873634 7.132912 0 137 12
2021-11-28 11:23:55 GMT 50.874043 7.132282 0 137 12
2021-11-28 11:23:45 GMT 50.874470 7.131667 0 137 11
2021-11-28 11:23:33 GMT 50.874870 7.131092 0 137 10
2021-11-28 11:23:07 GMT 50.875637 7.129974 0 137 8
2021-11-28 11:20:54 GMT 50.875950 7.129517 0 137 0
We lost coverage of the aircraft here for a total of 92 minutes
2021-11-28 09:49:00 GMT 50.875172 7.128716 0 227 3 0
2021-11-28 09:48:51 GMT 50.875252 7.128830 0 227 8 0
2021-11-28 09:48:43 GMT 50.875385 7.129125 0 227 7 0
2021-11-28 09:48:36 GMT 50.875534 7.129366 0 236 7 0
2021-11-28 09:48:32 GMT 50.875637 7.129498 0 258 8 0
2021-11-28 09:48:06 GMT 50.875046 7.130871 0 317 15 0
2021-11-28 09:48:02 GMT 50.874905 7.131100 0 317 15 0
2021-11-28 09:47:53 GMT 50.874470 7.131704 0 317 14 0
2021-11-28 09:47:39 GMT 50.873741 7.132797 0 295 17 0
2021-11-28 09:47:26 GMT 50.873508 7.134247 0 278 19 0
2021-11-28 09:47:24 GMT 50.873463 7.134686 0 278 18 0
2021-11-28 09:47:11 GMT 50.873302 7.136158 0 278 16 0
2021-11-28 09:47:03 GMT 50.873203 7.137108 0 278 18 0
2021-11-28 09:46:50 GMT 50.873009 7.138634 0 286 19 0
2021-11-28 09:46:42 GMT 50.872787 7.139664 0 295 24 0
2021-11-28 09:46:30 GMT 50.871883 7.141559 0 315 41 0
2021-11-28 09:46:21 GMT 50.870342 7.143822 0 317 55 0
2021-11-28 09:46:16 GMT 50.869457 7.145103 0 317 56 0
2021-11-28 09:46:03 GMT 50.866722 7.149075 0 317 84 0
2021-11-28 09:45:57 GMT 50.864765 7.151877 0 317 105 0
2021-11-28 09:45:51 GMT 50.862137 7.155685 700 318 116 -192
2021-11-28 09:45:41 GMT 50.858135 7.161484 700 318 140 -320
2021-11-28 09:45:37 GMT 50.855946 7.164688 775 318 140 -704
2021-11-28 09:45:31 GMT 50.853287 7.168431 850 318 139 -704
2021-11-28 09:45:26 GMT 50.851009 7.171783 975 318 140 -768
2021-11-28 09:45:23 GMT 50.849075 7.174592 975 318 140 -768
2021-11-28 09:45:19 GMT 50.847610 7.176745 1,000 318 140 -896
2021-11-28 09:45:14 GMT 50.845093 7.180382 1,075 318 140 -832
2021-11-28 09:45:10 GMT 50.843472 7.182770 1,125 318 140 -768
2021-11-28 09:45:05 GMT 50.840836 7.186543 1,225 318 139 -768
2021-11-28 09:45:01 GMT 50.838490 7.190018 1,250 318 139 -768
2021-11-28 09:44:55 GMT 50.836121 7.193447 1,375 318 138 -768
2021-11-28 09:44:52 GMT 50.834438 7.195816 1,375 318 138 -768
2021-11-28 09:44:49 GMT 50.833237 7.197604 1,400 318 138 -768
2021-11-28 09:44:45 GMT 50.831314 7.200350 1,450 318 136 -768
2021-11-28 09:44:40 GMT 50.829025 7.203617 1,550 318 135 -704
2021-11-28 09:44:35 GMT 50.826691 7.207031 1,575 318 135 -704
2021-11-28 09:44:30 GMT 50.824104 7.210770 1,650 318 134 -704
2021-11-28 09:44:25 GMT 50.822147 7.213593 1,700 318 133 -768
2021-11-28 09:44:20 GMT 50.819595 7.217275 1,775 318 134 -768
2021-11-28 09:44:17 GMT 50.818680 7.218611 1,825 318 133 -704
2021-11-28 09:44:14 GMT 50.817352 7.220459 1,850 318 133 -704
2021-11-28 09:44:07 GMT 50.814236 7.225037 1,950 318 136 -704
2021-11-28 09:44:04 GMT 50.812744 7.227173 1,975 318 136 -704
2021-11-28 09:43:57 GMT 50.809254 7.232285 2,050 318 142 -768
2021-11-28 09:43:54 GMT 50.807999 7.234116 2,075 318 145 -832
2021-11-28 09:43:50 GMT 50.805634 7.237541 2,150 318 156 -960
2021-11-28 09:43:47 GMT 50.803993 7.239838 2,175 318 155 -960
2021-11-28 09:43:44 GMT 50.802750 7.241698 2,750 318 160 -896
2021-11-28 09:43:41 GMT 50.800594 7.244720 2,300 318 160 -960
2021-11-28 09:43:38 GMT 50.799408 7.246448 2,350 318 160 -896
2021-11-28 09:43:35 GMT 50.797302 7.249492 2,450 319 160 -896
2021-11-28 09:43:30 GMT 50.794498 7.253418 2,475 319 160 -896
2021-11-28 09:43:27 GMT 50.792587 7.256173 2,525 318 160 -896
2021-11-28 09:43:23 GMT 50.790913 7.258530 2,750 318 159 -960
2021-11-28 09:43:17 GMT 50.787746 7.263184 2,650 318 161 -896
2021-11-28 09:43:14 GMT 50.786072 7.265549 2,700 318 161 -832
2021-11-28 09:43:11 GMT 50.784348 7.268066 2,750 318 162 -832
2021-11-28 09:43:07 GMT 50.782207 7.271194 2,825 317 164 -960
2021-11-28 09:43:04 GMT 50.780766 7.273331 2,850 317 166 -960
2021-11-28 09:42:59 GMT 50.777893 7.277626 2,925 317 167 -960
2021-11-28 09:42:55 GMT 50.775272 7.281494 3,175 318 176 -960
2021-11-28 09:42:52 GMT 50.774200 7.283096 3,175 318 176 -960
2021-11-28 09:42:49 GMT 50.772034 7.286237 3,100 317 172 -896
2021-11-28 09:42:46 GMT 50.770203 7.288983 3,150 318 173 -960
2021-11-28 09:42:42 GMT 50.767403 7.293015 3,225 318 176 -960
2021-11-28 09:42:37 GMT 50.763062 7.299227 3,300 319 179 -896
2021-11-28 09:42:34 GMT 50.761276 7.301751 3,350 319 180 -896
2021-11-28 09:42:31 GMT 50.761276 7.301751 3,375 319 182 -832
2021-11-28 09:42:27 GMT 50.758793 7.305145 3,425 320 185 -832
2021-11-28 09:42:24 GMT 50.756012 7.308952 3,475 320 187 -832
2021-11-28 09:42:18 GMT 50.753204 7.312698 3,525 320 190 -768
2021-11-28 09:42:15 GMT 50.750153 7.316820 3,600 320 192 -704
2021-11-28 09:42:12 GMT 50.749008 7.318379 3,600 320 195 -704
2021-11-28 09:42:09 GMT 50.746361 7.321930 3,650 320 198 -832
2021-11-28 09:42:06 GMT 50.744705 7.324243 3,700 319 199 -896
2021-11-28 09:42:03 GMT 50.742359 7.327499 3,750 318 201 -832
2021-11-28 09:41:56 GMT 50.737190 7.335587 3,875 314 205 -1024
2021-11-28 09:41:53 GMT 50.735870 7.337754 3,900 312 207 -1024
2021-11-28 09:41:46 GMT 50.731419 7.346420 4,025 302 212 -1024
2021-11-28 09:41:43 GMT 50.730011 7.349928 4,050 298 213 -1024
2021-11-28 09:41:38 GMT 50.727722 7.357202 4,250 292 233 -960
2021-11-28 09:41:35 GMT 50.726669 7.361434 4,200 292 217 -1024
2021-11-28 09:41:32 GMT 50.725784 7.364960 4,250 292 218 -1024
2021-11-28 09:41:26 GMT 50.723225 7.375412 4,375 292 221 -960
2021-11-28 09:41:23 GMT 50.722046 7.380140 4,400 292 223 -1024
2021-11-28 09:41:19 GMT 50.720711 7.385559 4,475 292 225 -1024
2021-11-28 09:41:16 GMT 50.719593 7.390060 4,525 292 226 -960
2021-11-28 09:41:13 GMT 50.718521 7.394562 4,575 292 228 -960
2021-11-28 09:41:09 GMT 50.717010 7.400777 4,650 291 229 -960
2021-11-28 09:41:05 GMT 50.715271 7.407829 4,700 292 231 -1088
2021-11-28 09:41:02 GMT 50.714333 7.411880 4,750 292 233 -1024
2021-11-28 09:40:58 GMT 50.712570 7.418741 4,825 293 234 -1088
2021-11-28 09:40:54 GMT 50.710983 7.424774 4,875 294 237 -896
2021-11-28 09:40:51 GMT 50.709911 7.428665 4,925 294 237 -832
2021-11-28 09:40:47 GMT 50.708267 7.435294 4,975 289 241 -896
2021-11-28 09:40:43 GMT 50.706848 7.442792 5,050 281 240 -1024
2021-11-28 09:40:39 GMT 50.706234 7.449570 5,375 255 243 -896
2021-11-28 09:40:36 GMT 50.706326 7.457504 5,200 260 241 -1024
2021-11-28 09:40:33 GMT 50.706528 7.460459 5,225 260 241 -1024
2021-11-28 09:40:29 GMT 50.707302 7.466507 5,275 257 241 -960
2021-11-28 09:40:25 GMT 50.709503 7.480056 5,375 255 243 -1088
2021-11-28 09:40:22 GMT 50.709503 7.480056 5,425 255 243 -832
2021-11-28 09:40:18 GMT 50.710373 7.485178 5,500 255 243 -960
2021-11-28 09:40:15 GMT 50.711288 7.490597 5,525 256 244 -960
2021-11-28 09:40:12 GMT 50.712158 7.495645 5,550 256 244 -960
2021-11-28 09:40:09 GMT 50.713120 7.501287 5,600 255 244 -1024
2021-11-28 09:40:05 GMT 50.714195 7.507553 5,700 255 245 -1152
2021-11-28 09:40:02 GMT 50.715088 7.512793 5,725 255 246 -1152
2021-11-28 09:39:59 GMT 50.716095 7.518434 5,800 255 246 -1152
2021-11-28 09:39:55 GMT 50.717606 7.526971 5,875 255 247 -1152
2021-11-28 09:39:52 GMT 50.718246 7.530534 5,925 255 247 -1088
2021-11-28 09:39:47 GMT 50.719849 7.539442 6,025 255 247 -1216
2021-11-28 09:39:44 GMT 50.720478 7.542953 6,100 255 249 -1088
2021-11-28 09:39:41 GMT 50.721783 7.550583 6,150 256 249 -1088
2021-11-28 09:39:38 GMT 50.723740 7.562454 6,325 256 253 -960
2021-11-28 09:39:34 GMT 50.724483 7.566986 6,375 256 252 -1216
2021-11-28 09:39:31 GMT 50.724483 7.566986 6,375 256 252 -1216
2021-11-28 09:39:28 GMT 50.725388 7.572401 6,525 256 253 -960
2021-11-28 09:39:25 GMT 50.726349 7.578414 6,450 256 252 -1152
2021-11-28 09:39:21 GMT 50.727585 7.585763 6,525 256 253 -1216
2021-11-28 09:39:18 GMT 50.728298 7.590027 6,575 256 253 -1216
2021-11-28 09:39:14 GMT 50.729324 7.596436 6,700 256 253 -1152
2021-11-28 09:39:11 GMT 50.730240 7.601945 7,875 256 267 -960
2021-11-28 09:39:08 GMT 50.731201 7.607958 6,775 256 253 -960
2021-11-28 09:39:05 GMT 50.731930 7.612534 6,800 257 253 -960
2021-11-28 09:39:02 GMT 50.732906 7.618713 6,875 257 252 -960
2021-11-28 09:38:59 GMT 50.733887 7.624817 6,925 257 252 -960
2021-11-28 09:38:56 GMT 50.734631 7.629471 6,975 256 252 -960
2021-11-28 09:38:52 GMT 50.735840 7.637100 7,050 256 252 -960
2021-11-28 09:38:49 GMT 50.736633 7.641754 7,100 256 253 -960
2021-11-28 09:38:46 GMT 50.737564 7.647476 7,125 256 253 -960
2021-11-28 09:38:42 GMT 50.738773 7.654800 7,200 256 254 -960
2021-11-28 09:38:39 GMT 50.739704 7.660217 7,250 256 254 -960
2021-11-28 09:38:36 GMT 50.740589 7.665558 7,300 256 255 -960
2021-11-28 09:38:33 GMT 50.741318 7.669793 7,325 256 256 -960
2021-11-28 09:38:30 GMT 50.742359 7.676239 7,375 256 256 -1024
2021-11-28 09:38:27 GMT 50.743423 7.682561 7,450 256 258 -1024
2021-11-28 09:38:24 GMT 50.744175 7.687302 7,475 256 259 -1024
2021-11-28 09:38:20 GMT 50.745575 7.695849 7,550 256 260 -1024
2021-11-28 09:38:15 GMT 50.746719 7.702975 7,650 256 262 -1024
2021-11-28 09:38:11 GMT 50.748085 7.711182 7,750 256 263 -1024
2021-11-28 09:38:05 GMT 50.750107 7.723611 7,825 256 266 -960
2021-11-28 09:38:01 GMT 50.751251 7.730713 7,875 256 267 -896
2021-11-28 09:37:58 GMT 50.752167 7.736528 7,925 256 267 -896
2021-11-28 09:37:55 GMT 50.752831 7.740402 8,000 255 269 -896
2021-11-28 09:37:52 GMT 50.753857 7.746887 8,050 255 269 -960
2021-11-28 09:37:49 GMT 50.754730 7.752191 8,100 255 269 -896
2021-11-28 09:37:46 GMT 50.755718 7.757797 8,100 255 269 -960
2021-11-28 09:37:43 GMT 50.756649 7.763443 8,250 256 271 -1024
2021-11-28 09:37:40 GMT 50.757721 7.769547 8,200 256 271 -1024
2021-11-28 09:37:37 GMT 50.758530 7.774386 8,250 255 271 -1024
2021-11-28 09:37:34 GMT 50.759441 7.779617 8,725 255 278 -1216
2021-11-28 09:37:30 GMT 50.760956 7.788564 8,375 255 274 -1152
2021-11-28 09:37:27 GMT 50.762005 7.794495 8,425 255 274 -1152
2021-11-28 09:37:24 GMT 50.762703 7.798691 8,450 255 275 -1216
2021-11-28 09:37:19 GMT 50.764938 7.811354 8,600 255 277 -1216
2021-11-28 09:37:16 GMT 50.765404 7.814102 8,625 255 277 -1216
2021-11-28 09:37:13 GMT 50.766659 7.821350 8,700 255 278 -1216
2021-11-28 09:37:09 GMT 50.767776 7.827833 8,750 255 279 -1216
2021-11-28 09:37:05 GMT 50.769333 7.836964 8,900 255 281 -1216
2021-11-28 09:37:00 GMT 50.771027 7.846762 8,950 255 282 -1216
2021-11-28 09:36:57 GMT 50.772034 7.852775 9,150 256 283 -1280
2021-11-28 09:36:54 GMT 50.773041 7.858714 9,075 256 284 -1472
2021-11-28 09:36:50 GMT 50.774689 7.868586 9,175 256 284 -1472
2021-11-28 09:36:47 GMT 50.775192 7.871704 9,250 256 284 -1472
2021-11-28 09:36:44 GMT 50.777737 7.887268 9,350 256 284 -1472
2021-11-28 09:36:40 GMT 50.777737 7.887268 9,450 256 285 -1408
2021-11-28 09:36:37 GMT 50.778900 7.894211 9,525 255 285 -1408
2021-11-28 09:36:34 GMT 50.779739 7.899323 9,575 255 285 -1280
2021-11-28 09:36:31 GMT 50.780766 7.905350 9,650 255 286 -1152
2021-11-28 09:36:28 GMT 50.781509 7.909622 9,650 255 286 -1152
2021-11-28 09:36:25 GMT 50.782627 7.916260 9,750 255 286 -768
2021-11-28 09:36:22 GMT 50.784210 7.925262 9,800 255 286 -704
2021-11-28 09:36:19 GMT 50.784943 7.929531 9,850 255 287 -576
2021-11-28 09:36:15 GMT 50.786350 7.937698 9,875 255 288 -576
2021-11-28 09:36:12 GMT 50.787235 7.942963 9,900 255 289 -576
2021-11-28 09:36:09 GMT 50.788696 7.951355 9,925 255 290 -576
2021-11-28 09:36:06 GMT 50.789562 7.956085 9,975 255 292 -512
2021-11-28 09:36:03 GMT 50.790619 7.962044 9,975 255 292 -512
2021-11-28 09:36:00 GMT 50.791580 7.967389 10,000 255 294 -448
2021-11-28 09:35:57 GMT 50.792679 7.973773 10,025 255 295 -384
2021-11-28 09:35:54 GMT 50.793961 7.980751 10,050 255 297 -256
2021-11-28 09:35:51 GMT 50.796249 7.993593 10,050 255 300 -192
2021-11-28 09:35:48 GMT 50.796249 7.993593 10,050 255 303 -64
2021-11-28 09:35:45 GMT 50.797714 8.001833 10,050 255 306 -64
2021-11-28 09:35:42 GMT 50.798401 8.005767 10,050 255 308 -64
2021-11-28 09:35:38 GMT 50.799911 8.014229 10,050 255 313 0
2021-11-28 09:35:35 GMT 50.800922 8.019791 10,050 255 315 64
2021-11-28 09:35:31 GMT 50.802521 8.029076 10,025 255 320 128
2021-11-28 09:35:28 GMT 50.805435 8.046036 10,025 255 326 64
2021-11-28 09:35:25 GMT 50.805435 8.046036 10,025 256 329 64
2021-11-28 09:35:21 GMT 50.806461 8.051910 10,025 256 333 0
2021-11-28 09:35:18 GMT 50.808090 8.061600 10,025 256 335 0
2021-11-28 09:35:15 GMT 50.808743 8.065643 10,025 257 340 -64
2021-11-28 09:35:12 GMT 50.810669 8.077475 10,050 256 338 -64
2021-11-28 09:35:08 GMT 50.811813 8.084453 10,050 257 339 -128
2021-11-28 09:35:04 GMT 50.813416 8.094326 10,050 257 340 -128
2021-11-28 09:35:01 GMT 50.814281 8.100128 10,075 257 339 -128
2021-11-28 09:34:58 GMT 50.815430 8.107391 10,075 257 340 -64
2021-11-28 09:34:55 GMT 50.816563 8.114853 10,075 257 340 -64
2021-11-28 09:34:51 GMT 50.817772 8.123169 10,075 258 340 192
2021-11-28 09:34:48 GMT 50.819275 8.134114 10,050 267 340 128
2021-11-28 09:34:44 GMT 50.820194 8.142548 10,050 264 341 128
2021-11-28 09:34:40 GMT 50.820705 8.153763 10,025 272 341 128
2021-11-28 09:34:37 GMT 50.820660 8.158951 10,025 274 340 64
2021-11-28 09:34:33 GMT 50.820194 8.168564 10,025 280 340 0
2021-11-28 09:34:30 GMT 50.819218 8.177261 10,025 284 341 -64
2021-11-28 09:34:27 GMT 50.818176 8.183553 10,025 288 340 -64
2021-11-28 09:34:23 GMT 50.816143 8.193207 10,050 291 340 0
2021-11-28 09:34:20 GMT 50.813908 8.202438 10,050 292 340 0
2021-11-28 09:34:17 GMT 50.812820 8.206936 10,050 292 340 0
2021-11-28 09:34:14 GMT 50.810852 8.215027 10,050 292 340 0
2021-11-28 09:34:11 GMT 50.807648 8.227943 10,050 292 340 64
2021-11-28 09:34:08 GMT 50.807648 8.227943 10,050 292 340 64
2021-11-28 09:34:05 GMT 50.805950 8.234863 10,050 292 340 64
2021-11-28 09:34:02 GMT 50.804134 8.242188 10,050 292 340 0
2021-11-28 09:33:59 GMT 50.802689 8.248062 10,050 292 340 0
2021-11-28 09:33:55 GMT 50.800549 8.256912 10,050 292 339 0
2021-11-28 09:33:52 GMT 50.798874 8.263779 10,050 292 339 0
2021-11-28 09:33:48 GMT 50.796219 8.274612 10,050 291 340 0
2021-11-28 09:33:45 GMT 50.794693 8.281019 10,050 291 340 0
2021-11-28 09:33:42 GMT 50.793274 8.286883 10,050 291 340 0
2021-11-28 09:33:39 GMT 50.791237 8.295441 10,050 291 339 0
2021-11-28 09:33:35 GMT 50.788586 8.306503 10,050 291 339 0
2021-11-28 09:33:32 GMT 50.787514 8.310852 10,050 291 339 0
2021-11-28 09:33:29 GMT 50.785858 8.317764 10,050 291 339 0
2021-11-28 09:33:26 GMT 50.784439 8.323777 10,050 291 339 0
2021-11-28 09:33:22 GMT 50.780136 8.341741 10,050 291 339 0
2021-11-28 09:33:19 GMT 50.780136 8.341741 10,050 291 340 0
2021-11-28 09:33:16 GMT 50.778625 8.347976 10,025 291 340 0
2021-11-28 09:33:13 GMT 50.776901 8.355255 10,050 291 340 64
2021-11-28 09:33:10 GMT 50.774570 8.364792 10,050 292 340 0
2021-11-28 09:33:07 GMT 50.773037 8.371048 10,025 292 340 -64
2021-11-28 09:33:04 GMT 50.771687 8.376694 10,050 292 340 -64
2021-11-28 09:33:00 GMT 50.769424 8.385760 10,050 291 341 0
2021-11-28 09:32:57 GMT 50.767681 8.393097 10,050 291 341 0
2021-11-28 09:32:53 GMT 50.765495 8.402100 10,050 291 341 0
2021-11-28 09:32:50 GMT 50.763493 8.410416 10,050 291 341 0
2021-11-28 09:32:46 GMT 50.761490 8.418579 10,050 291 341 0
2021-11-28 09:32:43 GMT 50.759857 8.425400 10,050 291 341 0
2021-11-28 09:32:40 GMT 50.758419 8.431396 10,050 291 341 0
2021-11-28 09:32:37 GMT 50.756462 8.439331 10,050 292 341 0
2021-11-28 09:32:34 GMT 50.754833 8.445969 10,050 292 340 0
2021-11-28 09:32:31 GMT 50.753063 8.453369 10,050 292 340 64
2021-11-28 09:32:28 GMT 50.750931 8.461922 10,050 292 340 0
2021-11-28 09:32:25 GMT 50.749878 8.466154 10,050 292 340 64
2021-11-28 09:32:22 GMT 50.747898 8.474274 10,050 292 339 0
2021-11-28 09:32:19 GMT 50.746674 8.479144 10,050 292 340 0
2021-11-28 09:32:15 GMT 50.744110 8.489537 10,025 292 339 0
2021-11-28 09:32:11 GMT 50.741776 8.498890 10,050 292 340 0
2021-11-28 09:32:08 GMT 50.739624 8.507575 10,050 292 340 0
2021-11-28 09:32:04 GMT 50.737236 8.517227 10,025 292 340 0
2021-11-28 09:32:01 GMT 50.735550 8.524129 10,050 292 340 0
2021-11-28 09:31:57 GMT 50.733837 8.531036 10,050 292 340 0
2021-11-28 09:31:54 GMT 50.731697 8.539658 10,050 292 340 0
2021-11-28 09:31:51 GMT 50.730255 8.545532 10,050 292 340 0
2021-11-28 09:31:48 GMT 50.728638 8.552114 10,050 292 340 0
2021-11-28 09:31:45 GMT 50.726345 8.561172 10,050 292 339 0
2021-11-28 09:31:42 GMT 50.725113 8.566144 10,050 292 339 64
2021-11-28 09:31:39 GMT 50.723690 8.571930 10,050 292 339 64
2021-11-28 09:31:36 GMT 50.721783 8.579559 10,050 292 339 0
2021-11-28 09:31:33 GMT 50.720104 8.586273 10,025 292 339 0
2021-11-28 09:31:30 GMT 50.718292 8.593597 10,025 292 339 -64
2021-11-28 09:31:27 GMT 50.716568 8.600388 10,050 292 339 -192
2021-11-28 09:31:23 GMT 50.714474 8.608780 10,050 292 339 -256
2021-11-28 09:31:19 GMT 50.712112 8.618329 10,075 292 339 -320
2021-11-28 09:31:16 GMT 50.709770 8.627625 10,100 292 339 -384
2021-11-28 09:31:13 GMT 50.708561 8.632507 10,100 292 339 -512
2021-11-28 09:31:08 GMT 50.705841 8.643419 10,150 292 340 -640
2021-11-28 09:31:05 GMT 50.703999 8.650665 10,175 292 341 -896
2021-11-28 09:31:02 GMT 50.702591 8.656336 10,200 292 341 -896
2021-11-28 09:30:59 GMT 50.700348 8.665244 10,275 292 341 -960
2021-11-28 09:30:56 GMT 50.698883 8.671182 10,325 292 342 -1024
2021-11-28 09:30:53 GMT 50.696644 8.680191 10,350 292 342 -960
2021-11-28 09:30:50 GMT 50.693253 8.694046 10,450 292 343 -960
2021-11-28 09:30:47 GMT 50.693253 8.694046 10,550 292 343 -960
2021-11-28 09:30:44 GMT 50.691788 8.699910 10,550 292 343 -960
2021-11-28 09:30:41 GMT 50.690033 8.707047 10,575 292 343 -960
2021-11-28 09:30:38 GMT 50.688030 8.715210 10,600 292 344 -960
2021-11-28 09:30:34 GMT 50.686020 8.723367 10,675 292 343 -960
2021-11-28 09:30:31 GMT 50.683731 8.732572 10,725 292 343 -960
2021-11-28 09:30:28 GMT 50.682865 8.736038 10,750 292 343 -960
2021-11-28 09:30:24 GMT 50.680305 8.746414 10,825 292 343 -832
2021-11-28 09:30:21 GMT 50.678467 8.753728 10,875 292 343 -768
2021-11-28 09:30:17 GMT 50.676178 8.762933 10,925 292 342 -576
2021-11-28 09:30:14 GMT 50.674438 8.769989 10,975 292 342 -448
2021-11-28 09:30:11 GMT 50.672379 8.778225 10,975 292 340 0
2021-11-28 09:30:08 GMT 50.671131 8.783124 11,000 292 342 -384
2021-11-28 09:30:05 GMT 50.669411 8.790102 11,025 292 341 -320
2021-11-28 09:30:02 GMT 50.667686 8.796931 11,025 292 341 0
2021-11-28 09:29:59 GMT 50.666061 8.803446 11,025 292 341 64
2021-11-28 09:29:56 GMT 50.663727 8.812914 11,025 292 341 64
2021-11-28 09:29:53 GMT 50.662800 8.816603 11,025 292 341 0
2021-11-28 09:29:50 GMT 50.660797 8.824768 11,025 292 341 64
2021-11-28 09:29:47 GMT 50.658424 8.834270 11,025 292 340 64
2021-11-28 09:29:44 GMT 50.656952 8.840236 11,025 292 340 64
2021-11-28 09:29:41 GMT 50.655899 8.844572 11,025 292 340 0
2021-11-28 09:29:38 GMT 50.653976 8.852306 11,000 292 340 0
2021-11-28 09:29:35 GMT 50.651814 8.860919 11,025 292 341 -64
2021-11-28 09:29:32 GMT 50.650085 8.867918 11,025 292 341 -64
2021-11-28 09:29:29 GMT 50.648987 8.872183 11,025 292 341 -64
2021-11-28 09:29:26 GMT 50.647018 8.880133 11,025 292 342 -64
2021-11-28 09:29:23 GMT 50.645233 8.887289 11,025 292 342 0
2021-11-28 09:29:20 GMT 50.643482 8.894249 11,025 292 341 64
2021-11-28 09:29:16 GMT 50.640976 8.904202 11,025 292 342 64
2021-11-28 09:29:13 GMT 50.639339 8.910803 11,025 292 341 0
2021-11-28 09:29:10 GMT 50.637863 8.916706 11,025 292 341 0
2021-11-28 09:29:07 GMT 50.636078 8.923793 11,025 292 341 0
2021-11-28 09:29:03 GMT 50.633698 8.933403 11,025 292 343 0
2021-11-28 09:29:00 GMT 50.631866 8.940920 11,025 292 341 0
2021-11-28 09:28:57 GMT 50.630447 8.946805 11,025 292 342 64
2021-11-28 09:28:53 GMT 50.628071 8.956456 11,025 292 342 -64
2021-11-28 09:28:50 GMT 50.626163 8.964176 11,025 292 342 0
2021-11-28 09:28:46 GMT 50.623650 8.974271 11,025 292 342 64
2021-11-28 09:28:43 GMT 50.622253 8.979913 11,025 292 342 64
2021-11-28 09:28:39 GMT 50.620159 8.988375 11,025 292 342 64
2021-11-28 09:28:36 GMT 50.618500 8.995128 11,025 292 342 0
2021-11-28 09:28:33 GMT 50.616528 9.003147 11,025 292 343 0
2021-11-28 09:28:30 GMT 50.614151 9.012620 11,025 292 343 0
2021-11-28 09:28:26 GMT 50.612476 9.019404 11,025 292 343 0
2021-11-28 09:28:23 GMT 50.610477 9.027496 11,025 292 343 0
2021-11-28 09:28:20 GMT 50.607010 9.041314 11,025 292 343 0
2021-11-28 09:28:17 GMT 50.607010 9.041314 11,025 292 343 0
2021-11-28 09:28:13 GMT 50.604309 9.052228 11,025 292 343 0
2021-11-28 09:28:09 GMT 50.602798 9.058228 11,025 292 343 0
2021-11-28 09:28:06 GMT 50.600235 9.068347 11,025 292 343 0
2021-11-28 09:28:01 GMT 50.598083 9.076731 11,025 292 343 0
2021-11-28 09:27:58 GMT 50.596024 9.084971 11,025 292 341 0
2021-11-28 09:27:55 GMT 50.594238 9.092054 11,025 292 342 0
2021-11-28 09:27:53 GMT 50.592552 9.098610 11,025 292 342 0
2021-11-28 09:27:50 GMT 50.591480 9.102841 11,025 292 341 0
2021-11-28 09:27:47 GMT 50.589619 9.110116 11,025 292 341 0
2021-11-28 09:27:44 GMT 50.588131 9.115980 11,025 292 341 0
2021-11-28 09:27:41 GMT 50.586361 9.123106 11,000 292 341 0
2021-11-28 09:27:38 GMT 50.584545 9.130233 11,000 292 341 0
2021-11-28 09:27:35 GMT 50.582729 9.137359 11,025 292 341 0
2021-11-28 09:27:32 GMT 50.581100 9.143891 11,025 292 341 0
2021-11-28 09:27:29 GMT 50.579086 9.151756 11,000 292 341 0
2021-11-28 09:27:24 GMT 50.576305 9.162746 11,025 292 341 0
2021-11-28 09:27:22 GMT 50.575188 9.167126 11,025 292 341 0
2021-11-28 09:27:19 GMT 50.573547 9.173584 11,025 292 341 0
2021-11-28 09:27:16 GMT 50.571186 9.182863 11,025 292 340 0
2021-11-28 09:27:13 GMT 50.569977 9.187678 11,025 292 341 0
2021-11-28 09:27:10 GMT 50.567963 9.195484 11,025 292 340 0
2021-11-28 09:27:07 GMT 50.564575 9.208711 11,025 292 340 64
2021-11-28 09:27:04 GMT 50.564575 9.208711 11,025 292 340 64
2021-11-28 09:27:01 GMT 50.562527 9.216713 11,025 292 340 0
2021-11-28 09:26:58 GMT 50.561234 9.221721 11,000 292 340 0
2021-11-28 09:26:55 GMT 50.558849 9.231114 11,025 292 341 0
2021-11-28 09:26:52 GMT 50.557617 9.236105 11,000 292 341 0
2021-11-28 09:26:49 GMT 50.555786 9.243333 11,025 292 340 0
2021-11-28 09:26:45 GMT 50.553360 9.252873 11,025 292 340 0
2021-11-28 09:26:41 GMT 50.551437 9.260535 11,025 292 340 0
2021-11-28 09:26:38 GMT 50.549194 9.269498 11,025 292 340 -64
2021-11-28 09:26:34 GMT 50.547546 9.276075 11,025 292 340 -64
2021-11-28 09:26:31 GMT 50.545723 9.283299 11,025 292 340 -64
2021-11-28 09:26:27 GMT 50.542648 9.295662 11,025 292 339 0
2021-11-28 09:26:24 GMT 50.541439 9.300446 11,025 292 340 64
2021-11-28 09:26:21 GMT 50.539673 9.307516 11,025 292 340 64
2021-11-28 09:26:17 GMT 50.537750 9.315250 11,025 292 340 64
2021-11-28 09:26:14 GMT 50.535461 9.324574 11,025 292 339 0
2021-11-28 09:26:12 GMT 50.534641 9.327912 11,025 292 339 0
2021-11-28 09:26:09 GMT 50.532780 9.335558 11,025 292 339 0
2021-11-28 09:26:05 GMT 50.530655 9.344089 11,025 292 340 0
2021-11-28 09:26:02 GMT 50.528313 9.353671 11,025 292 340 0
2021-11-28 09:25:59 GMT 50.526581 9.360641 11,025 292 340 0
2021-11-28 09:25:55 GMT 50.524933 9.367435 11,025 292 340 0
2021-11-28 09:25:51 GMT 50.522072 9.378910 11,025 292 340 0
2021-11-28 09:25:48 GMT 50.521179 9.382541 11,025 292 339 0
2021-11-28 09:25:44 GMT 50.518955 9.391529 11,025 292 340 0
2021-11-28 09:25:41 GMT 50.517044 9.399175 11,025 292 339 0
2021-11-28 09:25:38 GMT 50.514633 9.408778 11,025 292 339 0
2021-11-28 09:25:35 GMT 50.513134 9.414689 11,025 292 340 0
2021-11-28 09:25:32 GMT 50.511749 9.420198 11,025 292 340 0
2021-11-28 09:25:28 GMT 50.509270 9.429907 11,025 292 340 0
2021-11-28 09:25:24 GMT 50.506989 9.438815 11,025 293 340 0
2021-11-28 09:25:21 GMT 50.505295 9.445496 11,025 292 340 0
2021-11-28 09:25:18 GMT 50.503784 9.451495 11,000 293 340 0
2021-11-28 09:25:14 GMT 50.501080 9.461975 11,025 293 341 0
2021-11-28 09:25:11 GMT 50.499390 9.468408 11,000 293 341 0
2021-11-28 09:25:08 GMT 50.497650 9.475130 11,025 293 340 0
2021-11-28 09:25:04 GMT 50.495773 9.482358 11,000 293 341 0
2021-11-28 09:25:01 GMT 50.493439 9.491320 11,000 293 341 0
2021-11-28 09:24:58 GMT 50.491791 9.497536 11,000 293 341 0
2021-11-28 09:24:54 GMT 50.489300 9.507034 11,025 293 341 0
2021-11-28 09:24:50 GMT 50.486847 9.516256 11,025 293 340 0
2021-11-28 09:24:47 GMT 50.484970 9.523291 11,025 294 340 0
2021-11-28 09:24:44 GMT 50.483322 9.529555 11,025 293 339 0
2021-11-28 09:24:39 GMT 50.477940 9.549569 11,025 293 340 0
2021-11-28 09:24:36 GMT 50.477940 9.549569 11,025 293 340 64
2021-11-28 09:24:33 GMT 50.476360 9.555656 11,025 293 340 64
2021-11-28 09:24:30 GMT 50.475147 9.560258 11,025 293 340 0
2021-11-28 09:24:27 GMT 50.471703 9.573694 11,025 293 340 64
2021-11-28 09:24:24 GMT 50.471703 9.573694 11,025 293 339 64
2021-11-28 09:24:21 GMT 50.469269 9.582969 11,000 293 339 64
2021-11-28 09:24:18 GMT 50.467255 9.590848 11,000 293 339 0
2021-11-28 09:24:14 GMT 50.465141 9.598933 11,000 293 340 0
2021-11-28 09:24:10 GMT 50.463043 9.606893 11,050 293 340 -192
2021-11-28 09:24:07 GMT 50.461227 9.613854 11,050 293 340 -192
2021-11-28 09:24:02 GMT 50.458374 9.624819 11,050 293 341 -576
2021-11-28 09:23:58 GMT 50.455971 9.634045 11,050 293 340 -320
2021-11-28 09:23:55 GMT 50.453522 9.643539 11,100 293 340 -512
2021-11-28 09:23:52 GMT 50.452332 9.648092 11,100 293 341 -576
2021-11-28 09:23:49 GMT 50.448990 9.660885 11,150 293 341 -768
2021-11-28 09:23:46 GMT 50.446938 9.668934 11,225 292 341 -960
2021-11-28 09:23:43 GMT 50.446938 9.668934 11,225 293 342 -896
2021-11-28 09:23:40 GMT 50.445122 9.675912 11,275 292 341 -960
2021-11-28 09:23:37 GMT 50.443634 9.681629 11,400 292 341 -960
2021-11-28 09:23:33 GMT 50.441437 9.690231 11,350 292 341 -960
2021-11-28 09:23:30 GMT 50.439285 9.698543 11,475 292 342 -1024
2021-11-28 09:23:27 GMT 50.437180 9.706710 11,475 292 342 -1024
2021-11-28 09:23:23 GMT 50.435066 9.714883 11,600 292 342 -1024
2021-11-28 09:23:20 GMT 50.432877 9.723334 11,600 292 342 -1024
2021-11-28 09:23:17 GMT 50.431667 9.728022 11,650 292 342 -1024
2021-11-28 09:23:14 GMT 50.429714 9.735743 11,700 292 342 -1024
2021-11-28 09:23:11 GMT 50.428268 9.741310 11,725 292 342 -1024
2021-11-28 09:23:08 GMT 50.426376 9.748632 11,775 292 342 -1024
2021-11-28 09:23:04 GMT 50.423473 9.759868 11,875 293 344 -1024
2021-11-28 09:23:01 GMT 50.422359 9.764248 11,900 293 343 -1024
2021-11-28 09:22:58 GMT 50.419830 9.774001 11,975 293 344 -1024
2021-11-28 09:22:52 GMT 50.416901 9.785204 12,075 293 344 -1024
2021-11-28 09:22:49 GMT 50.414932 9.792721 12,100 293 344 -1024
2021-11-28 09:22:46 GMT 50.413147 9.799732 12,175 293 344 -1024
2021-11-28 09:22:43 GMT 50.411316 9.806599 12,200 293 344 -1024
2021-11-28 09:22:40 GMT 50.409740 9.812647 12,250 293 344 -1024
2021-11-28 09:22:37 GMT 50.407562 9.821127 12,325 293 344 -1024
2021-11-28 09:22:34 GMT 50.405273 9.829869 12,400 293 344 -1024
2021-11-28 09:22:31 GMT 50.404064 9.834545 12,450 293 343 -1024
2021-11-28 09:22:28 GMT 50.402527 9.840410 12,450 293 343 -1024
2021-11-28 09:22:24 GMT 50.399689 9.851247 12,525 293 343 -1024
2021-11-28 09:22:20 GMT 50.397217 9.860591 12,600 293 343 -1024
2021-11-28 09:22:16 GMT 50.395172 9.868395 12,750 293 343 -1088
2021-11-28 09:22:11 GMT 50.392365 9.879022 12,750 293 343 -1088
2021-11-28 09:22:10 GMT 50.391266 9.883069 12,775 293 343 -1088
2021-11-28 09:22:09 GMT 50.390579 9.885672 12,800 293 343 -1088
2021-11-28 09:22:07 GMT 50.389355 9.890293 12,875 293 343 -1088
2021-11-28 09:22:04 GMT 50.388096 9.895044 12,875 293 343 -1088
2021-11-28 09:22:02 GMT 50.386871 9.899549 12,975 293 344 -1024
2021-11-28 09:21:59 GMT 50.384418 9.908851 12,975 293 344 -1024
2021-11-28 09:21:58 GMT 50.383850 9.910897 12,975 293 344 -1024
2021-11-28 09:21:57 GMT 50.383209 9.913282 13,000 293 344 -1024
2021-11-28 09:21:56 GMT 50.382648 9.915310 13,025 293 344 -1024
2021-11-28 09:21:51 GMT 50.379623 9.926667 13,100 293 345 -1024
2021-11-28 09:21:48 GMT 50.377991 9.932797 13,200 293 345 -1024
2021-11-28 09:21:45 GMT 50.376366 9.938767 13,225 293 345 -1024
2021-11-28 09:21:42 GMT 50.371662 9.956137 13,275 293 345 -1024
2021-11-28 09:21:38 GMT 50.371662 9.956137 13,325 293 345 -1024
2021-11-28 09:21:34 GMT 50.369156 9.965539 13,400 293 345 -1024
2021-11-28 09:21:31 GMT 50.367645 9.971177 13,475 293 345 -1024
2021-11-28 09:21:28 GMT 50.365517 9.979001 13,725 293 345 -1088
2021-11-28 09:21:24 GMT 50.361187 9.995183 13,625 293 345 -1024
2021-11-28 09:21:21 GMT 50.361187 9.995183 13,650 293 346 -1088
2021-11-28 09:21:18 GMT 50.359360 10.002112 13,725 293 345 -1088
2021-11-28 09:21:15 GMT 50.357510 10.008990 13,750 293 345 -1088
2021-11-28 09:21:12 GMT 50.355515 10.016496 13,825 293 346 -1088
2021-11-28 09:21:09 GMT 50.353645 10.023466 13,875 293 347 -1152
2021-11-28 09:21:06 GMT 50.351898 10.030156 13,925 293 348 -1280
2021-11-28 09:21:03 GMT 50.349457 10.039277 14,000 293 349 -1600
2021-11-28 09:21:00 GMT 50.348145 10.044323 14,050 293 351 -2048
2021-11-28 09:20:57 GMT 50.346573 10.050263 14,150 293 351 -2048
2021-11-28 09:20:54 GMT 50.344894 10.056755 14,450 292 358 -1664
2021-11-28 09:20:51 GMT 50.342743 10.064922 14,400 293 353 -1984
2021-11-28 09:20:48 GMT 50.340775 10.072439 14,525 293 355 -1856
2021-11-28 09:20:45 GMT 50.338943 10.079450 14,600 293 356 -1728
2021-11-28 09:20:42 GMT 50.337170 10.086266 14,800 292 358 -1728
2021-11-28 09:20:39 GMT 50.334732 10.095640 14,800 292 358 -1728
2021-11-28 09:20:36 GMT 50.332932 10.102671 14,850 292 359 -1664
2021-11-28 09:20:32 GMT 50.330650 10.111653 14,950 292 362 -1280
2021-11-28 09:20:28 GMT 50.327950 10.122120 15,025 292 366 -1024
2021-11-28 09:20:24 GMT 50.326035 10.129828 15,075 292 367 -1024
2021-11-28 09:20:21 GMT 50.322086 10.145354 15,550 297 376 -2048
2021-11-28 09:20:18 GMT 50.322086 10.145354 17,950 305 386 -3584
2021-11-28 09:20:15 GMT 50.319580 10.154403 15,500 295 373 -2240
2021-11-28 09:20:10 GMT 50.316311 10.165174 16,425 297 376 -2048
2021-11-28 09:20:07 GMT 50.314316 10.171244 15,600 298 377 -2304
2021-11-28 09:20:03 GMT 50.309692 10.184182 15,875 302 377 -3584
2021-11-28 09:20:00 GMT 50.307884 10.188780 16,075 304 378 -3520
2021-11-28 09:19:56 GMT 50.304977 10.195891 16,150 304 378 -3520
2021-11-28 09:19:53 GMT 50.301956 10.202829 16,400 305 382 -3392
2021-11-28 09:19:50 GMT 50.298523 10.210780 16,625 305 383 -3520
2021-11-28 09:19:47 GMT 50.295090 10.218514 17,000 305 386 -3584
2021-11-28 09:19:44 GMT 50.291153 10.227476 16,975 305 387 -3648
2021-11-28 09:19:40 GMT 50.287449 10.235843 17,325 305 387 -3584
2021-11-28 09:19:37 GMT 50.285309 10.240594 17,575 306 390 -3456
2021-11-28 09:19:34 GMT 50.277161 10.257742 17,675 308 392 -3520
2021-11-28 09:19:30 GMT 50.277161 10.257742 17,850 312 396 -3456
2021-11-28 09:19:27 GMT 50.273624 10.264274 17,950 313 396 -3520
2021-11-28 09:19:23 GMT 50.269089 10.271639 18,150 316 399 -3520
2021-11-28 09:19:20 GMT 50.265060 10.277493 19,875 342 422 -4096
2021-11-28 09:19:17 GMT 50.261009 10.282609 18,775 326 407 -3776
2021-11-28 09:19:14 GMT 50.255562 10.288622 18,925 331 412 -3840
2021-11-28 09:19:11 GMT 50.250580 10.293299 18,900 332 412 -3840
2021-11-28 09:19:07 GMT 50.244598 10.298092 19,375 355 432 -4288
2021-11-28 09:19:04 GMT 50.237869 10.302429 19,450 343 422 -4224
2021-11-28 09:19:01 GMT 50.233215 10.304953 19,650 344 424 -4224
2021-11-28 09:18:58 GMT 50.228851 10.306910 19,825 348 426 -4352
2021-11-28 09:18:55 GMT 50.223209 10.308962 20,000 352 430 -4224
2021-11-28 09:18:52 GMT 50.217014 10.310595 20,125 353 431 -4288
2021-11-28 09:18:49 GMT 50.210033 10.311708 20,675 359 435 -4608
2021-11-28 09:18:46 GMT 50.204494 10.312005 20,900 7 438 -5312
2021-11-28 09:18:43 GMT 50.198536 10.311782 20,800 5 438 -5184
2021-11-28 09:18:40 GMT 50.191956 10.310886 21,350 8 438 -5440
2021-11-28 09:18:37 GMT 50.186153 10.309481 21,350 10 438 -5504
2021-11-28 09:18:34 GMT 50.180511 10.307633 22,650 16 438 -5760
2021-11-28 09:18:31 GMT 50.173954 10.304805 22,650 30 433 -6720
2021-11-28 09:18:28 GMT 50.169937 10.302718 22,650 30 433 -6720
2021-11-28 09:18:25 GMT 50.163387 10.298569 22,650 30 433 -6720
2021-11-28 09:18:22 GMT 50.156845 10.293611 22,900 34 429 -7104
2021-11-28 09:18:21 GMT 50.155060 10.292021 23,000 34 429 -7104
2021-11-28 09:18:18 GMT 50.151333 10.288548 23,650 34 429 -7104
2021-11-28 09:18:15 GMT 50.146179 10.283131 23,650 36 427 -6912
2021-11-28 09:18:13 GMT 50.143650 10.280234 23,900 38 425 -6400
2021-11-28 09:18:10 GMT 50.136528 10.271029 24,325 42 425 -5056
2021-11-28 09:18:07 GMT 50.134232 10.267663 24,875 48 425 -4032
2021-11-28 09:18:04 GMT 50.129356 10.260117 24,875 48 425 -4032
2021-11-28 09:18:01 GMT 50.126194 10.254401 24,875 50 426 -4032
2021-11-28 09:17:58 GMT 50.121277 10.244462 25,225 55 427 -3968
2021-11-28 09:17:55 GMT 50.119164 10.239555 25,350 60 427 -4032
2021-11-28 09:17:52 GMT 50.115623 10.230498 25,925 63 427 -3968
2021-11-28 09:17:48 GMT 50.110016 10.212153 25,925 69 427 -3968
2021-11-28 09:17:45 GMT 50.110016 10.212153 25,925 69 427 -3968
2021-11-28 09:17:44 GMT 50.109375 10.209624 25,975 69 427 -3968
2021-11-28 09:17:42 GMT 50.107727 10.202107 26,225 73 427 -3968
2021-11-28 09:17:39 GMT 50.106171 10.193795 26,425 76 427 -4096
2021-11-28 09:17:36 GMT 50.103882 10.175653 26,675 90 428 -3904
2021-11-28 09:17:33 GMT 50.103882 10.175653 26,675 90 428 -3904
2021-11-28 09:17:30 GMT 50.103287 10.166184 27,050 90 428 -3904
2021-11-28 09:17:27 GMT 50.103058 10.156860 27,350 90 428 -3904
2021-11-28 09:17:24 GMT 50.103149 10.148843 27,350 92 428 -3840
2021-11-28 09:17:22 GMT 50.103378 10.143344 27,450 95 428 -3904
2021-11-28 09:17:21 GMT 50.103569 10.139713 27,525 97 428 -4032
2021-11-28 09:17:20 GMT 50.103790 10.136911 27,600 97 428 -4032
2021-11-28 09:17:17 GMT 50.104523 10.128961 27,775 99 429 -4160
2021-11-28 09:17:15 GMT 50.105522 10.121452 28,125 105 430 -3648
2021-11-28 09:17:12 GMT 50.107014 10.112395 28,125 106 430 -3520
2021-11-28 09:17:11 GMT 50.107544 10.109807 28,175 107 431 -3456
2021-11-28 09:17:10 GMT 50.108185 10.106555 28,250 109 432 -3328
2021-11-28 09:17:07 GMT 50.109993 10.098440 28,400 110 433 -3200
2021-11-28 09:17:05 GMT 50.111481 10.092353 28,475 111 434 -3392
2021-11-28 09:17:04 GMT 50.112259 10.089135 28,550 111 436 -3456
2021-11-28 09:17:03 GMT 50.113037 10.086172 28,600 111 436 -3456
2021-11-28 09:17:02 GMT 50.114925 10.078768 28,750 111 437 -3392
2021-11-28 09:16:59 GMT 50.115692 10.075908 28,800 112 439 -3392
2021-11-28 09:16:58 GMT 50.116791 10.071716 28,875 111 439 -3456
2021-11-28 09:16:56 GMT 50.118420 10.065332 29,000 111 441 -3712
2021-11-28 09:16:55 GMT 50.119255 10.062140 29,050 111 441 -3712
2021-11-28 09:16:53 GMT 50.120792 10.056202 29,175 111 443 -3712
2021-11-28 09:16:52 GMT 50.121552 10.053285 29,250 111 443 -3712
2021-11-28 09:16:50 GMT 50.123726 10.044770 29,375 111 445 -3712
2021-11-28 09:16:49 GMT 50.123726 10.044770 29,425 111 445 -3712
2021-11-28 09:16:48 GMT 50.124748 10.040762 29,500 111 446 -3712
2021-11-28 09:16:47 GMT 50.125580 10.037601 29,550 111 446 -3776
2021-11-28 09:16:44 GMT 50.127594 10.029578 29,725 111 447 -3904
2021-11-28 09:16:42 GMT 50.129219 10.023391 30,025 111 449 -3776
2021-11-28 09:16:39 GMT 50.131714 10.013604 30,075 111 451 -3456
2021-11-28 09:16:37 GMT 50.133270 10.007506 30,175 111 451 -3456
2021-11-28 09:16:36 GMT 50.134014 10.004685 30,225 111 451 -3520
2021-11-28 09:16:34 GMT 50.135551 9.998598 30,325 111 452 -3648
2021-11-28 09:16:31 GMT 50.137527 9.990692 30,525 111 453 -3520
2021-11-28 09:16:30 GMT 50.139084 9.984548 30,625 111 456 -2496
2021-11-28 09:16:28 GMT 50.140137 9.980356 30,700 111 456 -2496
2021-11-28 09:16:27 GMT 50.140858 9.977516 30,725 111 457 -2176
2021-11-28 09:16:26 GMT 50.142300 9.971800 30,775 111 459 -1792
2021-11-28 09:16:23 GMT 50.143799 9.965756 30,850 111 460 -1344
2021-11-28 09:16:21 GMT 50.145420 9.959403 30,925 111 461 -704
2021-11-28 09:16:20 GMT 50.146179 9.956360 30,950 111 461 -640
2021-11-28 09:16:18 GMT 50.148121 9.948491 30,975 111 462 -256
2021-11-28 09:16:14 GMT 50.153046 9.928822 31,000 111 463 0
2021-11-28 09:16:11 GMT 50.153046 9.928822 31,000 111 462 0
2021-11-28 09:16:08 GMT 50.155518 9.918920 31,000 111 463 -128
2021-11-28 09:16:05 GMT 50.158173 9.908109 31,000 111 462 128
2021-11-28 09:16:02 GMT 50.159866 9.901356 31,000 111 463 0
2021-11-28 09:15:59 GMT 50.162659 9.890008 31,000 111 463 0
2021-11-28 09:15:56 GMT 50.164673 9.882058 30,975 111 463 64
2021-11-28 09:15:53 GMT 50.166927 9.872923 30,975 111 463 64
2021-11-28 09:15:50 GMT 50.169250 9.863699 30,975 111 463 64
2021-11-28 09:15:47 GMT 50.172001 9.852584 30,975 111 463 64
2021-11-28 09:15:44 GMT 50.174236 9.843527 30,975 111 462 128
2021-11-28 09:15:41 GMT 50.176208 9.835655 30,975 111 462 -64
2021-11-28 09:15:38 GMT 50.178177 9.827849 30,975 111 462 -64
2021-11-28 09:15:36 GMT 50.180428 9.818808 30,975 111 462 -64
2021-11-28 09:15:33 GMT 50.182388 9.810863 30,975 111 462 0
2021-11-28 09:15:30 GMT 50.185043 9.800238 30,975 111 461 0
2021-11-28 09:15:27 GMT 50.188934 9.784771 31,000 111 461 0
2021-11-28 09:15:24 GMT 50.188934 9.784771 31,000 111 461 -128
2021-11-28 09:15:21 GMT 50.191692 9.773749 31,000 111 461 -64
2021-11-28 09:15:18 GMT 50.194336 9.763160 31,000 111 461 -64
2021-11-28 09:15:15 GMT 50.196716 9.753619 31,000 111 461 -64
2021-11-28 09:15:11 GMT 50.199509 9.742416 31,000 111 461 0
2021-11-28 09:15:08 GMT 50.201477 9.734610 31,000 111 461 0
2021-11-28 09:15:06 GMT 50.206078 9.716145 31,025 111 461 -64
2021-11-28 09:15:03 GMT 50.206078 9.716145 31,000 111 461 -64
2021-11-28 09:15:00 GMT 50.208637 9.705827 31,000 111 461 -64
2021-11-28 09:14:57 GMT 50.209946 9.700639 31,025 111 460 -128
2021-11-28 09:14:54 GMT 50.212639 9.689867 31,025 111 460 -128
2021-11-28 09:14:51 GMT 50.214615 9.681918 31,025 111 461 0
2021-11-28 09:14:48 GMT 50.217388 9.670715 31,000 111 461 64
2021-11-28 09:14:44 GMT 50.220833 9.656685 31,000 111 462 64
2021-11-28 09:14:40 GMT 50.222694 9.649114 31,000 111 462 64
2021-11-28 09:14:37 GMT 50.225372 9.638335 31,000 110 463 0
2021-11-28 09:14:34 GMT 50.227352 9.630185 31,000 110 463 0
2021-11-28 09:14:31 GMT 50.230042 9.619398 31,000 110 462 -64
2021-11-28 09:14:28 GMT 50.232559 9.609062 31,000 111 462 -64
2021-11-28 09:14:26 GMT 50.233337 9.605882 31,000 111 462 -64
2021-11-28 09:14:23 GMT 50.236149 9.594405 31,000 111 462 0
2021-11-28 09:14:20 GMT 50.238785 9.583837 31,000 110 463 64
2021-11-28 09:14:16 GMT 50.242355 9.569236 31,000 110 463 0
2021-11-28 09:14:13 GMT 50.243958 9.562731 31,000 110 463 0
2021-11-28 09:14:10 GMT 50.246613 9.551817 31,000 110 464 0
2021-11-28 09:14:07 GMT 50.250954 9.533980 31,000 110 464 64
2021-11-28 09:14:04 GMT 50.250954 9.533980 31,000 110 464 0
2021-11-28 09:14:01 GMT 50.253048 9.525369 31,000 110 463 128
2021-11-28 09:13:58 GMT 50.256214 9.512453 31,000 110 463 0
2021-11-28 09:13:55 GMT 50.257332 9.507925 31,000 110 463 128
2021-11-28 09:13:52 GMT 50.259796 9.497753 30,975 110 463 -64
2021-11-28 09:13:49 GMT 50.261810 9.489658 30,975 110 463 -64
2021-11-28 09:13:46 GMT 50.264511 9.478671 30,975 110 463 -64
2021-11-28 09:13:44 GMT 50.266617 9.469926 31,000 110 462 0
2021-11-28 09:13:41 GMT 50.268269 9.463163 31,000 111 462 0
2021-11-28 09:13:38 GMT 50.270924 9.452399 31,000 111 462 0
2021-11-28 09:13:36 GMT 50.271973 9.448170 31,000 110 461 -64
2021-11-28 09:13:33 GMT 50.274368 9.438369 31,000 110 462 -64
2021-11-28 09:13:30 GMT 50.278885 9.419909 31,000 110 461 64
2021-11-28 09:13:27 GMT 50.278885 9.419909 31,000 110 461 64
2021-11-28 09:13:24 GMT 50.280838 9.411943 31,000 110 461 64
2021-11-28 09:13:21 GMT 50.283829 9.399816 30,975 110 461 64
2021-11-28 09:13:17 GMT 50.286053 9.390638 31,000 110 461 -128
2021-11-28 09:13:15 GMT 50.288010 9.382547 31,000 110 463 -64
2021-11-28 09:13:12 GMT 50.291267 9.369259 31,000 110 461 -64
2021-11-28 09:13:09 GMT 50.292568 9.363989 31,000 110 461 -64
2021-11-28 09:13:06 GMT 50.294899 9.354413 31,000 110 461 0
2021-11-28 09:13:03 GMT 50.298019 9.341704 31,000 110 461 64
2021-11-28 09:12:59 GMT 50.300720 9.330573 31,000 110 461 64
2021-11-28 09:12:56 GMT 50.302673 9.322642 30,975 110 462 64
2021-11-28 09:12:53 GMT 50.304840 9.313732 30,975 110 462 128
2021-11-28 09:12:50 GMT 50.307049 9.304678 30,975 110 462 0
2021-11-28 09:12:47 GMT 50.309422 9.294805 30,975 110 462 0
2021-11-28 09:12:44 GMT 50.311707 9.285399 31,000 110 462 0
2021-11-28 09:12:40 GMT 50.315231 9.271015 31,000 110 462 -128
2021-11-28 09:12:37 GMT 50.316788 9.264583 31,000 110 461 -128
2021-11-28 09:12:34 GMT 50.319717 9.252512 31,000 110 462 -128
2021-11-28 09:12:31 GMT 50.321503 9.245067 31,000 110 461 -128
2021-11-28 09:12:28 GMT 50.323437 9.237052 31,025 110 460 -64
2021-11-28 09:12:25 GMT 50.325897 9.226998 31,000 110 463 -64
2021-11-28 09:12:22 GMT 50.328323 9.216861 31,000 110 462 64
2021-11-28 09:12:19 GMT 50.330185 9.209215 31,000 110 462 64
2021-11-28 09:12:16 GMT 50.334049 9.193181 31,000 110 462 64
2021-11-28 09:12:14 GMT 50.334049 9.193181 31,000 110 463 64
2021-11-28 09:12:11 GMT 50.337029 9.180933 31,000 110 463 0
2021-11-28 09:12:08 GMT 50.339497 9.170689 31,000 110 463 -128
2021-11-28 09:12:04 GMT 50.341778 9.161187 31,000 110 463 -128
2021-11-28 09:12:01 GMT 50.344055 9.151834 31,000 110 463 -128
2021-11-28 09:11:58 GMT 50.347221 9.138695 31,000 110 469 1024
2021-11-28 09:11:55 GMT 50.350853 9.123700 31,000 110 464 -128
2021-11-28 09:11:52 GMT 50.353226 9.113882 31,000 110 464 0
2021-11-28 09:11:49 GMT 50.353226 9.113882 31,000 110 465 256
2021-11-28 09:11:46 GMT 50.357185 9.097496 30,975 110 465 256
2021-11-28 09:11:44 GMT 50.357185 9.097496 30,575 110 468 1024
2021-11-28 09:11:41 GMT 50.359138 9.089331 30,975 110 466 256
2021-11-28 09:11:38 GMT 50.361839 9.078270 30,925 110 466 320
2021-11-28 09:11:35 GMT 50.363983 9.069437 30,925 110 467 512
2021-11-28 09:11:32 GMT 50.366402 9.059489 30,925 110 467 384
2021-11-28 09:11:29 GMT 50.369335 9.047390 30,925 110 467 448
2021-11-28 09:11:26 GMT 50.370918 9.040857 30,900 110 467 512
2021-11-28 09:11:23 GMT 50.372910 9.032713 30,875 110 466 768
2021-11-28 09:11:20 GMT 50.375572 9.021705 30,825 110 466 832
2021-11-28 09:11:17 GMT 50.377533 9.013559 30,775 110 467 960
2021-11-28 09:11:14 GMT 50.379715 9.004558 30,750 110 467 1024
2021-11-28 09:11:11 GMT 50.382706 8.992237 30,675 110 468 1024
2021-11-28 09:11:08 GMT 50.384628 8.984070 30,625 110 468 1024
2021-11-28 09:11:05 GMT 50.386234 8.977537 30,575 110 469 1024
2021-11-28 09:11:03 GMT 50.388702 8.967229 30,500 110 469 1024
2021-11-28 09:11:00 GMT 50.390331 8.960390 30,475 110 470 960
2021-11-28 09:10:57 GMT 50.392685 8.950533 30,375 110 471 960
2021-11-28 09:10:54 GMT 50.395065 8.940558 30,375 110 470 960
2021-11-28 09:10:51 GMT 50.396988 8.932463 30,325 110 471 960
2021-11-28 09:10:48 GMT 50.400101 8.919453 30,275 110 471 960
2021-11-28 09:10:45 GMT 50.401932 8.911719 30,225 110 471 960
2021-11-28 09:10:42 GMT 50.404900 8.899148 30,150 110 471 960
2021-11-28 09:10:39 GMT 50.407242 8.889385 30,125 110 470 896
2021-11-28 09:10:36 GMT 50.408718 8.883114 30,050 110 469 960
2021-11-28 09:10:33 GMT 50.410995 8.873484 29,950 110 468 1024
2021-11-28 09:10:30 GMT 50.413422 8.863220 29,825 110 468 1024
2021-11-28 09:10:27 GMT 50.415710 8.853607 29,950 110 465 1024
2021-11-28 09:10:24 GMT 50.417843 8.844588 29,925 110 465 1024
2021-11-28 09:10:22 GMT 50.421204 8.830334 29,875 110 465 1152
2021-11-28 09:10:19 GMT 50.421204 8.830334 29,825 110 463 1152
2021-11-28 09:10:16 GMT 50.423538 8.820576 36,250 110 462 1664
2021-11-28 09:10:13 GMT 50.426010 8.810023 36,250 110 462 1920
2021-11-28 09:10:10 GMT 50.428528 8.799471 29,550 110 462 1920
2021-11-28 09:10:07 GMT 50.430588 8.790869 29,425 110 462 1728
2021-11-28 09:10:04 GMT 50.432373 8.783208 29,425 110 462 1728
2021-11-28 09:10:02 GMT 50.434204 8.775619 29,275 110 462 1536
2021-11-28 09:09:59 GMT 50.436951 8.763910 29,250 110 461 1472
2021-11-28 09:09:56 GMT 50.438507 8.757332 29,175 110 460 1408
2021-11-28 09:09:53 GMT 50.441071 8.746490 29,125 110 460 1600
2021-11-28 09:09:50 GMT 50.445694 8.726758 29,050 110 459 1792
2021-11-28 09:09:47 GMT 50.445694 8.726758 28,950 110 459 1856
2021-11-28 09:09:44 GMT 50.447266 8.720027 28,625 110 459 1920
2021-11-28 09:09:41 GMT 50.449127 8.712086 28,750 110 458 1984
2021-11-28 09:09:38 GMT 50.451778 8.700726 28,675 110 459 1920
2021-11-28 09:09:35 GMT 50.453751 8.692426 28,550 110 458 2048
2021-11-28 09:09:32 GMT 50.456017 8.682540 28,475 109 458 2048
2021-11-28 09:09:29 GMT 50.458145 8.673272 28,375 109 458 2048
2021-11-28 09:09:26 GMT 50.460575 8.662794 28,275 109 458 2048
2021-11-28 09:09:23 GMT 50.462448 8.654697 28,150 109 458 2176
2021-11-28 09:09:20 GMT 50.464535 8.645646 28,050 109 458 2112
2021-11-28 09:09:17 GMT 50.467468 8.632953 27,950 109 457 2176
2021-11-28 09:09:14 GMT 50.469955 8.621882 27,875 109 458 2176
2021-11-28 09:09:12 GMT 50.469955 8.621882 27,675 109 457 2240
2021-11-28 09:09:09 GMT 50.473194 8.607788 27,675 109 457 2176
2021-11-28 09:09:06 GMT 50.474579 8.601717 27,600 109 458 2176
2021-11-28 09:09:03 GMT 50.477337 8.589675 27,450 109 458 2240
2021-11-28 09:09:00 GMT 50.479153 8.581733 27,325 109 458 2432
2021-11-28 09:08:57 GMT 50.483341 8.563472 27,075 110 458 2496
2021-11-28 09:08:54 GMT 50.483341 8.563472 27,100 110 459 2496
2021-11-28 09:08:51 GMT 50.485249 8.555306 27,025 110 458 2496
2021-11-28 09:08:48 GMT 50.487991 8.543533 26,825 110 458 2752
2021-11-28 09:08:45 GMT 50.489777 8.535871 26,425 110 460 2176
2021-11-28 09:08:42 GMT 50.492840 8.523089 26,550 110 459 2624
2021-11-28 09:08:38 GMT 50.495399 8.512548 26,375 110 460 2176
2021-11-28 09:08:35 GMT 50.497559 8.503707 26,250 112 459 1728
2021-11-28 09:08:32 GMT 50.499634 8.495327 26,175 113 460 1728
2021-11-28 09:08:29 GMT 50.502502 8.484626 26,075 114 458 1728
2021-11-28 09:08:26 GMT 50.504757 8.476843 26,025 116 457 1792
2021-11-28 09:08:23 GMT 50.507084 8.469123 25,725 117 457 1856
2021-11-28 09:08:20 GMT 50.511063 8.456871 25,850 118 457 1920
2021-11-28 09:08:17 GMT 50.513367 8.450268 25,725 120 456 1920
2021-11-28 09:08:14 GMT 50.517044 8.440247 25,625 121 455 1856
2021-11-28 09:08:11 GMT 50.520538 8.431265 25,375 122 454 2048
2021-11-28 09:08:08 GMT 50.522873 8.425429 25,425 122 454 2048
2021-11-28 09:08:05 GMT 50.527100 8.414859 25,400 122 454 2112
2021-11-28 09:08:02 GMT 50.529785 8.408083 25,250 121 453 2176
2021-11-28 09:07:59 GMT 50.533852 8.397860 25,100 122 452 2112
2021-11-28 09:07:56 GMT 50.536552 8.391031 25,025 122 452 2112
2021-11-28 09:07:52 GMT 50.541779 8.377943 24,925 121 452 2176
2021-11-28 09:07:48 GMT 50.545673 8.368093 24,775 121 451 2112
2021-11-28 09:07:44 GMT 50.550705 8.355464 24,550 121 450 2112
2021-11-28 09:07:41 GMT 50.553589 8.348164 24,500 121 450 2112
2021-11-28 09:07:38 GMT 50.556473 8.340936 24,375 121 450 2112
2021-11-28 09:07:35 GMT 50.560059 8.331868 24,275 121 449 2176
2021-11-28 09:07:32 GMT 50.563412 8.323405 24,200 121 449 2240
2021-11-28 09:07:28 GMT 50.567368 8.313458 24,075 121 448 2240
2021-11-28 09:07:24 GMT 50.572025 8.301730 23,750 121 447 2240
2021-11-28 09:07:21 GMT 50.575241 8.293521 23,300 121 447 2240
2021-11-28 09:07:18 GMT 50.581284 8.278271 23,650 121 446 2240
2021-11-28 09:07:15 GMT 50.584454 8.270330 23,525 121 445 2240
2021-11-28 09:07:12 GMT 50.584454 8.270330 23,500 121 445 2176
2021-11-28 09:07:10 GMT 50.587097 8.263526 23,400 121 445 2176
2021-11-28 09:07:06 GMT 50.591530 8.252366 21,925 121 443 2240
2021-11-28 09:07:03 GMT 50.597534 8.237148 22,875 121 442 2304
2021-11-28 09:07:00 GMT 50.597534 8.237148 22,975 121 442 2304
2021-11-28 09:06:57 GMT 50.601723 8.226607 22,800 121 442 2304
2021-11-28 09:06:54 GMT 50.604843 8.218738 22,775 121 441 2368
2021-11-28 09:06:51 GMT 50.607590 8.211686 22,625 121 440 2304
2021-11-28 09:06:48 GMT 50.610989 8.203224 22,525 121 440 2304
2021-11-28 09:06:45 GMT 50.614197 8.195006 22,425 121 439 2304
2021-11-28 09:06:42 GMT 50.621181 8.177317 22,250 121 432 2496
2021-11-28 09:06:39 GMT 50.621181 8.177317 22,200 121 437 2368
2021-11-28 09:06:36 GMT 50.623398 8.171732 22,050 121 437 2368
2021-11-28 09:06:33 GMT 50.626602 8.163565 21,925 121 436 2304
2021-11-28 09:06:30 GMT 50.630306 8.154157 21,875 121 436 2304
2021-11-28 09:06:26 GMT 50.634842 8.142604 21,600 121 434 2368
2021-11-28 09:06:23 GMT 50.637039 8.137038 21,600 121 434 2368
2021-11-28 09:06:20 GMT 50.640839 8.127498 21,425 121 432 2432
2021-11-28 09:06:17 GMT 50.643585 8.120487 21,275 121 431 2496
2021-11-28 09:06:14 GMT 50.647980 8.109356 21,175 121 431 2496
2021-11-28 09:06:11 GMT 50.650604 8.102565 21,050 121 430 2496
2021-11-28 09:06:08 GMT 50.653564 8.095117 20,925 121 430 2496
2021-11-28 09:06:05 GMT 50.656143 8.088536 20,775 121 429 2496
2021-11-28 09:06:02 GMT 50.659451 8.080147 20,675 121 428 2496
2021-11-28 09:05:59 GMT 50.662102 8.073467 20,625 121 428 2496
2021-11-28 09:05:55 GMT 50.666573 8.062035 20,375 121 427 2432
2021-11-28 09:05:52 GMT 50.670731 8.051461 20,250 121 426 2368
2021-11-28 09:05:49 GMT 50.672901 8.045959 20,225 121 426 2368
2021-11-28 09:05:45 GMT 50.677883 8.033371 20,025 121 424 2688
2021-11-28 09:05:42 GMT 50.680397 8.027039 19,900 121 424 2688
2021-11-28 09:05:39 GMT 50.683002 8.020401 19,775 121 423 2688
2021-11-28 09:05:36 GMT 50.687119 8.009924 19,550 121 422 2688
2021-11-28 09:05:33 GMT 50.689819 8.003095 19,425 121 422 2752
2021-11-28 09:05:30 GMT 50.692455 7.996368 19,300 121 421 2688
2021-11-28 09:05:27 GMT 50.695816 7.987877 19,075 121 419 2752
2021-11-28 09:05:24 GMT 50.698517 7.981048 19,025 121 419 2752
2021-11-28 09:05:21 GMT 50.702744 7.970276 18,875 121 419 2752
2021-11-28 09:05:18 GMT 50.704376 7.966201 18,750 121 418 2688
2021-11-28 09:05:15 GMT 50.708469 7.955780 18,300 121 417 2688
2021-11-28 09:05:12 GMT 50.710556 7.950316 18,525 121 416 2688
2021-11-28 09:05:08 GMT 50.715031 7.938995 18,300 121 410 2944
2021-11-28 09:05:05 GMT 50.718063 7.931164 18,125 121 414 2752
2021-11-28 09:05:02 GMT 50.720444 7.925151 18,125 121 412 2816
2021-11-28 09:04:59 GMT 50.727585 7.906742 17,900 121 412 2816
2021-11-28 09:04:56 GMT 50.727585 7.906742 17,750 121 411 2880
2021-11-28 09:04:53 GMT 50.729462 7.901842 17,650 121 410 2944
2021-11-28 09:04:50 GMT 50.732895 7.892934 17,075 120 407 2944
2021-11-28 09:04:47 GMT 50.735825 7.885289 16,825 120 408 2944
2021-11-28 09:04:44 GMT 50.738682 7.877808 17,050 120 407 2944
2021-11-28 09:04:41 GMT 50.741730 7.869774 17,000 120 406 3008
2021-11-28 09:04:38 GMT 50.744202 7.863242 16,875 120 405 3136
2021-11-28 09:04:35 GMT 50.747360 7.854779 16,675 120 405 3072
2021-11-28 09:04:32 GMT 50.750271 7.846909 16,500 117 403 2944
2021-11-28 09:04:28 GMT 50.754368 7.834702 16,375 107 400 3200
2021-11-28 09:04:24 GMT 50.756332 7.828056 16,250 107 400 3200
2021-11-28 09:04:21 GMT 50.758743 7.818604 16,000 108 400 3200
2021-11-28 09:04:18 GMT 50.760956 7.808236 15,875 105 399 3200
2021-11-28 09:04:14 GMT 50.762512 7.799402 15,425 99 397 3136
2021-11-28 09:04:11 GMT 50.763748 7.790791 15,475 97 394 3136
2021-11-28 09:04:08 GMT 50.764755 7.782255 15,275 97 396 3200
2021-11-28 09:04:05 GMT 50.765820 7.770081 15,150 97 395 3200
2021-11-28 09:04:02 GMT 50.766285 7.764206 14,975 97 394 3200
2021-11-28 09:03:59 GMT 50.766907 7.756199 14,825 97 393 3200
2021-11-28 09:03:56 GMT 50.767590 7.747803 14,675 97 391 3200
2021-11-28 09:03:53 GMT 50.768417 7.737419 14,275 97 389 3200
2021-11-28 09:03:50 GMT 50.768986 7.730255 14,300 97 388 3200
2021-11-28 09:03:47 GMT 50.769882 7.719454 14,200 97 388 3200
2021-11-28 09:03:44 GMT 50.770245 7.715454 13,950 97 386 3136
2021-11-28 09:03:41 GMT 50.771118 7.705128 13,900 97 386 3136
2021-11-28 09:03:38 GMT 50.771732 7.698288 13,725 97 384 3200
2021-11-28 09:03:35 GMT 50.772491 7.689094 13,450 97 383 3392
2021-11-28 09:03:32 GMT 50.773411 7.678375 13,425 97 382 3392
2021-11-28 09:03:28 GMT 50.774387 7.667236 13,125 97 381 3392
2021-11-28 09:03:25 GMT 50.774872 7.661257 12,250 97 347 1472
2021-11-28 09:03:22 GMT 50.775688 7.651443 12,800 97 379 3136
2021-11-28 09:03:19 GMT 50.776340 7.643890 12,650 97 377 3072
2021-11-28 09:03:16 GMT 50.777321 7.632599 12,525 97 377 3008
2021-11-28 09:03:13 GMT 50.777527 7.630079 12,475 97 374 2880
2021-11-28 09:03:10 GMT 50.778397 7.619835 12,225 97 373 2816
2021-11-28 09:03:07 GMT 50.780045 7.600906 12,100 97 371 2880
2021-11-28 09:03:04 GMT 50.780045 7.600906 11,925 97 369 2560
2021-11-28 09:03:01 GMT 50.780483 7.595825 11,775 97 367 2112
2021-11-28 09:02:58 GMT 50.781418 7.585020 11,725 97 364 1536
2021-11-28 09:02:54 GMT 50.782112 7.577362 11,625 97 359 1408
2021-11-28 09:02:51 GMT 50.782810 7.569199 11,525 97 354 1472
2021-11-28 09:02:48 GMT 50.783882 7.557449 11,450 98 350 1472
2021-11-28 09:02:45 GMT 50.784164 7.553991 11,375 97 346 1472
2021-11-28 09:02:42 GMT 50.784851 7.546494 11,325 97 341 1536
2021-11-28 09:02:39 GMT 50.785721 7.536844 11,250 98 337 1536
2021-11-28 09:02:36 GMT 50.786259 7.530746 11,175 97 334 1536
2021-11-28 09:02:33 GMT 50.786682 7.525709 11,100 97 332 1536
2021-11-28 09:02:30 GMT 50.787460 7.517098 11,025 97 324 1536
2021-11-28 09:02:27 GMT 50.788258 7.508163 10,875 98 320 1536
2021-11-28 09:02:24 GMT 50.788773 7.502136 10,900 98 312 1600
2021-11-28 09:02:20 GMT 50.789520 7.493938 10,775 98 311 1664
2021-11-28 09:02:17 GMT 50.790260 7.485886 10,675 98 295 1984
2021-11-28 09:02:12 GMT 50.791145 7.476196 10,550 98 295 1984
2021-11-28 09:02:09 GMT 50.791656 7.470169 10,425 98 294 2176
2021-11-28 09:02:06 GMT 50.792309 7.463455 10,000 98 286 3584
2021-11-28 09:02:03 GMT 50.792866 7.457123 10,250 98 289 2944
2021-11-28 09:01:59 GMT 50.793549 7.449770 9,975 98 286 3584
2021-11-28 09:01:56 GMT 50.794170 7.443008 9,750 98 286 3520
2021-11-28 09:01:53 GMT 50.794739 7.436853 9,675 98 284 3456
2021-11-28 09:01:49 GMT 50.795746 7.426015 9,375 98 282 3456
2021-11-28 09:01:46 GMT 50.796066 7.422898 9,275 98 282 3520
2021-11-28 09:01:42 GMT 50.796753 7.415475 8,975 98 281 3648
2021-11-28 09:01:39 GMT 50.797394 7.408571 8,775 98 279 3712
2021-11-28 09:01:36 GMT 50.798126 7.400777 8,250 97 278 3776
2021-11-28 09:01:32 GMT 50.798779 7.393341 8,375 97 279 3776
2021-11-28 09:01:28 GMT 50.799431 7.385635 7,975 97 278 3712
2021-11-28 09:01:25 GMT 50.799911 7.379843 7,875 97 277 3648
2021-11-28 09:01:22 GMT 50.800415 7.373756 7,800 98 269 3584
2021-11-28 09:01:19 GMT 50.801010 7.366778 7,600 97 274 3456
2021-11-28 09:01:15 GMT 50.801651 7.359429 7,350 98 273 3392
2021-11-28 09:01:12 GMT 50.802246 7.353045 7,125 98 272 3392
2021-11-28 09:01:09 GMT 50.802734 7.347870 6,925 98 270 3520
2021-11-28 09:01:06 GMT 50.803391 7.341094 6,825 98 270 3520
2021-11-28 09:01:03 GMT 50.803902 7.335892 6,675 98 269 3584
2021-11-28 09:01:00 GMT 50.804413 7.330627 6,400 98 267 3520
2021-11-28 09:00:57 GMT 50.804878 7.325974 6,300 97 266 3456
2021-11-28 09:00:54 GMT 50.805496 7.319121 6,125 98 265 3520
2021-11-28 09:00:51 GMT 50.805996 7.313461 5,900 98 263 3520
2021-11-28 09:00:48 GMT 50.806503 7.307616 5,775 97 262 3648
2021-11-28 09:00:45 GMT 50.806973 7.302094 5,625 97 262 3648
2021-11-28 09:00:41 GMT 50.807648 7.294328 5,325 97 260 2880
2021-11-28 09:00:38 GMT 50.808151 7.288538 5,200 96 258 2240
2021-11-28 09:00:35 GMT 50.808563 7.282971 5,125 95 256 1856
2021-11-28 09:00:32 GMT 50.808834 7.278519 5,075 94 251 1408
2021-11-28 09:00:29 GMT 50.809113 7.272207 5,000 93 242 1472
2021-11-28 09:00:26 GMT 50.809296 7.267011 4,925 93 242 1472
2021-11-28 09:00:23 GMT 50.809486 7.259903 4,800 90 231 1408
2021-11-28 09:00:19 GMT 50.809532 7.254868 4,750 90 228 1408
2021-11-28 09:00:15 GMT 50.809662 7.248304 4,650 95 219 1280
2021-11-28 09:00:10 GMT 50.810532 7.239396 4,525 105 212 1216
2021-11-28 09:00:06 GMT 50.811401 7.234868 4,475 111 207 1216
2021-11-28 09:00:02 GMT 50.813118 7.229080 4,350 122 197 1344
2021-11-28 08:59:59 GMT 50.815887 7.222323 4,275 126 192 1344
2021-11-28 08:59:56 GMT 50.815887 7.222323 4,225 129 188 1472
2021-11-28 08:59:52 GMT 50.818424 7.217484 4,150 137 181 1792
2021-11-28 08:59:48 GMT 50.821198 7.213118 4,025 137 181 1792
2021-11-28 08:59:45 GMT 50.822754 7.210891 3,950 138 177 2304
2021-11-28 08:59:40 GMT 50.827240 7.204656 3,700 138 174 2816
2021-11-28 08:59:37 GMT 50.827240 7.204656 3,625 138 174 2816
2021-11-28 08:59:33 GMT 50.829712 7.201167 3,225 138 174 3136
2021-11-28 08:59:30 GMT 50.831406 7.198792 3,200 138 174 3200
2021-11-28 08:59:27 GMT 50.833145 7.196342 3,075 138 175 3264
2021-11-28 08:59:24 GMT 50.835136 7.193527 2,950 138 176 3200
2021-11-28 08:59:19 GMT 50.837769 7.189809 2,650 138 177 3008
2021-11-28 08:59:16 GMT 50.839783 7.186989 2,550 138 179 2880
2021-11-28 08:59:10 GMT 50.843811 7.181347 2,200 138 176 2240
2021-11-28 08:59:06 GMT 50.846100 7.178229 2,125 138 174 2240
2021-11-28 08:58:59 GMT 50.850826 7.171555 1,800 138 171 2624
2021-11-28 08:58:56 GMT 50.852314 7.169495 1,700 138 170 2816
2021-11-28 08:58:47 GMT 50.858093 7.161379 1,125 138 179 2560
2021-11-28 08:58:37 GMT 50.863266 7.154030 725 137 176 512
2021-11-28 08:58:25 GMT 50.870003 7.144318 775 137 148 256
2021-11-28 08:58:18 GMT 50.873077 7.139893 750 137 118 192
2021-11-28 08:58:10 GMT 50.876034 7.135563 0 137 82
2021-11-28 08:57:59 GMT 50.878044 7.132645 0 137 26
2021-11-28 08:57:50 GMT 50.878498 7.131983 0 126 5
2021-11-28 08:57:39 GMT 50.878662 7.131748 0 87 6
2021-11-28 08:57:26 GMT 50.878624 7.131222 0 53 7
2021-11-28 08:57:17 GMT 50.878452 7.130890 0 70 8
2021-11-28 08:57:08 GMT 50.878338 7.130299 0 75 10
2021-11-28 08:56:56 GMT 50.878208 7.129517 0 75 9
2021-11-28 08:56:48 GMT 50.878143 7.129106 0 75 6
2021-11-28 08:56:36 GMT 50.878059 7.128601 0 78 7
2021-11-28 08:56:24 GMT 50.877983 7.127900 0 64 9

Making use of Plane Finder data

You are free to use the raw flight data, aircraft information and images provided in this report for your own purposes provided the data is correctly attributed to Plane Finder. We ask that you please credit Plane Finder and link to planefinder.net in close proximity to the content.

Optionally one of the following logos (no smaller then 150x24px) can be used and must link to planefinder.net

Embedding the Plane Finder map

You are welcome to embed the Plane Finder playback map on your website to offer visitors a more interactive experience. We suggest using the following HTML code:

<iframe src="//planefinder.net/data/report/MB601-TC-MNV-7700-squawk-2021-11-28/map" width="800" height="600" seamless="seamless"></iframe>

Where our data comes from

Plane Finder has a global network of data feeds and antenna radars that receive data broadcast directly from aircraft. The primary technologies used are ADS-B and MLAT. We also show feeds from the FAA and a FLARM glider feed.

Click here to find out more about the Plane Finder network.

How we collect our data